     2              OBSERVATION DATA    GPS                 RINEX VERSION / TYPE
teqc 1999Jul19 20000201 02:00:41UTC                         PGM / RUN BY / DATE
                                                            COMMENT
L2: 1 -> 1; 5 -> 5; 60 -> 9                                 COMMENT
L2: 1 -> 1; 5 -> 5; 60 -> 9                                 COMMENT
L2: 1 -> 1; 5 -> 5; 60 -> 9                                 COMMENT
L2: 1 -> 1; 5 -> 5; 60 -> 9                                 COMMENT
L2: 1 -> 1; 5 -> 5; 60 -> 9                                 COMMENT
Original Marker Name: 0003                                  COMMENT
Campaign Name: Imperial Valley Leveling                     COMMENT
4-Character Station Name: 0003                              COMMENT
6-Character Antenna Code: TRMSST                            COMMENT
Vertical Measurement Point: BPA                             COMMENT
Vertical Offset to Rinex Ref. Point: 0.0000                 COMMENT
Radial Measurement Point: RRP                               COMMENT
Radial Offset to Rinex Ref. Point: 0.0000                   COMMENT
Antenna Height from Field Measurement: 2.2170 m             COMMENT
Additional Antenna Identification Info.:                    COMMENT
Model 14532.00                                              COMMENT
Original XYZ: -2306306.6245 -4787914.7218 3515733.2630      COMMENT
New XYZ position is based on association with SCEC monument COMMENT
E1D0M3T8+0011. Position of that monument is believed to be  COMMENT
valid to within 1 m horizontally; vertical accuracy         COMMENT
should be no worse than 3-times this value.                 COMMENT
                                                            COMMENT
Revised Rinex header created by UCSD GPS archive for        COMMENT
GSAC on 17-Jul-2000 (2000:199) 21:04:32 GMT                 COMMENT
For assistance contact dagnew@ucsd.edu                      COMMENT
or anderson@python.ucsd.edu                                 COMMENT
                                                            COMMENT
BLACK BUTTE                                                 MARKER NAME
0003                                                        MARKER NUMBER
-Unknown- CALIF DEPT TRANSPORTATION                         OBSERVER / AGENCY
7369 TRIMBLE 4000 SSE NP 6.04; SP 2.07                      REC # / TYPE / VERS
S/N UNKNOWN TR 4000SST L1/L2 GEO                            ANT # / TYPE
 -2306307.3093 -4787914.2275  3515736.4477                  APPROX POSITION XYZ
        2.2170        0.0000        0.0000                  ANTENNA: DELTA H/E/N
     1     1     0                                          WAVELENGTH FACT L1/2
     7    C1    L1    L2    P1    P2    S1    S2            # / TYPES OF OBSERV
     0                                                      INTERVAL
  1995     4    27    15    50   30.000000                  TIME OF FIRST OBS
  1995     4    27    22    30   15.000000                  TIME OF LAST OBS
                                                            END OF HEADER
 95  4 27 15 50 30.0000000  0  7G 2G18G19G27G28G29G31
                   -484601.54515   -365135.14915  23825140.898    23825145.652
         7.750           8.250
                    187619.75517    146196.82016  20287939.383    20287941.988
        20.750          18.000
                    -98735.73416    -76936.79516  20722161.508    20722163.816
        19.000          19.000
                   -387075.26216   -301617.28716  22444675.883    22444678.172
        13.000          12.500
                    169767.36616    127595.48515  23293861.820    23293864.164
        12.000          10.250
                    456093.29016    355397.40316  21611125.078    21611127.613
        17.250          17.000
                   -255104.28116   -198782.65916  21887274.898    21887277.527
        15.500          15.000
 95  4 27 15 50 45.0000000  0  7G 2G18G19G27G28G29G31
                   -524777.533 5   -396441.114 5  23817495.539    23817500.414
         7.750           8.500
                    203444.556 7    158527.797 6  20290950.789    20290953.410
        20.750          18.000
                   -106219.146 6    -82768.049 6  20720737.461    20720739.727
        19.000          19.000
                   -417598.981 6   -325402.026 6  22438867.359    22438869.852
        13.000          12.500
                    186015.236 5    140256.131 5  23296953.523    23296956.137
        11.750          10.250
                    492983.292 6    384142.811 6  21618145.172    21618147.586
        17.250          17.000
                   -274397.025 6   -213815.976 6  21883603.555    21883606.309
        15.500          15.000
 95  4 27 15 51  0.0000000  0  7G 2G18G19G27G28G29G31
                   -564877.819 5   -427688.090 5  23809864.836    23809869.480
         7.750           8.500
                    219431.468 7    170985.100 6  20293992.898    20293995.551
        20.500          18.250
                   -113631.649 6    -88544.055 6  20719326.820    20719329.086
        19.000          19.000
                   -448064.671 6   -349141.544 6  22433069.844    22433072.398
        13.000          12.500
                    202428.455 5    153045.618 5  23300076.891    23300079.469
        11.750          10.250
                    529999.391 6    412986.479 6  21625189.070    21625191.617
        17.250          16.750
                   -293530.618 6   -228725.282 6  21879962.391    21879965.250
        15.500          15.000
 95  4 27 15 51 15.0000000  0  7G 2G18G19G27G28G29G31
                   -604905.398 5   -458878.423 5  23802247.945    23802252.230
         8.000           8.250
                    235575.694 7    183564.981 6  20297065.055    20297067.703
        20.500          18.250
                   -120974.877 6    -94266.076 6  20717929.414    20717931.656
        19.000          19.000
                   -478474.154 6   -372837.262 6  22427283.086    22427285.727
        13.000          12.500
                    219003.210 5    165960.980 5  23303230.992    23303233.547
        11.750          10.250
                    567139.926 6    441927.112 6  21632256.867    21632259.332
        17.250          17.000
                   -312508.204 6   -243513.019 6  21876351.125    21876353.871
        15.500          15.000
 95  4 27 15 51 30.0000000  0  7G 2G18G19G27G28G29G31
                   -644859.993 5   -490011.883 5  23794644.906    23794649.109
         8.000           8.250
                    251878.423 7    196268.373 6  20300167.359    20300170.086
        20.500          18.000
                   -128246.082 6    -99931.972 6  20716545.766    20716548.043
        19.000          19.250
                   -508828.468 6   -396489.988 6  22421506.906    22421509.484
        13.000          12.500
                    235740.374 5    179002.893 5  23306415.961    23306418.594
        11.500          10.250
                    604406.823 6    470966.207 6  21639348.508    21639350.949
        17.250          17.000
                   -331332.680 6   -258181.451 6  21872768.961    21872771.801
        15.500          15.000
 95  4 27 15 51 45.0000000  0  7G 2G18G19G27G28G29G31
                   -684743.416 5   -521089.879 5  23787055.047    23787059.637
         7.750           8.500
                    268334.961 7    209091.611 6  20303298.906    20303301.621
        20.500          18.250
                   -135448.644 6   -105544.386 6  20715175.172    20715177.512
        18.750          19.250
                   -539133.818 6   -420104.569 6  22415740.180    22415742.793
        13.250          12.500
                    252637.319 5    192169.316 5  23309631.383    23309633.863
        11.500          10.250
                    641802.339 6    500105.523 6  21646464.680    21646467.145
        17.250          17.000
                   -350006.171 6   -272732.234 6  21869215.539    21869218.445
        15.500          15.250
 95  4 27 15 52  0.0000000  0  7G 2G18G19G27G28G29G31
                   -724554.198 5   -552111.270 5  23779479.469    23779483.934
         7.750           8.500
                    284943.288 7    222033.130 6  20306459.328    20306462.090
        20.500          18.250
                   -142583.172 6   -111103.782 6  20713817.508    20713819.887
        18.750          19.250
                   -569390.243 6   -443681.023 6  22409982.516    22409985.145
        13.000          12.500
                    269693.034 5    205459.452 5  23312876.961    23312879.477
        11.500          10.250
                    679324.232 6    529343.317 6  21653604.727    21653607.352
        17.000          16.750
                   -368529.091 6   -287165.686 6  21865690.727    21865693.508
        15.500          15.250
 95  4 27 15 52 15.0000000  0  7G 2G18G19G27G28G29G31
                   -764286.236 5   -583071.305 5  23771918.820    23771923.328
         8.000           8.500
                    301707.912 7    235096.443 6  20309649.578    20309652.227
        20.500          18.000
                   -149646.817 6   -116607.944 6  20712473.313    20712475.656
        18.750          19.500
                   -599598.006 6   -467219.558 6  22404234.148    22404236.711
        13.250          12.500
                    286909.921 5    218875.179 5  23316153.211    23316155.652
        11.500          10.000
                    716973.885 6    558680.665 6  21660769.328    21660771.879
        17.000          16.500
                   -386898.525 6   -301479.540 6  21862194.820    21862197.758
        15.500          15.250
 95  4 27 15 52 30.0000000  0  7G 2G18G19G27G28G29G31
                   -803939.939 5   -613970.291 5  23764372.844    23764377.543
         7.750           8.500
                    318625.632 7    248279.051 6  20312868.945    20312871.492
        20.250          18.000
                   -156641.644 6   -122058.484 6  20711142.266    20711144.605
        18.750          19.500
                   -629765.221 6   -490726.499 6  22398493.570    22398496.211
        13.250          12.500
                    304285.693 5    232414.714 5  23319459.719    23319462.184
        11.500          10.000
                    754747.623 6    588114.703 6  21667957.352    21667959.949
        17.000          16.500
                   -405116.796 6   -315675.604 6  21858728.070    21858731.059
        15.500          15.250
 95  4 27 15 52 45.0000000  0  7G 2G18G19G27G28G29G31
                   -843512.932 5   -644806.392 5  23756842.227    23756846.898
         7.750           8.500
                    335698.809 7    261582.792 6  20316117.844    20316120.344
        20.500          18.000
                   -163563.730 6   -127452.342 6  20709825.102    20709827.391
        18.750          19.500
                   -659890.389 6   -514200.671 6  22392760.883    22392763.480
        13.250          12.500
                    321823.503 5    246080.504 5  23322797.078    23322799.582
        11.500          10.000
                    792647.867 6    617647.320 6  21675169.523    21675172.234
        16.750          16.500
                   -423178.522 6   -329749.683 6  21855291.086    21855293.984
        15.500          15.250
 95  4 27 15 53  0.0000000  0  7G 2G18G19G27G28G29G31
                   -883003.861 5   -675578.544 5  23749327.484    23749332.352
         7.750           8.750
                    352926.216 7    275006.715 6  20319396.102    20319398.563
        20.250          18.000
                   -170410.939 6   -132787.850 6  20708522.180    20708524.441
        18.750          19.500
                   -689972.237 6   -537641.096 6  22387036.641    22387039.180
        13.250          12.500
                    339524.085 5    259873.138 5  23326165.445    23326167.949
        11.500          10.000
                    830672.983 6    647277.240 6  21682405.461    21682408.188
        16.500          16.500
                   -441080.990 6   -343699.669 6  21851884.469    21851887.242
        15.500          15.250
 95  4 27 15 53 15.0000000  0  7G 2G18G19G27G28G29G31
                   -922407.391 5   -706282.591 5  23741829.344    23741833.887
         8.000           8.750
                    370308.090 7    288551.001 6  20322703.891    20322706.484
        20.250          18.000
                   -177180.983 6   -138063.233 6  20707233.852    20707236.203
        18.750          19.500
                   -720009.778 6   -561046.988 6  22381320.477    22381323.289
        13.250          12.500
                    357389.157 5    273793.947 5  23329565.117    23329567.289
        11.500           9.750
                    868821.242 6    677003.118 6  21689664.680    21689667.508
        16.500          16.250
                   -458824.261 6   -357525.600 6  21848508.070    21848510.867
        15.500          15.250
 95  4 27 15 53 30.0000000  0  7G 2G18G19G27G28G29G31
                   -961718.762 5   -736914.824 5  23734348.445    23734352.777
         7.750           8.500
                    387850.475 7    302220.359 6  20326042.063    20326044.625
        20.250          18.000
                   -183870.280 6   -143275.696 6  20705960.844    20705963.313
        18.750          19.500
                   -750000.699 6   -584416.556 6  22375613.422    22375616.125
        13.250          12.500
                    375423.373 5    287846.545 5  23332997.031    23332999.008
        11.500           9.750
                    907097.259 6    706828.543 6  21696948.453    21696951.168
        16.500          16.250
                   -476404.798 6   -371224.727 6  21845162.586    21845165.289
        15.500          15.500
 95  4 27 15 53 45.0000000  0  7G 2G18G19G27G28G29G31
                  -1000937.618 5   -767474.976 5  23726885.328    23726889.848
         8.000           8.250
                    405553.254 7    316014.700 6  20329410.773    20329413.430
        20.250          18.000
                   -190480.640 6   -148426.649 6  20704702.984    20704705.395
        18.750          19.750
                   -779947.293 6   -607751.587 6  22369914.789    22369917.398
        13.250          12.500
                    393626.666 5    302030.902 5  23336460.938    23336462.953
        11.500           9.750
                    945501.248 6    736753.688 6  21704256.648    21704259.262
        16.500          16.250
                   -493819.994 6   -384795.018 6  21841848.664    21841851.406
        15.500          15.500
 95  4 27 15 54  0.0000000  0  7G 2G18G19G27G28G29G31
                  -1040061.474 5   -797961.099 5  23719440.195    23719444.879
         8.000           8.250
                    423416.594 7    329934.153 6  20332810.078    20332812.594
        20.250          18.000
                   -197009.840 6   -153514.359 6  20703460.609    20703463.082
        18.750          19.750
                   -809844.166 6   -631047.869 6  22364225.609    22364228.195
        13.250          12.250
                    412001.475 5    316348.906 5  23339957.531    23339959.691
        11.500           9.750
                    984034.431 6    766779.501 6  21711589.258    21711591.977
        16.250          16.250
                   -511065.246 6   -398232.884 6  21838567.070    21838570.023
        15.500          15.500
 95  4 27 15 54 15.0000000  0  7G 2G18G19G27G28G29G31
                  -1079091.981 5   -828374.479 5  23712013.078    23712017.512
         8.250           8.250
                    441443.475 7    343981.039 6  20336240.531    20336243.113
        20.250          18.000
                   -203456.450 6   -158537.716 6  20702233.938    20702236.328
        18.750          19.750
                   -839687.838 6   -654302.698 6  22358546.547    22358549.188
        13.250          12.250
                    430548.740 5    330801.295 5  23343486.797    23343489.051
        11.250           9.750
                   1022695.396 6    796904.884 6  21718945.938    21718948.781
        16.250          16.000
                   -528139.200 6   -411537.277 6  21835317.758    21835320.738
        15.500          15.750
 95  4 27 15 54 30.0000000  0  7G 2G18G19G27G28G29G31
                  -1118025.063 5   -858711.945 5  23704604.383    23704608.617
         8.250           8.250
                    459638.483 7    358158.938 6  20339702.867    20339705.473
        20.250          18.000
                   -209814.975 6   -163492.430 6  20701023.898    20701026.238
        18.750          19.750
                   -869471.066 6   -677510.431 6  22352879.023    22352881.484
        13.250          12.250
                    449274.170 5    345392.512 5  23347049.938    23347052.570
        11.000           9.750
                   1061490.703 6    827134.952 6  21726328.539    21726331.371
        16.250          16.000
                   -545034.801 6   -424702.686 6  21832102.641    21832105.555
        15.500          15.750
 95  4 27 15 54 45.0000000  0  7G 2G18G19G27G28G29G31
                  -1156867.272 5   -888978.592 5  23697213.273    23697217.648
         8.500           8.500
                    477998.201 7    372465.179 6  20343196.672    20343199.105
        20.250          18.000
                   -216087.770 6   -168380.343 6  20699830.117    20699832.535
        18.750          19.750
                   -899191.305 6   -700669.075 6  22347223.297    22347226.031
        13.250          12.250
                    468175.037 5    360120.435 5  23350646.742    23350648.941
        11.000           9.500
                   1100419.220 6    857468.821 6  21733736.500    21733739.438
        16.250          16.000
                   -561753.359 6   -437730.144 6  21828921.289    21828924.141
        15.500          15.750
 95  4 27 15 55  0.0000000  0  7G 2G18G19G27G28G29G31
                  -1195614.232 5   -919171.032 5  23689839.625    23689844.059
         8.500           8.250
                    496528.127 7    386904.048 6  20346722.820    20346725.301
        20.250          18.000
                   -222270.940 6   -173198.420 6  20698653.461    20698655.809
        18.750          19.750
                   -928839.310 6   -723771.432 6  22341581.680    22341584.168
        13.250          12.250
                    487255.251 5    374988.109 5  23354277.547    23354279.980
        11.000           9.500
                   1139486.853 6    887911.090 6  21741170.961    21741173.797
        16.250          15.750
                   -578289.448 6   -450615.417 6  21825774.547    21825777.488
        15.500          15.750
 95  4 27 15 55 15.0000000  0  7G 2G18G19G27G28G29G31
                  -1234251.342 5   -949277.867 5  23682487.242    23682491.602
         8.750           8.250
                    515239.823 7    401484.566 6  20350283.539    20350285.996
        20.250          18.000
                   -228351.317 6   -177936.395 6  20697496.484    20697498.875
        19.000          19.750
                   -958402.306 6   -746807.549 6  22335955.891    22335958.480
        13.000          12.250
                    506527.249 5    390005.219 5  23357945.039    23357947.484
        11.000           9.750
                   1178706.350 6    918471.698 6  21748634.172    21748636.941
        16.250          15.750
                   -594631.734 6   -463349.673 6  21822664.719    21822667.699
        15.500          16.000
 95  4 27 15 55 30.0000000  0  7G 2G18G19G27G28G29G31
                  -1272762.592 5   -979286.626 5  23675158.797    23675163.418
         8.750           8.250
                    534150.585 7    416220.193 6  20353882.211    20353884.586
        20.250          18.000
                   -234315.562 6   -182583.878 6  20696361.555    20696363.902
        19.000          19.750
                   -987864.958 6   -769765.474 6  22330349.477    22330351.957
        13.250          12.500
                    526006.415 5    405183.771 5  23361652.016    23361654.426
        11.000           9.750
                   1218096.723 6    949165.457 6  21756130.039    21756132.801
        16.250          15.750
                   -610766.621 6   -475922.323 6  21819594.398    21819597.340
        15.750          16.000
 95  4 27 15 55 45.0000000  0  7G 2G18G19G27G28G29G31
                  -1311175.713 5  -1009218.926 5  23667848.891    23667853.770
         8.500           8.500
                    553234.294 7    431090.591 6  20357513.711    20357516.297
        20.250          18.000
                   -240189.050 6   -187160.642 6  20695244.039    20695246.215
        19.250          19.750
                  -1017249.578 6   -792662.597 6  22324757.586    22324760.457
        13.000          12.500
                    545667.869 5    420504.357 5  23365393.234    23365395.770
        11.000           9.750
                   1257635.879 6    979975.148 6  21763654.141    21763656.871
        16.250          15.750
                   -626718.135 6   -488352.081 6  21816558.984    21816561.887
        15.750          16.000
 95  4 27 15 56  0.0000000  0  7G 2G18G19G27G28G29G31
                  -1349488.632 5  -1039073.132 5  23660558.313    23660562.781
         9.000           8.500
                    572493.110 7    446097.431 6  20361178.602    20361181.148
        20.250          18.000
                   -245967.722 6   -191663.524 6  20694144.516    20694146.797
        19.250          19.750
                  -1046551.456 6   -815495.249 6  22319181.828    22319184.324
        13.000          12.500
                    565514.983 5    435969.617 5  23369170.250    23369172.543
        11.250           9.750
                   1297325.332 6   1010901.955 6  21771206.813    21771209.563
        16.250          15.750
                   -642482.643 6   -500636.120 6  21813559.234    21813562.051
        15.750          16.000
 95  4 27 15 56 15.0000000  0  7G 2G18G19G27G28G29G31
                  -1387700.731 5  -1068848.787 5  23653286.680    23653291.133
         8.750           8.500
                    591929.073 7    461242.312 6  20364877.148    20364879.633
        20.250          18.000
                   -251650.503 6   -196091.687 6  20693062.922    20693065.305
        19.500          19.750
                  -1075771.006 6   -838263.745 6  22313621.531    22313624.035
        13.000          12.750
                    585548.134 5    451579.843 5  23372982.492    23372984.750
        11.250           9.750
                   1337162.547 6   1041943.905 6  21778787.602    21778790.336
        16.250          15.750
                   -658061.157 6   -512775.234 6  21810594.766    21810597.535
        15.750          16.000
 95  4 27 15 56 30.0000000  0  7G 2G18G19G27G28G29G31
                  -1425802.462 5  -1098538.447 5  23646036.242    23646040.766
         9.000           8.250
                    611548.626 7    476530.250 6  20368610.734    20368613.133
        20.250          18.000
                   -257230.776 6   -200439.971 6  20692001.117    20692003.406
        19.500          19.750
                  -1104905.339 6   -860965.838 6  22308077.367    22308080.051
        13.000          13.000
                    605773.311 5    467339.694 5  23376831.141    23376833.563
        11.250           9.750
                   1377153.226 6   1073105.435 6  21786397.555    21786400.180
        16.250          15.500
                   -673447.931 6   -524764.936 6  21807666.500    21807669.371
        15.750          16.000
 95  4 27 15 56 45.0000000  0  7G 2G18G19G27G28G29G31
                  -1463792.684 5  -1128141.207 5  23638806.625    23638811.180
         8.750           8.250
                    631348.499 7    491958.695 6  20372378.617    20372380.980
        20.500          18.000
                   -262707.755 6   -204707.769 6  20690958.875    20690961.199
        19.500          19.750
                  -1133957.129 6   -883603.615 6  22302548.883    22302551.496
        12.750          13.000
                    626189.219 5    483248.163 5  23380715.914    23380718.453
        10.750           9.750
                   1417296.008 6   1104385.486 6  21794036.508    21794039.223
        16.250          15.500
                   -688645.015 6   -536606.830 6  21804774.750    21804777.523
        15.750          16.000
 95  4 27 15 57  0.0000000  0  7G 2G18G19G27G28G29G31
                  -1501670.087 5  -1157656.063 5  23631598.781    23631603.504
         8.750           8.250
                    651330.019 7    507528.683 6  20376180.750    20376183.125
        20.500          18.250
                   -268080.059 6   -208894.004 6  20689936.578    20689938.906
        19.500          19.750
                  -1162928.964 6   -906179.087 6  22297035.758    22297038.496
        13.000          13.250
                    646795.558 5    499305.025 5  23384637.164    23384639.664
        10.750           9.500
                   1457590.156 6   1135783.482 6  21801704.219    21801706.957
        16.250          15.500
                   -703654.600 6   -548302.621 6  21801918.422    21801921.199
        15.750          15.750
 95  4 27 15 57 15.0000000  0  7G 2G18G19G27G28G29G31
                  -1539423.994 5  -1187074.691 5  23624414.617    23624419.102
         9.000           8.500
                    671501.190 7    523246.444 6  20380019.383    20380021.797
        20.500          18.000
                   -273339.698 6   -212992.447 6  20688935.672    20688938.063
        19.500          19.750
                  -1191814.043 6   -928686.958 6  22291539.320    22291541.828
        13.000          13.250
                    667601.056 5    515517.073 5  23388596.523    23388598.953
        10.750           9.750
                   1498042.555 6   1167304.790 6  21809402.023    21809404.758
        16.250          15.500
                   -718469.841 6   -559846.978 6  21799099.289    21799102.012
        15.750          15.750
 95  4 27 15 57 30.0000000  0  7G 2G18G19G27G28G29G31
                  -1577061.148 5  -1216402.338 5  23617252.523    23617257.133
         9.000           8.500
                    691858.988 7    539109.635 6  20383893.445    20383895.785
        20.500          18.000
                   -278492.500 6   -217007.642 6  20687955.148    20687957.539
        19.250          19.500
                  -1220619.979 6   -951133.153 6  22286057.711    22286060.184
        13.000          13.250
                    688599.963 5    531879.833 5  23392592.453    23392594.848
        10.750           9.750
                   1538647.167 6   1198944.709 6  21817128.836    21817131.664
        16.250          15.750
                   -733097.682 6   -571245.305 6  21796315.547    21796318.336
        15.750          15.750
 95  4 27 15 57 45.0000000  0  7G 2G18G19G27G28G29G31
                  -1614582.972 5  -1245640.128 5  23610112.344    23610116.840
         9.000           8.750
                    712404.771 7    555119.304 6  20387803.102    20387805.449
        20.500          18.250
                   -283538.417 6   -220939.548 6  20686994.844    20686997.246
        19.000          19.750
                  -1249347.536 6   -973518.281 6  22280590.914    22280593.422
        13.000          13.250
                    709792.080 5    548393.143 5  23396625.227    23396627.680
        10.750           9.750
                   1579401.578 6   1230701.351 6  21824884.164    21824886.961
        16.250          15.750
                   -747535.597 6   -582495.645 6  21793568.344    21793571.094
        15.750          16.000
 95  4 27 15 58  0.0000000  0  7G 2G18G19G27G28G29G31
                  -1651981.343 5  -1274781.711 5  23602995.742    23603000.078
         9.000           8.750
                    733147.192 7    571282.202 6  20391750.352    20391752.781
        20.500          18.250
                   -288467.812 6   -224780.658 6  20686056.758    20686059.234
        19.000          19.500
                  -1277990.374 6   -995837.390 6  22275140.430    22275143.020
        13.250          13.500
                    731184.127 5    565062.236 5  23400695.805    23400698.406
        10.500           9.750
                   1620308.678 6   1262576.975 6  21832668.461    21832671.453
        16.000          15.500
                   -761774.416 6   -593590.840 6  21790858.641    21790861.379
        15.750          15.750
 95  4 27 15 58 15.0000000  0  7G 2G18G19G27G28G29G31
                  -1689252.722 5  -1303824.350 5  23595902.938    23595907.637
         9.000           9.000
                    754088.293 7    587599.909 6  20395735.250    20395737.691
        20.500          18.250
                   -293278.072 6   -228528.930 6  20685141.422    20685143.902
        19.000          19.500
                  -1306551.261 6  -1018092.641 6  22269705.625    22269708.078
        13.250          13.500
                    752775.880 5    581886.952 5  23404804.781    23404807.438
        10.500          10.000
                   1661366.160 6   1294569.774 6  21840481.656    21840484.395
        16.000          15.500
                   -775813.884 6   -604530.699 6  21788187.148    21788189.875
        15.750          15.750
 95  4 27 15 58 30.0000000  0  7G 2G18G19G27G28G29G31
                  -1726395.680 5  -1332766.904 5  23588835.000    23588839.855
         9.000           9.000
                    775228.767 7    604072.978 6  20399758.117    20399760.648
        20.500          18.250
                   -297968.355 6   -232183.718 6  20684248.883    20684251.266
        19.000          19.500
                  -1335027.805 6  -1040282.171 6  22264286.805    22264289.125
        13.500          13.750
                    774567.248 5    598867.209 5  23408951.609    23408954.164
        10.750          10.000
                   1702578.241 6   1326683.045 6  21848323.977    21848326.836
        16.000          15.500
                   -789653.721 6   -615315.000 6  21785553.414    21785556.020
        15.750          15.750
 95  4 27 15 58 45.0000000  0  7G 2G18G19G27G28G29G31
                  -1763411.814 5  -1361610.646 5  23581791.063    23581795.711
         9.000           9.000
                    796569.525 7    620702.112 6  20403819.195    20403821.645
        20.500          18.250
                   -302537.090 6   -235743.794 6  20683379.500    20683381.910
        19.000          19.500
                  -1363416.230 6  -1062403.037 6  22258884.492    22258887.188
        13.250          13.750
                    796558.882 5    616003.521 5  23413136.453    23413139.070
        10.750          10.000
                   1743948.101 6   1358919.262 6  21856196.406    21856199.211
        16.000          15.500
                   -803291.403 6   -625941.778 6  21782958.211    21782960.902
        15.750          15.750
 95  4 27 15 59  0.0000000  0  7G 2G18G19G27G28G29G31
                  -1800302.458 5  -1390356.598 5  23574770.898    23574775.332
         9.000           9.000
                    818113.152 7    637489.325 6  20407918.781    20407921.305
        20.500          18.250
                   -306985.020 6   -239209.736 6  20682533.164    20682535.559
        19.000          19.500
                  -1391712.047 6  -1084451.743 6  22253500.008    22253502.656
        13.250          14.000
                    818751.824 5    633296.689 5  23417359.352    23417362.434
        10.500          10.250
                   1785478.380 6   1391280.477 6  21864099.516    21864102.289
        16.000          15.500
                   -816722.778 6   -636407.799 6  21780402.500    21780405.285
        15.750          16.000
 95  4 27 15 59 15.0000000  0  7G 2G18G19G27G28G29G31
                  -1837066.564 5  -1419003.949 5  23567775.016    23567779.641
         9.000           9.000
                    839862.493 7    654436.837 6  20412057.594    20412060.090
        20.500          18.250
                   -311314.269 6   -242583.196 6  20681709.438    20681711.840
        19.000          19.500
                  -1419913.169 6  -1106426.654 6  22248133.516    22248136.152
        13.500          14.000
                    841147.697 5    650747.995 5  23421621.523    23421623.891
        10.750          10.250
                   1827169.601 6   1423767.106 6  21872033.047    21872035.863
        16.000          15.500
                   -829941.810 6   -646708.356 6  21777886.820    21777889.605
        15.750          15.750
 95  4 27 15 59 30.0000000  0  7G 2G18G19G27G28G29G31
                  -1873702.166 5  -1447551.170 5  23560803.469    23560808.094
         9.000           9.250
                    861819.557 7    671546.213 6  20416235.844    20416238.410
        20.500          18.500
                   -315523.289 6   -245862.969 6  20680908.445    20680910.941
        19.000          19.500
                  -1448018.180 6  -1128326.677 6  22242785.344    22242787.801
        13.750          14.000
                    863748.243 5    668358.786 5  23425922.469    23425924.773
        10.750          10.250
                   1869022.950 6   1456380.066 6  21879997.531    21880000.320
        15.750          15.500
                   -842945.212 6   -656840.886 6  21775412.375    21775415.098
        15.750          15.750
 95  4 27 15 59 45.0000000  0  7G 2G18G19G27G28G29G31
                  -1910209.652 5  -1475998.555 5  23553856.102    23553861.113
         8.750           9.250
                    883982.446 7    688815.970 6  20420453.328    20420455.816
        20.500          18.500
                   -319613.661 6   -249050.287 6  20680130.188    20680132.621
        19.000          19.500
                  -1476030.959 6  -1150154.829 6  22237454.641    22237457.152
        13.750          14.000
                    886552.036 5    686127.948 5  23430261.586    23430264.191
        10.750          10.250
                   1911037.228 6   1489118.428 6  21887992.508    21887995.250
        15.750          15.250
                   -855730.186 6   -666803.212 6  21772979.344    21772982.105
        15.750          15.750
 95  4 27 16  0  0.0000000  0  7G 2G18G19G27G28G29G31
                  -1946589.383 5  -1504346.391 5  23546933.297    23546937.926
         9.000           9.250
                    906348.271 7    706243.864 6  20424709.406    20424711.887
        20.500          18.500
                   -323584.462 6   -252144.438 6  20679374.430    20679376.891
        19.250          19.750
                  -1503949.958 6  -1171909.907 6  22232141.656    22232144.258
        13.500          14.000
                    909559.027 5    704055.447 5  23434639.445    23434642.160
        10.500          10.250
                   1953212.247 6   1521982.043 6  21896018.297    21896021.035
        15.750          15.250
                   -868297.045 6   -676595.576 6  21770587.828    21770590.668
        15.750          15.750
 95  4 27 16  0 15.0000000  0  7G 2G18G19G27G28G29G31
                  -1982840.647 5  -1532594.123 5  23540034.984    23540039.563
         9.000           9.250
                    928917.736 7    723830.435 6  20429004.359    20429006.762
        20.500          18.500
                   -327433.711 6   -255143.868 6  20678642.055    20678644.434
        19.500          19.750
                  -1531773.762 6  -1193590.805 6  22226847.078    22226849.758
        13.500          14.250
                    932771.207 5    722142.838 5  23439056.961    23439059.387
        10.750          10.250
                   1995554.143 6   1554975.698 6  21904075.688    21904078.563
        15.750          15.250
                   -880646.043 6   -686218.183 6  21768238.000    21768240.773
        15.750          15.750
 95  4 27 16  0 30.0000000  0  7G 2G18G19G27G28G29G31
                  -2018965.338 5  -1560743.227 5  23533160.648    23533165.457
         9.000           9.250
                    951688.929 7    741574.196 6  20433337.578    20433340.148
        20.500          18.250
                   -331162.663 6   -258049.560 6  20677932.383    20677934.930
        19.500          19.750
                  -1559500.237 6  -1215195.856 6  22221570.813    22221573.516
        13.500          14.250
                    956189.690 5    740390.979 5  23443513.406    23443515.738
        10.750          10.250
                   2038067.628 6   1588103.051 6  21912165.563    21912168.488
        15.500          15.000
                   -892774.676 6   -695669.068 6  21765930.047    21765932.777
        15.750          15.750
 95  4 27 16  0 45.0000000  0  7G 2G18G19G27G28G29G31
                  -2054965.073 5  -1588794.963 5  23526310.242    23526314.453
         9.000           9.250
                    974659.574 7    759473.378 6  20437708.664    20437711.156
        20.500          18.250
                   -334775.468 6   -260864.751 6  20677244.992    20677247.500
        19.500          19.750
                  -1587128.548 6  -1236724.422 6  22216313.445    22216316.023
        13.750          14.250
                    979814.487 5    758799.889 5  23448008.945    23448011.441
        10.750          10.250
                   2080753.333 6   1621364.607 6  21920288.445    21920291.344
        15.250          15.000
                   -904679.629 6   -704945.667 6  21763664.453    21763667.188
        15.750          15.750
 95  4 27 16  1  0.0000000  0  7G 2G18G19G27G28G29G31
                  -2090838.363 5  -1616748.173 5  23519483.711    23519488.367
         9.000           9.250
                    997827.910 7    777526.603 6  20442117.430    20442119.836
        20.500          18.250
                   -338273.701 6   -263590.662 6  20676579.359    20676581.770
        19.750          19.750
                  -1614661.364 6  -1258178.579 6  22211074.117    22211076.547
        13.750          14.250
                   1003645.320 5    777369.349 5  23452543.758    23452546.195
        10.750          10.000
                   2123608.437 6   1654758.158 6  21928443.563    21928446.363
        15.500          15.000
                   -916360.793 6   -714047.878 6  21761441.664    21761444.422
        15.750          15.750
 95  4 27 16  1 15.0000000  0  7G 2G18G19G27G28G29G31
                  -2126579.886 5  -1644598.702 5  23512682.273    23512686.801
         9.250           9.250
                   1021197.494 7    795736.648 6  20446564.664    20446566.992
        20.500          18.250
                   -341653.160 6   -266224.023 6  20675936.305    20675938.699
        19.750          19.750
                  -1642098.323 6  -1279558.042 6  22205853.078    22205855.660
        13.750          14.250
                   1027685.961 5    796102.294 5  23457118.422    23457120.984
        10.750          10.250
                   2166634.517 6   1688284.943 6  21936631.242    21936634.035
        15.500          15.000
                   -927816.903 6   -722974.723 6  21759261.688    21759264.477
        15.750          15.750
 95  4 27 16  1 30.0000000  0  7G 2G18G19G27G28G29G31
                  -2162192.756 5  -1672348.988 5  23505905.344    23505909.953
         9.250           9.250
                   1044761.126 7    814097.895 6  20451048.695    20451051.004
        20.500          18.250
                   -344917.254 6   -268767.483 6  20675315.273    20675317.652
        19.750          19.750
                  -1669444.940 6  -1300867.101 6  22200649.203    22200651.613
        14.000          14.500
                   1051930.917 5    814994.451 5  23461732.414    23461734.906
        10.750          10.250
                   2209826.846 6   1721941.268 6  21944850.508    21944853.203
        15.500          14.750
                   -939057.588 6   -731733.701 6  21757122.742    21757125.523
        16.000          15.750
 95  4 27 16  1 45.0000000  0  7G 2G18G19G27G28G29G31
                  -2197674.523 5  -1699997.111 5  23499153.383    23499158.063
         9.250           9.250
                   1068519.593 7    832610.962 6  20455569.820    20455572.098
        20.250          18.250
                   -348057.804 6   -271214.677 6  20674717.578    20674719.875
        19.750          19.750
                  -1696696.932 6  -1322102.426 6  22195463.414    22195465.887
        14.000          14.500
                   1076383.815 5    834048.632 5  23466385.555    23466388.020
        10.750          10.250
                   2253191.023 6   1755731.505 6  21953102.414    21953105.254
        15.500          15.000
                   -950082.785 6   -740324.771 6  21755024.734    21755027.449
        16.000          16.000
 95  4 27 16  2  0.0000000  0  7G 2G18G19G27G28G29G31
                  -2233029.350 5  -1727546.326 5  23492425.641    23492430.055
         9.500           9.250
                   1092470.058 7    851273.644 6  20460127.461    20460129.879
        20.250          18.250
                   -351077.694 7   -273567.855 6  20674142.961    20674145.219
        20.000          19.750
                  -1723853.845 6  -1343263.666 6  22190295.672    22190298.121
        14.000          14.750
                   1101042.203 5    853262.934 5  23471077.813    23471080.625
        10.750          10.250
                   2296725.254 6   1789654.246 6  21961386.750    21961389.594
        15.250          14.750
                   -960897.182 6   -748751.579 6  21752966.813    21752969.684
        16.000          16.000
 95  4 27 16  2 15.0000000  0  7G 2G18G19G27G28G29G31
                  -2268258.008 5  -1754997.221 5  23485721.930    23485726.773
         9.750           9.250
                   1116614.144 7    870087.195 6  20464721.930    20464724.301
        20.250          18.250
                   -353974.831 7   -275825.377 6  20673591.625    20673593.926
        20.000          19.750
                  -1750911.431 6  -1364347.507 6  22185146.797    22185149.164
        14.000          14.500
                   1125907.458 5    872638.438 5  23475809.711    23475812.402
        10.750          10.500
                   2340431.379 6   1823710.932 6  21969703.688    21969706.660
        15.000          14.750
                   -971501.134 6   -757014.397 6  21750949.117    21750951.898
        16.000          16.000
 95  4 27 16  2 30.0000000  0  7G 2G18G19G27G28G29G31
                  -2303358.143 5  -1782347.975 5  23479042.531    23479047.098
         9.750           9.250
                   1140952.675 7    889052.260 6  20469353.469    20469355.805
        20.250          18.250
                   -356751.464 7   -277989.004 6  20673063.227    20673065.563
        20.000          19.500
                  -1777870.693 6  -1385354.737 6  22180016.516    22180018.883
        14.000          14.750
                   1150979.347 5    892174.956 5  23480580.414    23480583.234
        10.750          10.500
                   2384309.257 6   1857901.453 6  21978053.461    21978056.379
        15.000          14.750
                   -981891.094 6   -765110.476 6  21748972.109    21748974.762
        16.250          16.000
 95  4 27 16  2 45.0000000  0  7G 2G18G19G27G28G29G31
                  -2338326.747 5  -1809596.230 5  23472388.438    23472392.559
        10.000           9.000
                   1165486.120 7    908169.210 6  20474021.953    20474024.246
        20.250          18.000
                   -359408.528 6   -280059.458 6  20672557.680    20672559.898
        19.750          19.500
                  -1804728.015 6  -1406282.528 6  22174905.852    22174908.297
        14.250          14.750
                   1176258.292 5    911872.811 5  23485391.219    23485393.918
        10.750          10.250
                   2428354.603 6   1892222.466 6  21986434.969    21986437.930
        15.000          14.750
                   -992064.413 6   -773037.743 6  21747036.094    21747038.707
        16.250          16.000
 95  4 27 16  3  0.0000000  0  7G 2G18G19G27G28G29G31
                  -2373164.247 5  -1836742.339 5  23465759.055    23465763.391
        10.000           9.250
                   1190214.246 7    927437.859 6  20478727.586    20478729.789
        20.250          18.250
                   -361944.781 6   -282035.773 6  20672075.008    20672077.152
        19.750          19.500
                  -1831485.849 6  -1427132.802 6  22169813.953    22169816.465
        14.250          14.750
                   1201741.803 5    931730.071 5  23490240.344    23490243.195
        10.750          10.250
                   2472562.730 6   1926670.321 6  21994847.641    21994850.543
        15.000          14.750
                  -1002026.337 6   -780800.285 6  21745140.391    21745143.094
        16.250          16.000
 95  4 27 16  3 15.0000000  0  7G 2G18G19G27G28G29G31
                  -2407869.389 5  -1863785.297 5  23459154.852    23459159.156
        10.000           9.250
                   1215141.431 7    946861.616 6  20483471.102    20483473.355
        20.000          18.000
                   -364354.511 6   -283913.502 6  20671616.555    20671618.844
        19.750          19.500
                  -1858142.198 6  -1447903.987 6  22164741.422    22164743.938
        14.250          14.750
                   1227431.984 5    951748.375 5  23495129.039    23495131.805
        10.750          10.250
                   2516935.233 6   1961246.262 6  22003291.234    22003294.223
        15.000          14.500
                  -1011776.832 6   -788398.076 6  21743285.016    21743287.730
        16.250          16.250
 95  4 27 16  3 30.0000000  0  7G 2G18G19G27G28G29G31
                  -2442440.202 5  -1890723.591 5  23452575.867    23452580.449
        10.000           9.250
                   1240268.591 7    966441.199 6  20488252.500    20488254.898
        20.000          18.250
                   -366637.387 6   -285692.379 6  20671182.109    20671184.328
        19.500          19.500
                  -1884695.493 6  -1468594.877 6  22159688.438    22159690.992
        14.250          14.750
                   1253330.049 5    971928.666 5  23500057.430    23500060.164
        10.750          10.250
                   2561473.915 6   1995951.694 6  22011766.898    22011769.738
        15.000          14.500
                  -1021313.604 6   -795829.331 6  21741470.000    21741472.797
        16.250          16.250
 95  4 27 16  3 45.0000000  0  7G 2G18G19G27G28G29G31
                  -2476878.185 5  -1917558.378 5  23446022.773    23446027.215
        10.250           9.250
                   1265594.290 7    986175.486 6  20493071.836    20493074.184
        20.000          18.250
                   -368793.249 6   -287372.287 6  20670771.727    20670774.090
        19.500          19.500
                  -1911147.197 6  -1489206.604 6  22154654.891    22154657.449
        14.250          14.750
                   1279434.011 5    992269.396 5  23505024.766    23505027.574
        10.750          10.250
                   2606178.219 6   2030786.181 6  22020273.813    22020276.750
        15.000          14.250
                  -1030634.613 6   -803092.460 6  21739696.359    21739698.926
        16.500          16.000
 95  4 27 16  4  0.0000000  0  7G 2G18G19G27G28G29G31
                  -2511183.822 5  -1944290.041 5  23439494.820    23439499.258
        10.250           9.250
                   1291121.296 7   1006066.636 6  20497929.547    20497931.883
        20.000          18.250
                   -370827.401 6   -288957.352 6  20670384.711    20670387.109
        19.500          19.500
                  -1937501.648 6  -1509742.549 6  22149639.734    22149642.301
        14.000          14.750
                   1305741.616 5   1012768.810 5  23510030.859    23510033.582
        10.750          10.250
                   2651042.759 6   2065745.528 6  22028811.289    22028814.270
        15.000          14.250
                  -1039739.174 6   -810186.924 6  21737963.898    21737966.539
        16.500          16.000
 95  4 27 16  4 15.0000000  0  7G 2G18G19G27G28G29G31
                  -2545352.583 5  -1970915.051 5  23432992.641    23432996.879
        10.250           9.000
                   1316853.907 7   1026117.999 6  20502826.383    20502828.664
        20.000          18.250
                   -372739.609 6   -290447.402 6  20670020.875    20670023.086
        19.500          19.500
                  -1963754.811 6  -1530199.572 6  22144643.789    22144646.578
        14.000          14.750
                   1332256.616 5   1033429.824 5  23515076.508    23515079.316
        10.750          10.000
                   2696069.130 6   2100830.978 6  22037379.617    22037382.500
        15.000          14.250
                  -1048618.846 6   -817106.151 6  21736274.102    21736276.645
        16.500          16.250
 95  4 27 16  4 30.0000000  0  7G 2G18G19G27G28G29G31
                  -2579387.003 5  -1997435.380 5  23426515.984    23426520.316
        10.250           9.000
                   1342786.240 6   1046324.986 6  20507761.055    20507763.449
        19.750          18.250
                   -374534.494 6   -291846.025 6  20669679.297    20669681.738
        19.500          19.500
                  -1989913.263 6  -1550582.793 6  22139666.141    22139668.629
        14.000          14.750
                   1358973.676 5   1054248.290 5  23520160.633    23520163.305
        10.750          10.000
                   2741251.231 6   2136037.773 6  22045977.492    22045980.391
        15.000          14.250
                  -1057274.520 6   -823850.837 6  21734627.039    21734629.539
        16.500          16.250
 95  4 27 16  4 45.0000000  0  7G 2G18G19G27G28G29G31
                  -2613283.758 5  -2023848.437 5  23420065.711    23420070.426
        10.500           9.250
                   1368920.569 6   1066689.376 6  20512734.266    20512736.645
        19.750          18.250
                   -376208.574 6   -293150.517 6  20669360.547    20669363.059
        19.500          19.750
                  -2015975.936 6  -1570891.379 6  22134706.484    22134709.125
        14.000          14.250
                   1385894.402 5   1075225.455 5  23525283.773    23525286.121
        10.750          10.000
                   2786588.674 6   2171365.617 6  22054604.938    22054607.887
        15.000          14.250
                  -1065706.230 6   -830421.006 6  21733022.414    21733025.035
        16.500          16.000
 95  4 27 16  5  0.0000000  0  7G 2G18G19G27G28G29G31
                  -2647044.423 5  -2050155.438 5  23413641.273    23413645.984
        10.500           9.250
                   1395258.347 6   1087212.297 6  20517746.070    20517748.520
        19.750          18.500
                   -377759.094 6   -294358.729 6  20669065.523    20669068.043
        19.500          19.750
                  -2041944.502 6  -1591126.633 6  22129764.906    22129767.539
        14.000          14.250
                   1413018.198 5   1096360.863 5  23530444.914    23530447.637
        10.750           9.750
                   2832080.990 6   2206814.136 6  22063261.883    22063264.867
        15.000          14.250
                  -1073915.857 6   -836818.120 6  21731460.234    21731462.879
        16.500          16.250
 95  4 27 16  5 15.0000000  0  7G 2G18G19G27G28G29G31
                  -2680668.740 5  -2076356.207 5  23407242.828    23407247.250
        10.500           9.250
                   1421799.876 6   1107893.986 6  20522796.820    20522799.242
        19.750          18.500
                   -379185.119 6   -295469.929 6  20668794.219    20668796.633
        19.750          19.750
                  -2067822.101 6  -1611291.003 6  22124840.523    22124843.039
        14.000          14.250
                   1440344.426 5   1117654.007 5  23535645.070    23535647.777
        10.750           9.750
                   2877731.348 6   2242385.804 6  22071948.852    22071951.820
        15.000          14.250
                  -1081904.751 6   -843043.235 6  21729939.992    21729942.660
        16.500          16.250
 95  4 27 16  5 30.0000000  0  7G 2G18G19G27G28G29G31
                  -2714155.225 5  -2102449.576 5  23400870.672    23400875.039
        10.500           9.250
                   1448546.022 6   1128735.117 6  20527886.469    20527888.930
        19.750          18.500
                   -380488.695 6   -296485.718 6  20668546.258    20668548.680
        19.750          19.750
                  -2093607.154 6  -1631383.265 6  22119933.969    22119936.277
        14.000          14.000
                   1467873.820 5   1139105.463 5  23540883.875    23540886.297
        10.750           9.750
                   2923540.971 6   2278081.582 6  22080666.156    22080669.168
        14.750          14.000
                  -1089672.051 6   -849095.680 6  21728461.938    21728464.527
        16.750          16.000
 95  4 27 16  5 45.0000000  0  7G 2G18G19G27G28G29G31
                  -2747503.208 5  -2128435.014 5  23394524.703    23394528.984
        10.500           9.250
                   1475498.049 6   1149736.672 6  20533015.164    20533017.797
        19.500          18.750
                   -381668.749 6   -297405.253 6  20668321.773    20668324.152
        19.750          19.750
                  -2119298.663 6  -1651402.634 6  22115044.969    22115047.234
        14.250          14.000
                   1495606.813 5   1160715.567 5  23546161.367    23546163.684
        10.750           9.750
                   2969512.559 6   2313903.559 6  22089414.375    22089417.293
        14.750          14.000
                  -1097216.427 6   -854974.415 6  21727026.391    21727029.000
        16.500          16.250
 95  4 27 16  6  0.0000000  0  7G 2G18G19G27G28G29G31
                  -2780717.898 5  -2154316.595 5  23388204.102    23388208.488
        10.500           9.500
                   1502654.231 6   1170897.311 6  20538182.859    20538185.398
        19.750          18.750
                   -382727.991 6   -298230.653 6  20668120.133    20668122.496
        19.750          19.750
                  -2144895.990 6  -1671348.615 6  22110174.031    22110176.176
        14.250          13.750
                   1523540.424 5   1182481.994 5  23551476.953    23551479.242
        10.750           9.750
                   3015639.709 6   2349846.752 6  22098192.047    22098195.063
        14.750          14.000
                  -1104541.769 6   -860682.480 6  21725631.953    21725634.797
        16.500          16.000
 95  4 27 16  6 15.0000000  0  7G 2G18G19G27G28G29G31
                  -2813799.966 5  -2180094.819 5  23381908.789    23381913.313
        10.500           9.500
                   1530011.683 6   1192214.784 6  20543388.758    20543391.270
        19.500          18.750
                   -383666.232 6   -298961.765 6  20667941.547    20667943.883
        19.750          19.750
                  -2170395.359 6  -1691218.267 6  22105321.555    22105323.840
        14.000          13.750
                   1551675.628 5   1204405.509 5  23556830.789    23556833.316
        10.750           9.500
                   3061923.905 6   2385912.320 6  22106999.539    22107002.520
        14.750          14.000
                  -1111647.279 6   -866219.243 6  21724279.898    21724282.730
        16.500          16.000
 95  4 27 16  6 30.0000000  0  7G 2G18G19G27G28G29G31
                  -2846752.025 5  -2205771.750 5  23375638.172    23375642.453
        10.500           9.500
                   1557566.554 6   1213686.086 6  20548632.539    20548635.078
        19.750          18.750
                   -384480.555 6   -299596.322 6  20667786.703    20667788.992
        19.750          19.750
                  -2195797.614 6  -1711012.244 6  22100487.680    22100490.074
        14.000          13.750
                   1580010.537 5   1226484.641 5  23562222.500    23562225.355
        10.500           9.500
                   3108367.921 6   2422102.422 6  22115837.648    22115840.723
        14.750          14.000
                  -1118535.838 6   -871586.955 6  21722969.195    21722971.883
        16.500          16.000
 95  4 27 16  6 45.0000000  0  7G 2G18G19G27G28G29G31
                  -2879572.272 5  -2231345.965 5  23369392.680    23369396.961
        10.750           9.500
                   1585320.888 6   1235312.821 6  20553914.055    20553916.609
        19.500          18.750
                   -385168.330 6   -300132.265 6  20667655.789    20667658.098
        19.750          19.750
                  -2221104.878 6  -1730732.203 6  22095671.883    22095674.238
        14.000          13.750
                   1608544.808 5   1248719.116 5  23567652.547    23567655.184
        10.250           9.250
                   3154971.838 6   2458417.124 6  22124706.148    22124709.141
        14.750          14.000
                  -1125212.198 6   -876789.315 6  21721698.805    21721701.387
        16.750          16.000
 95  4 27 16  7  0.0000000  0  7G 2G18G19G27G28G29G31
                  -2912262.466 5  -2256818.847 5  23363171.930    23363176.250
        10.500           9.750
                   1613274.764 6   1257095.034 6  20559233.477    20559235.973
        19.750          18.750
                   -385730.022 6   -300569.963 6  20667549.023    20667551.371
        19.750          19.750
                  -2246316.052 6  -1750377.285 6  22090874.281    22090876.668
        14.000          13.750
                   1637279.436 5   1271109.712 5  23573120.648    23573123.102
        10.250           9.000
                   3201739.655 6   2494859.540 6  22133605.875    22133608.926
        14.750          14.000
                  -1131676.192 6   -881826.202 6  21720468.664    21720471.328
        16.500          15.750
 95  4 27 16  7 15.0000000  0  7G 2G18G19G27G28G29G31
                  -2944824.095 5  -2282191.545 5  23356975.727    23356980.180
        10.500           9.750
                   1641425.381 6   1279030.555 6  20564590.359    20564592.863
        19.750          18.750
                   -386167.223 6   -300910.654 6  20667465.617    20667467.977
        19.750          19.750
                  -2271430.303 6  -1769946.850 6  22086095.227    22086097.488
        14.250          13.750
                   1666213.685 5   1293655.858 5  23578626.766    23578628.977
        10.500           9.000
                   3248672.314 6   2531430.398 6  22142536.867    22142539.949
        14.750          14.250
                  -1137926.614 6   -886696.666 6  21719279.242    21719281.969
        16.500          15.750
 95  4 27 16  7 30.0000000  0  7G 2G18G19G27G28G29G31
                  -2977259.438 5  -2307465.831 5  23350803.313    23350807.852
        10.500           9.750
                   1669769.999 6   1301117.244 6  20569984.141    20569986.754
        19.500          19.000
                   -386482.511 6   -301156.349 6  20667405.805    20667408.133
        19.750          19.750
                  -2296446.686 6  -1789440.146 6  22081334.969    22081336.984
        14.250          13.750
                   1695346.557 5   1316356.773 5  23584170.406    23584172.715
        10.250           8.750
                   3295767.883 6   2568128.203 6  22151498.914    22151501.957
        14.500          14.000
                  -1143964.642 6   -891401.628 6  21718130.211    21718132.906
        16.500          15.750
 95  4 27 16  7 45.0000000  0  7G 2G18G19G27G28G29G31
                  -3009570.781 5  -2332643.503 5  23344654.805    23344659.227
        10.750           9.750
                   1698306.705 6   1323353.608 6  20575414.406    20575417.063
        19.500          19.000
                   -386676.822 6   -301307.774 6  20667368.898    20667371.156
        19.750          19.750
                  -2321363.899 6  -1808856.173 6  22076593.320    22076595.480
        14.250          13.750
                   1724677.339 5   1339211.909 5  23589752.055    23589754.352
        10.250           9.000
                   3343024.594 6   2604951.569 6  22160491.672    22160494.695
        14.500          14.000
                  -1149787.839 6   -895939.187 6  21717022.086    21717024.711
        16.500          15.750
 95  4 27 16  8  0.0000000  0  7G 2G18G19G27G28G29G31
                  -3041758.239 5  -2357724.635 5  23338529.852    23338534.035
        10.750           9.750
                   1727034.561 6   1345738.925 6  20580881.281    20580883.875
        19.750          19.000
                   -386749.321 6   -301364.280 6  20667355.180    20667357.527
        19.750          19.750
                  -2346181.327 6  -1828194.442 6  22071870.594    22071873.035
        14.250          14.000
                   1754205.750 5   1362221.039 5  23595370.734    23595373.441
        10.000           8.750
                   3390442.258 6   2641900.358 6  22169514.813    22169517.805
        14.500          14.000
                  -1155393.770 6   -900307.451 6  21715955.367    21715957.984
        16.500          16.000
 95  4 27 16  8 15.0000000  0  7G 2G18G19G27G28G29G31
                  -3073820.749 5  -2382708.409 5  23332428.531    23332432.773
        10.750           9.750
                   1755950.397 6   1368270.718 6  20586383.914    20586386.426
        19.750          19.000
                   -386702.579 6   -301327.877 6  20667363.875    20667366.180
        19.750          19.500
                  -2370902.307 6  -1847457.558 6  22067166.430    22067168.801
        14.250          14.000
                   1783930.488 5   1385383.147 5  23601027.250    23601029.996
        10.000           9.000
                   3438019.854 6   2678973.763 6  22178568.625    22178571.578
        14.500          14.000
                  -1160784.246 6   -904507.830 6  21714929.578    21714932.250
        16.500          15.750
 95  4 27 16  8 30.0000000  0  7G 2G18G19G27G28G29G31
                  -3105761.015 5  -2407596.938 5  23326350.523    23326354.965
        10.750          10.000
                   1785051.081 6   1390946.540 6  20591921.594    20591924.176
        19.750          19.000
                   -386540.664 6   -301201.730 6  20667394.758    20667397.168
        19.750          19.500
                  -2395534.149 6  -1866651.227 6  22062479.281    22062481.523
        14.500          14.000
                   1813847.408 5   1408695.006 5  23606720.391    23606722.957
        10.000           8.750
                   3485756.372 6   2716171.001 6  22187652.422    22187655.594
        14.250          14.000
                  -1165964.039 6   -908544.040 6  21713944.023    21713946.777
        16.500          15.750
 95  4 27 16  8 45.0000000  0  7G 2G18G19G27G28G29G31
                  -3137572.301 5  -2432384.946 5  23320296.906    23320301.281
        10.750          10.000
                   1814342.729 6   1413771.175 6  20597495.555    20597497.996
        19.750          19.000
                   -386260.181 6   -300983.187 6  20667448.133    20667450.477
        19.750          19.500
                  -2420073.577 6  -1885772.872 6  22057809.422    22057811.863
        14.500          14.250
                   1843960.917 5   1432160.053 5  23612450.859    23612453.316
        10.000           9.000
                   3533652.666 6   2753492.742 6  22196766.930    22196770.074
        14.250          14.000
                  -1170928.514 6   -912412.467 6  21712999.297    21713001.957
        16.500          15.750
 95  4 27 16  9  0.0000000  0  7G 2G18G19G27G28G29G31
                  -3169256.664 5  -2457074.061 5  23314267.563    23314271.961
        10.750          10.000
                   1843825.286 6   1436744.571 6  20603105.773    20603108.227
        19.750          19.000
                   -385862.418 6   -300673.259 6  20667523.781    20667526.195
        19.500          19.250
                  -2444519.238 6  -1904821.457 6  22053157.633    22053160.051
        14.750          14.250
                   1874272.599 5   1455779.525 5  23618218.883    23618221.539
         9.750           9.000
                   3581707.119 6   2790937.726 6  22205911.508    22205914.680
        14.500          13.750
                  -1175672.934 6   -916109.423 6  21712096.203    21712098.855
        16.500          15.750
 95  4 27 16  9 15.0000000  0  7G 2G18G19G27G28G29G31
                  -3200817.199 5  -2481666.687 5  23308261.859    23308266.246
        10.750          10.000
                   1873493.662 6   1459862.759 6  20608751.531    20608754.105
        19.750          19.000
                   -385352.974 6   -300276.307 6  20667620.805    20667623.129
        19.500          19.000
                  -2468873.699 6  -1923798.972 6  22048523.133    22048525.684
        14.750          14.500
                   1904777.656 5   1479549.670 5  23624024.078    23624026.602
        10.000           9.000
                   3629914.862 6   2828502.157 6  22215085.133    22215088.180
        14.500          13.750
                  -1180198.356 6   -919635.733 6  21711235.016    21711237.594
        16.500          15.750
 95  4 27 16  9 30.0000000  0  7G 2G18G19G27G28G29G31
                  -3232250.864 5  -2506160.450 5  23302280.203    23302284.504
        10.750          10.000
                   1903349.174 6   1483126.765 6  20614432.898    20614435.406
        19.750          19.000
                   -384732.601 6   -299792.918 6  20667738.813    20667741.051
        19.500          19.000
                  -2493135.953 6  -1942704.644 6  22043906.172    22043908.688
        14.750          14.500
                   1935475.983 5   1503470.422 5  23629865.500    23629868.277
         9.750           9.000
                   3678274.491 6   2866184.936 6  22224287.828    22224290.902
        14.500          13.750
                  -1184505.634 6   -922992.062 6  21710415.359    21710417.945
        16.500          15.750
 95  4 27 16  9 45.0000000  0  7G 2G18G19G27G28G29G31
                  -3263555.549 5  -2530553.716 5  23296323.109    23296327.371
        10.750          10.000
                   1933395.223 6   1506539.239 6  20620150.516    20620153.008
        19.750          19.000
                   -384000.128 6   -299222.179 6  20667878.234    20667880.543
        19.500          19.000
                  -2517305.661 6  -1961538.200 6  22039306.875    22039309.277
        14.750          14.750
                   1966368.934 5   1527542.827 5  23635744.586    23635746.992
        10.000           9.000
                   3726787.007 6   2903986.852 6  22233519.492    22233522.527
        14.500          13.750
                  -1188594.579 6   -926178.264 6  21709637.422    21709639.969
        16.750          15.750
 95  4 27 16 10  0.0000000  0  7G 2G18G19G27G28G29G31
                  -3294729.499 5  -2554845.103 5  23290390.906    23290395.164
        10.750          10.000
                   1963633.163 6   1530101.241 6  20625904.625    20625907.258
        19.750          19.000
                   -383153.277 6   -298562.314 6  20668039.477    20668041.836
        19.500          19.000
                  -2541382.120 6  -1980299.098 6  22034725.266    22034727.738
        14.750          14.750
                   1997457.133 5   1551767.377 5  23641660.633    23641663.359
        10.000           9.000
                   3775451.910 6   2941907.510 6  22242780.148    22242783.129
        14.250          13.500
                  -1192465.581 6   -929194.634 6  21708900.859    21708903.457
        16.750          15.750
 95  4 27 16 10 15.0000000  0  7G 2G18G19G27G28G29G31
                  -3325772.105 5  -2579034.146 5  23284483.695    23284487.828
        10.750           9.750
                   1994064.347 7   1553813.830 6  20631695.430    20631697.871
        20.000          19.000
                   -382192.682 6   -297813.814 6  20668222.258    20668224.570
        19.500          18.750
                  -2565367.457 6  -1998988.985 6  22030161.063    22030163.430
        15.000          14.750
                   2028740.509 5   1576144.007 5  23647613.609    23647616.031
        10.000           9.000
                   3824265.425 6   2979943.975 6  22252068.961    22252072.055
        14.250          13.500
                  -1196120.744 6   -932042.821 6  21708205.336    21708207.973
        16.750          15.750
 95  4 27 16 10 30.0000000  0  7G 2G18G19G27G28G29G31
                  -3356686.613 5  -2603123.376 5  23278600.688    23278605.016
        11.000           9.750
                   2024685.168 7   1577674.180 6  20637522.453    20637524.984
        20.000          19.000
                   -381120.965 6   -296978.728 6  20668426.195    20668428.492
        19.500          18.750
                  -2589263.845 6  -2017609.567 6  22025613.672    22025615.973
        15.000          14.750
                   2060216.855 5   1600671.004 5  23653603.250    23653605.996
         9.750           9.000
                   3873222.884 6   3018092.594 6  22261385.273    22261388.293
        14.250          13.250
                  -1199563.327 6   -934725.363 6  21707550.172    21707552.730
        16.750          15.750
 95  4 27 16 10 45.0000000  0  7G 2G18G19G27G28G29G31
                  -3387476.674 5  -2627115.628 5  23272741.383    23272745.852
        11.000          10.000
                   2055495.167 6   1601681.947 6  20643385.352    20643387.863
        19.750          19.000
                   -379937.946 6   -296056.911 6  20668651.289    20668653.457
        19.500          18.750
                  -2613069.200 6  -2036159.209 6  22021083.719    22021086.074
        15.000          14.750
                   2091884.684 5   1625347.209 5  23659629.125    23659631.855
         9.750           8.750
                   3922320.655 6   3056350.553 6  22270728.227    22270731.246
        14.250          13.250
                  -1202791.875 6   -937241.122 6  21706936.070    21706938.598
        16.750          15.750
 95  4 27 16 11  0.0000000  0  7G 2G18G19G27G28G29G31
                  -3418142.016 5  -2651010.703 5  23266906.133    23266910.543
        11.000          10.000
                   2086496.752 6   1625839.001 6  20649284.813    20649287.383
        19.750          19.000
                   -378641.205 6   -295046.484 6  20668898.078    20668900.234
        19.750          18.750
                  -2636781.750 6  -2054636.541 6  22016571.289    22016573.727
        15.000          14.750
                   2123745.036 5   1650173.444 5  23665692.297    23665695.121
         9.750           9.000
                   3971561.403 6   3094719.919 6  22280098.617    22280101.652
        14.250          13.250
                  -1205802.670 6   -939587.205 6  21706362.820    21706365.305
        16.750          15.750
 95  4 27 16 11 15.0000000  0  7G 2G18G19G27G28G29G31
                  -3448683.598 5  -2674809.341 5  23261094.250    23261098.547
        11.000           9.750
                   2117688.906 7   1650144.544 6  20655220.594    20655223.141
        20.000          19.000
                   -377232.165 6   -293948.551 6  20669166.234    20669168.496
        19.750          19.000
                  -2660401.845 6  -2073041.823 6  22012076.352    22012079.055
        15.000          15.000
                   2155795.494 5   1675147.806 5  23671791.203    23671793.695
         9.750           9.000
                   4020946.150 6   3133201.491 6  22289496.172    22289499.340
        14.250          13.250
                  -1208600.294 6   -941767.182 6  21705830.531    21705833.000
        17.000          16.000
 95  4 27 16 11 30.0000000  0  7G 2G18G19G27G28G29G31
                  -3479098.838 5  -2698509.529 5  23255306.320    23255310.813
        11.000           9.750
                   2149072.310 7   1674599.124 6  20661192.734    20661195.238
        20.000          19.000
                   -375711.209 6   -292763.404 6  20669455.750    20669458.047
        19.750          19.000
                  -2683927.843 6  -2091373.780 6  22007599.648    22007602.152
        15.000          15.000
                   2188035.200 5   1700269.641 5  23677926.320    23677929.449
         9.750           9.250
                   4070474.486 6   3171794.953 6  22298921.133    22298924.117
        14.000          13.000
                  -1211189.370 6   -943784.652 6  21705337.852    21705340.359
        16.750          16.000
 95  4 27 16 11 45.0000000  0  7G 2G18G19G27G28G29G31
                  -3509391.155 5  -2722113.933 5  23249541.938    23249546.359
        11.000          10.000
                   2180647.161 7   1699202.875 6  20667201.203    20667203.797
        20.000          19.250
                   -374077.460 7   -291490.370 6  20669766.523    20669768.750
        20.000          19.000
                  -2707362.762 6  -2109634.775 6  22003140.297    22003142.676
        15.000          15.000
                   2220463.613 5   1725538.506 5  23684097.352    23684099.906
         9.750           9.000
                   4120142.300 6   3210497.100 6  22308372.563    22308375.770
        14.000          13.000
                  -1213571.494 6   -945640.864 6  21704884.531    21704887.020
        16.750          16.000
 95  4 27 16 12  0.0000000  0  7G 2G18G19G27G28G29G31
                  -3539559.648 5  -2745621.849 5  23243801.078    23243805.531
        11.000           9.750
                   2212411.702 7   1723954.439 6  20673245.781    20673248.465
        20.000          19.000
                   -372329.843 7   -290128.606 6  20670099.102    20670101.414
        20.000          19.250
                  -2730709.090 6  -2127826.734 6  21998697.539    21998700.137
        15.000          15.000
                   2253080.596 5   1750954.321 5  23690303.891    23690306.715
         9.500           9.000
                   4169946.446 6   3249305.474 6  22317850.109    22317853.145
        14.000          13.000
                  -1215743.406 6   -947333.265 6  21704471.227    21704473.852
        16.750          16.000
 95  4 27 16 12 15.0000000  0  7G 2G18G19G27G28G29G31
                  -3569600.302 5  -2769030.153 5  23238084.531    23238088.816
        11.000           9.750
                   2244366.104 6   1748853.942 6  20679326.547    20679329.094
        19.750          19.000
                   -370468.126 7   -288677.932 6  20670453.430    20670455.832
        20.000          19.250
                  -2753966.173 6  -2145949.152 6  21994271.852    21994274.316
        15.000          15.000
                   2285886.752 5   1776517.535 5  23696546.805    23696549.676
         9.500           9.000
                   4219886.831 6   3288220.014 6  22327353.422    22327356.563
        14.000          13.000
                  -1217702.269 6   -948859.660 6  21704098.422    21704101.039
        16.750          16.000
 95  4 27 16 12 30.0000000  0  7G 2G18G19G27G28G29G31
                  -3599517.406 5  -2792342.177 5  23232391.398    23232395.766
        11.000           9.750
                   2276504.280 6   1773896.652 6  20685442.266    20685444.801
        19.750          19.000
                   -368497.678 6   -287142.529 6  20670828.320    20670830.734
        19.750          19.500
                  -2777137.574 6  -2164004.800 6  21989862.555    21989864.863
        15.000          14.750
                   2318877.999 5   1802224.983 5  23702824.789    23702827.625
         9.750           9.000
                   4269965.745 6   3327242.498 6  22336883.133    22336886.230
        13.750          12.750
                  -1219450.608 6   -950222.006 6  21703765.977    21703768.547
        17.000          16.000
 95  4 27 16 12 45.0000000  0  7G 2G18G19G27G28G29G31
                  -3629309.982 5  -2815557.178 5  23226722.289    23226726.516
        11.000           9.750
                   2308826.652 6   1799082.885 6  20691592.953    20691595.629
        19.750          19.000
                   -366414.550 6   -285519.335 6  20671224.719    20671227.074
        19.750          19.500
                  -2800221.739 6  -2181992.484 6  21985469.828    21985472.152
        15.000          14.750
                   2352054.887 5   1828077.084 5  23709138.063    23709140.633
         9.750           8.750
                   4320189.358 6   3366377.736 6  22346440.289    22346443.566
        13.750          12.750
                  -1220987.898 6   -951419.904 6  21703473.367    21703475.734
        17.000          16.000
 95  4 27 16 13  0.0000000  0  7G 2G18G19G27G28G29G31
                  -3658972.977 5  -2838671.201 5  23221077.234    23221081.918
        11.000          10.000
                   2341337.922 6   1824416.319 6  20697779.688    20697782.359
        19.750          19.000
                   -364215.399 6   -283805.724 6  20671643.297    20671645.723
        19.750          19.500
                  -2823217.296 6  -2199911.111 6  21981093.891    21981096.363
        15.000          14.750
                   2385419.149 5   1854075.197 5  23715487.109    23715489.703
         9.750           8.750
                   4370562.303 6   3405629.335 6  22356026.023    22356029.266
        13.750          12.500
                  -1222312.626 6   -952452.168 6  21703221.203    21703223.703
        17.000          16.250
 95  4 27 16 13 15.0000000  0  7G 2G18G19G27G28G29G31
                  -3688502.937 5  -2861681.552 5  23215458.109    23215462.430
        11.000           9.750
                   2374037.224 6   1849896.266 6  20704002.188    20704004.895
        19.750          19.000
                   -361901.465 6   -282002.674 6  20672083.477    20672085.816
        19.750          19.500
                  -2846123.337 6  -2217759.989 6  21976734.914    21976737.465
        14.750          15.000
                   2418971.561 5   1880219.911 5  23721871.977    23721874.336
         9.750           9.000
                   4421085.007 6   3444997.628 6  22365640.094    22365643.398
        13.750          12.500
                  -1223427.793 6   -953321.137 6  21703009.031    21703011.621
        17.000          16.000
 95  4 27 16 13 30.0000000  0  7G 2G18G19G27G28G29G31
                  -3717899.966 5  -2884588.328 5  23209864.055    23209868.574
        11.000          10.000
                   2406921.213 6   1875520.129 6  20710259.820    20710262.496
        19.750          19.000
                   -359474.151 6   -280111.274 6  20672545.391    20672547.793
        19.500          19.500
                  -2868940.653 6  -2235539.729 6  21972392.805    21972395.379
        14.750          15.000
                   2452710.440 5   1906509.933 5  23728292.055    23728295.141
         9.750           9.250
                   4471752.794 6   3484478.973 6  22375281.828    22375285.035
        13.750          12.500
                  -1224336.030 6   -954028.860 6  21702836.219    21702838.813
        17.000          16.250
 95  4 27 16 13 45.0000000  0  7G 2G18G19G27G28G29G31
                  -3747165.199 5  -2907392.411 5  23204295.156    23204299.488
        11.250          10.000
                   2439990.929 6   1901288.713 6  20716552.836    20716555.375
        19.750          19.000
                   -356932.035 6   -278130.418 6  20673029.313    20673031.715
        19.500          19.250
                  -2891670.463 6  -2253251.286 6  21968067.633    21968070.035
        14.750          14.750
                   2486636.789 5   1932946.026 5  23734748.461    23734750.961
         9.750           9.000
                   4522565.375 6   3524073.142 6  22384951.195    22384954.520
        13.500          12.500
                  -1225033.363 6   -954572.244 6  21702703.531    21702706.055
        17.000          16.250
 95  4 27 16 14  0.0000000  0  7G 2G18G19G27G28G29G31
                  -3776299.459 5  -2930094.431 5  23198751.039    23198755.391
        11.000          10.000
                   2473244.329 6   1927200.428 6  20722880.719    20722883.309
        19.750          19.000
                   -354275.519 6   -276060.421 6  20673534.820    20673537.266
        19.250          19.250
                  -2914314.619 6  -2270896.096 6  21963758.617    21963761.063
        14.750          15.000
                   2520748.949 5   1959526.910 5  23741239.523    23741242.297
         9.750           9.250
                   4573523.159 6   3563780.463 6  22394648.211    22394651.363
        13.500          12.500
                  -1225519.680 6   -954951.198 6  21702610.977    21702613.496
        17.000          16.000
 95  4 27 16 14 15.0000000  0  7G 2G18G19G27G28G29G31
                  -3805305.433 5  -2952696.487 5  23193231.445    23193235.512
        11.250          10.000
                   2506678.046 6   1953252.651 6  20729242.891    20729245.457
        19.500          19.000
                   -351506.626 6   -273902.857 6  20674061.633    20674064.031
        19.250          19.000
                  -2936871.901 6  -2288473.215 6  21959466.180    21959468.500
        14.750          15.000
                   2555044.186 5   1986250.454 5  23747765.453    23747768.551
         9.500           9.250
                   4624629.259 6   3603603.347 6  22404373.555    22404376.746
        13.500          12.250
                  -1225797.181 6   -955167.442 6  21702558.078    21702560.582
        17.000          16.000
 95  4 27 16 14 30.0000000  0  7G 2G18G19G27G28G29G31
                  -3834187.933 5  -2975202.324 5  23187735.070    23187739.465
        11.250          10.000
                   2540292.929 6   1979446.047 6  20735639.750    20735642.363
        19.500          18.750
                   -348625.210 6   -271657.610 6  20674609.992    20674612.359
        19.000          19.000
                  -2959339.719 6  -2305980.613 6  21955190.633    21955192.988
        14.750          15.000
                   2589521.533 5   2013115.909 5  23754326.781    23754329.199
         9.750           9.250
                   4675888.528 6   3643545.589 6  22414127.836    22414130.910
        13.250          12.250
                  -1225868.655 6   -955223.135 6  21702544.453    21702546.996
        17.000          16.000
 95  4 27 16 14 45.0000000  0  7G 2G18G19G27G28G29G31
                  -3862949.025 5  -2997613.568 5  23182262.305    23182266.117
        11.250          10.000
                   2574092.026 6   2005782.981 6  20742071.500    20742074.047
        19.500          18.750
                   -345630.288 6   -269323.917 6  20675179.875    20675182.262
        19.000          19.000
                  -2981718.695 6  -2323418.786 6  21950931.938    21950934.453
        14.500          15.000
                   2624181.331 5   2040123.517 5  23760921.922    23760924.805
         9.500           9.250
                   4727300.408 6   3683606.741 6  22423911.164    22423914.273
        13.250          12.250
                  -1225734.123 6   -955118.311 6  21702570.242    21702572.637
        17.000          16.000
 95  4 27 16 15  0.0000000  0  7G 2G18G19G27G28G29G31
                  -3891591.743 5  -3019932.569 5  23176811.594    23176815.762
        11.250          10.000
                   2608073.506 6   2032262.034 6  20748537.945    20748540.621
        19.250          18.750
                   -342525.675 6   -266904.750 6  20675770.711    20675773.113
        19.000          18.750
                  -3004013.524 6  -2340791.394 6  21946689.336    21946691.996
        14.500          15.000
                   2659019.198 5   2067269.902 5  23767551.578    23767554.152
         9.750           9.250
                   4778854.049 6   3723778.362 6  22433721.578    22433724.660
        13.250          12.250
                  -1225395.717 6   -954854.621 6  21702634.578    21702637.133
        17.250          16.250
 95  4 27 16 15 15.0000000  0  7G 2G18G19G27G28G29G31
                  -3920113.207 5  -3042157.084 5  23171384.203    23171388.543
        11.250          10.000
                   2642242.328 6   2058887.063 6  20755039.875    20755042.559
        19.250          18.750
                   -339309.035 6   -264398.294 6  20676382.859    20676385.195
        19.000          18.750
                  -3026217.741 6  -2358093.393 6  21942464.117    21942466.535
        14.750          15.000
                   2694041.102 5   2094559.673 5  23774215.727    23774218.840
         9.500           9.250
                   4830551.676 6   3764062.175 6  22443559.141    22443562.258
        13.250          12.250
                  -1224846.581 6   -954426.731 6  21702738.945    21702741.555
        17.000          16.000
 95  4 27 16 15 30.0000000  0  7G 2G18G19G27G28G29G31
                  -3948517.105 5  -3064289.990 5  23165978.977    23165983.457
        11.500          10.250
                   2676597.827 6   2085657.559 6  20761577.633    20761580.293
        19.000          18.750
                   -335982.455 6   -261806.165 6  20677015.836    20677018.293
        19.000          19.000
                  -3048331.950 6  -2375325.254 6  21938255.852    21938258.289
        14.750          15.000
                   2729246.686 5   2121992.585 5  23780915.438    23780918.043
         9.750           9.250
                   4882392.075 6   3804457.248 6  22453424.078    22453427.094
        13.000          12.000
                  -1224085.012 6   -953833.305 6  21702883.820    21702886.277
        17.000          16.000
 95  4 27 16 15 45.0000000  0  7G 2G18G19G27G28G29G31
                  -3976808.055 5  -3086334.883 5  23160595.516    23160599.625
        11.500          10.250
                   2711137.219 6   2112571.348 6  20768150.141    20768152.844
        19.000          18.750
                   -332546.860 6   -259129.093 6  20677669.586    20677671.930
        19.000          18.750
                  -3070361.483 6  -2392491.140 6  21934063.938    21934066.289
        14.750          15.250
                   2764633.165 5   2149566.448 5  23787649.492    23787651.988
        10.000           9.250
                   4934373.534 6   3844962.230 6  22463316.023    22463319.070
        13.000          12.000
                  -1223110.444 6   -953073.905 6  21703069.281    21703071.773
        17.000          15.750
 95  4 27 16 16  0.0000000  0  7G 2G18G19G27G28G29G31
                  -4004982.954 5  -3108289.344 5  23155233.719    23155238.184
        11.500          10.250
                   2745864.358 6   2139631.437 6  20774758.563    20774761.180
        19.000          18.750
                   -328999.863 6   -256365.211 6  20678344.594    20678346.957
        19.000          18.750
                  -3092303.321 6  -2409588.680 6  21929888.602    21929891.074
        15.000          15.500
                   2800205.025 5   2177284.773 5  23794417.906    23794421.160
         9.750           9.250
                   4986504.033 6   3885583.351 5  22473236.195    22473239.117
        13.250          11.750
                  -1221917.357 6   -952144.228 6  21703296.398    21703298.719
        17.000          15.750
 95  4 27 16 16 15.0000000  0  7G 2G18G19G27G28G29G31
                  -4033043.544 5  -3130154.743 5  23149894.102    23149898.379
        11.500          10.000
                   2780774.697 6   2166834.268 6  20781401.828    20781404.496
        19.000          18.750
                   -325345.135 6   -253517.386 6  20679040.133    20679042.496
        19.250          18.750
                  -3114157.785 6  -2426618.150 6  21925729.742    21925732.223
        15.000          15.500
                   2835959.226 5   2205145.169 5  23801222.492    23801225.074
        10.000           9.250
                   5038781.854 6   3926319.266 5  22483184.211    22483187.289
        13.250          11.750
                  -1220508.125 6   -951046.132 6  21703564.445    21703566.918
        17.000          15.750
 95  4 27 16 16 30.0000000  0  7G 2G18G19G27G28G29G31
                  -4060991.677 5  -3151932.508 5  23144575.883    23144580.156
        11.500          10.250
                   2815867.362 6   2194179.176 6  20788079.648    20788082.395
        19.000          18.750
                   -321586.123 6   -250588.301 6  20679755.453    20679757.852
        19.250          18.750
                  -3135923.686 6  -2443578.603 6  21921587.945    21921590.285
        15.000          15.500
                   2871895.147 5   2233147.173 5  23808060.680    23808063.535
        10.000           9.250
                   5091204.135 6   3967167.750 6  22493160.070    22493163.176
        13.250          12.000
                  -1218883.055 6   -949779.849 6  21703873.727    21703876.207
        17.000          15.750
 95  4 27 16 16 45.0000000  0  7G 2G18G19G27G28G29G31
                  -4088823.685 5  -3173619.793 5  23139279.313    23139283.766
        11.500          10.250
                   2851142.242 6   2221666.062 6  20794792.328    20794795.090
        19.000          18.750
                   -317723.300 6   -247578.332 6  20680490.438    20680492.738
        19.250          18.750
                  -3157603.913 6  -2460472.311 6  21917462.250    21917464.707
        15.000          15.750
                   2908012.933 5   2261290.884 5  23814933.891    23814936.207
        10.500           9.250
                   5143764.796 6   4008124.045 5  22503161.961    22503165.133
        13.000          11.750
                  -1217041.466 6   -948344.860 6  21704224.078    21704226.648
        17.000          15.750
 95  4 27 16 17  0.0000000  0  7G 2G18G19G27G28G29G31
                  -4116535.246 5  -3195213.228 5  23134006.359    23134010.477
        11.500          10.250
                   2886599.388 6   2249294.970 6  20801539.523    20801542.215
        19.000          18.750
                   -313753.911 6   -244485.327 6  20681245.828    20681248.156
        19.500          18.750
                  -3179197.181 6  -2477298.256 6  21913353.188    21913355.559
        15.250          15.750
                   2944314.766 5   2289578.002 5  23821841.820    23821844.531
        10.250           9.250
                   5196460.409 6   4049185.501 5  22513189.445    22513192.750
        13.000          11.750
                  -1214980.283 6   -946738.759 6  21704616.375    21704618.926
        17.000          15.750
 95  4 27 16 17 15.0000000  0  7G 2G18G19G27G28G29G31
                  -4144127.065 5  -3216713.345 5  23128755.867    23128759.926
        11.750          10.500
                   2922233.983 6   2277062.163 6  20808320.586    20808323.234
        19.000          18.500
                   -309681.300 6   -241311.877 6  20682020.906    20682023.227
        19.500          18.750
                  -3200703.340 6  -2494056.312 6  21909260.703    21909263.016
        15.250          15.750
                   2980797.757 5   2318006.288 5  23828784.203    23828786.496
        10.000           9.000
                   5249289.904 6   4090351.289 5  22523242.828    22523246.160
        12.750          11.750
                  -1212703.813 6   -944964.889 6  21705049.523    21705052.027
        16.750          15.750
 95  4 27 16 17 30.0000000  0  7G 2G18G19G27G28G29G31
                  -4171595.723 5  -3238117.492 5  23123528.414    23123532.719
        11.750          10.500
                   2958045.554 6   2304967.257 6  20815135.281    20815137.988
        19.000          18.750
                   -305504.060 6   -238056.902 6  20682815.648    20682818.016
        19.500          18.750
                  -3222122.822 6  -2510746.833 6  21905184.586    21905187.039
        15.500          15.750
                   3017462.825 5   2346576.466 5  23835761.602    23835763.762
        10.000           9.250
                   5302258.227 6   4131625.250 5  22533322.242    22533325.543
        12.750          11.750
                  -1210213.068 6   -943024.054 6  21705523.523    21705526.063
        16.750          15.750
 95  4 27 16 17 45.0000000  0  7G 2G18G19G27G28G29G31
                  -4198934.111 5  -3259420.124 5  23118326.156    23118330.398
        11.750          10.500
                   2994035.150 6   2333011.086 6  20821983.844    20821986.574
        19.000          18.500
                   -301217.222 6   -234716.511 6  20683631.492    20683633.840
        19.500          18.750
                  -3243453.162 6  -2527367.879 6  21901125.641    21901128.340
        15.500          16.250
                   3054311.502 5   2375289.716 5  23842773.328    23842775.844
         9.750           9.000
                   5355367.527 6   4173009.081 5  22543428.781    22543432.070
        13.000          11.750
                  -1207506.777 6   -940915.251 6  21706038.383    21706040.855
        16.750          15.750
 95  4 27 16 18  0.0000000  0  7G 2G18G19G27G28G29G31
                  -4226140.554 5  -3280619.961 5  23113149.031    23113153.156
        11.750          10.750
                   3030202.032 6   2361193.032 6  20828866.305    20828868.953
        19.000          18.500
                   -296819.978 6   -231290.115 6  20684468.281    20684470.609
        19.250          18.750
                  -3264693.321 6  -2543918.677 6  21897083.844    21897086.563
        15.750          16.500
                   3091342.407 5   2404144.942 5  23849820.109    23849822.910
         9.250           9.250
                   5408617.710 6   4214502.668 5  22553561.945    22553565.082
        13.000          11.500
                  -1204586.428 6   -938639.676 6  21706594.328    21706596.680
        16.500          15.750
 95  4 27 16 18 15.0000000  0  7G 2G18G19G27G28G29G31
                  -4253216.756 5  -3301718.288 5  23107996.531    23108000.961
        11.750          10.750
                   3066542.497 6   2389510.265 6  20835781.648    20835784.262
        19.000          18.750
                   -292314.876 6   -227779.647 6  20685325.516    20685327.879
        19.250          18.750
                  -3285844.034 6  -2560399.754 6  21893058.961    21893061.586
        15.750          16.500
                   3128551.133 5   2433138.745 5  23856900.586    23856903.172
         9.250           9.250
                   5462000.590 6   4256099.672 5  22563720.500    22563723.723
        13.000          11.500
                  -1201458.038 6   -936201.965 6  21707189.391    21707191.879
        16.500          15.750
 95  4 27 16 18 30.0000000  0  7G 2G18G19G27G28G29G31
                  -4280155.511 5  -3322709.525 5  23102870.164    23102874.543
        11.750          10.750
                   3103064.745 6   2417969.139 6  20842731.656    20842734.227
        19.000          18.750
                   -287690.942 6   -224176.597 6  20686205.391    20686207.777
        19.000          18.750
                  -3306898.368 6  -2576805.739 6  21889052.641    21889055.109
        15.750          16.500
                   3165943.995 5   2462276.029 5  23864016.086    23864018.855
         9.000           9.250
                   5515518.018 6   4297801.510 5  22573904.492    22573907.699
        12.500          11.500
                  -1198116.349 6   -933598.058 6  21707825.344    21707827.801
        16.500          15.750
 95  4 27 16 18 45.0000000  0  7G 2G18G19G27G28G29G31
                  -4306959.357 6  -3343595.640 5  23097769.641    23097773.980
        12.000          10.750
                   3139766.180 6   2446567.638 6  20849715.742    20849718.293
        19.000          18.750
                   -282946.714 6   -220479.805 6  20687108.219    20687110.617
        19.000          18.750
                  -3327862.514 6  -2593141.448 6  21885063.086    21885065.625
        15.750          16.500
                   3203518.565 5   2491554.903 5  23871166.383    23871169.207
         9.000           9.500
                   5569166.446 6   4339605.428 5  22584113.555    22584116.758
        12.500          11.500
                  -1194563.353 6   -930829.497 6  21708501.391    21708503.895
        16.500          15.750
 95  4 27 16 19  0.0000000  0  7G 2G18G19G27G28G29G31
                  -4333630.917 6  -3364378.677 5  23092694.227    23092698.500
        12.000          10.750
                   3176646.026 6   2475305.153 6  20856733.875    20856736.348
        19.000          18.750
                   -278081.145 6   -216688.473 6  20688034.172    20688036.539
        19.000          18.500
                  -3348741.980 6  -2609411.178 6  21881089.945    21881092.324
        15.750          16.500
                   3241272.343 5   2520973.404 5  23878350.891    23878353.543
         9.250           9.500
                   5622945.791 6   4381511.351 5  22594347.172    22594350.551
        12.500          11.500
                  -1190803.488 6   -927899.744 6  21709216.828    21709219.484
        16.500          15.750
 95  4 27 16 19 15.0000000  0  7G 2G18G19G27G28G29G31
                  -4360169.541 6  -3385058.121 5  23087644.094    23087648.484
        12.000          10.750
                   3213706.051 6   2504183.075 6  20863786.016    20863788.699
        19.000          18.750
                   -273092.139 6   -212800.948 6  20688983.555    20688985.922
        19.000          18.500
                  -3369532.917 6  -2625611.918 6  21877133.641    21877136.043
        16.000          16.750
                   3279206.617 5   2550532.565 5  23885569.383    23885572.199
         9.000           9.250
                   5676861.550 6   4423523.575 5  22604607.227    22604610.469
        12.500          11.250
                  -1186836.038 6   -924808.232 6  21709971.781    21709974.449
        16.500          15.750
 95  4 27 16 19 30.0000000  0  7G 2G18G19G27G28G29G31
                  -4386579.416 6  -3405637.245 5  23082618.367    23082622.590
        12.000          10.750
                   3250944.590 6   2533200.102 6  20870872.375    20870875.039
        19.250          18.750
                   -267982.733 6   -208819.600 6  20689955.781    20689958.121
        19.000          18.250
                  -3390238.722 6  -2641746.317 6  21873193.359    21873196.113
        15.750          17.000
                   3317318.863 5   2580230.411 5  23892821.633    23892824.594
         8.500           9.000
                   5730913.646 6   4465642.042 5  22614893.086    22614896.406
        12.500          11.250
                  -1182662.793 6   -921556.358 6  21710766.195    21710768.867
        16.500          16.000
 95  4 27 16 19 45.0000000  0  7G 2G18G19G27G28G29G31
                  -4412864.266 6  -3426118.952 5  23077616.438    23077620.809
        12.000          10.750
                   3288361.934 6   2562356.447 6  20877992.781    20877995.355
        19.250          18.750
                   -262751.139 6   -204743.051 6  20690951.250    20690953.648
        19.000          18.250
                  -3410857.752 6  -2657813.110 6  21869269.672    21869272.406
        15.750          17.000
                   3355608.051 5   2610066.122 5  23900107.836    23900110.945
         8.250           9.000
                   5785099.800 6   4507864.955 5  22625204.422    22625207.758
        12.500          11.250
                  -1178281.143 6   -918142.098 6  21711599.938    21711602.617
        16.500          16.000
 95  4 27 16 20  0.0000000  0  7G 2G18G19G27G28G29G31
                  -4439027.812 6  -3446506.133 5  23072637.758    23072642.023
        12.250          11.000
                   3325959.216 6   2591653.003 6  20885147.352    20885149.969
        19.250          18.750
                   -257395.355 6   -200569.732 6  20691970.563    20691972.922
        19.000          18.250
                  -3431387.725 6  -2673810.507 6  21865363.000    21865365.648
        15.750          17.000
                   3394073.867 5   2640039.464 5  23907428.180    23907430.699
         8.500           9.000
                   5839417.703 6   4550190.536 5  22635540.727    22635544.207
        12.500          11.250
                  -1173689.624 6   -914564.307 6  21712473.641    21712476.328
        16.500          16.250
 95  4 27 16 20 15.0000000  0  7G 2G18G19G27G28G29G31
                  -4465072.834 6  -3466800.956 5  23067681.461    23067685.707
        12.000          11.000
                   3363738.415 6   2621091.318 6  20892336.172    20892338.871
        19.250          18.750
                   -251913.525 6   -196298.187 6  20693013.859    20693016.184
        19.250          18.250
                  -3451829.342 6  -2689739.049 6  21861472.969    21861475.707
        15.750          17.000
                   3432717.953 5   2670151.720 5  23914781.359    23914784.488
         8.500           9.000
                   5893869.551 6   4592620.490 5  22645902.547    22645906.000
        12.250          11.250
                  -1168886.241 6   -910821.423 6  21713387.555    21713390.371
        16.500          16.250
 95  4 27 16 20 30.0000000  0  7G 2G18G19G27G28G29G31
                  -4491001.381 6  -3487005.018 5  23062747.617    23062751.984
        12.250          11.000
                   3401698.970 6   2650670.946 6  20899560.008    20899562.645
        19.250          18.750
                   -246307.235 6   -191929.667 6  20694080.641    20694083.074
        19.250          18.250
                  -3472185.664 6  -2705601.129 6  21857599.484    21857601.949
        15.750          16.750
                   3471539.409 5   2700402.193 5  23922169.047    23922171.621
         8.500           9.000
                   5948453.757 6   4635153.576 5  22656289.641    22656293.270
        12.250          11.250
                  -1163870.335 6   -906912.933 6  21714342.211    21714344.973
        16.500          16.250
 95  4 27 16 20 45.0000000  0  7G 2G18G19G27G28G29G31
                  -4516810.319 6  -3507115.878 5  23057836.234    23057840.766
        12.250          11.250
                   3439846.782 6   2680396.491 6  20906819.250    20906821.973
        19.250          18.750
                   -240574.713 6   -187462.782 6  20695171.695    20695174.012
        19.500          18.250
                  -3492452.764 6  -2721393.683 6  21853742.711    21853745.180
        15.750          16.750
                   3510542.693 5   2730794.346 5  23929590.828    23929594.066
         8.250           9.000
                   6003178.490 6   4677796.170 5  22666703.602    22666707.020
        12.250          11.000
                  -1158634.985 6   -902833.449 6  21715338.328    21715341.066
        16.500          16.250
 95  4 27 16 21  0.0000000  0  7G 2G18G19G27G28G29G31
                  -4542500.489 6  -3527134.189 5  23052947.578    23052952.094
        12.250          11.250
                   3478179.842 6   2710266.383 6  20914113.820    20914116.660
        19.250          18.750
                   -234721.215 6   -182901.628 6  20696285.375    20696287.828
        19.500          18.250
                  -3512630.882 6  -2737116.905 6  21849902.992    21849905.430
        15.500          16.500
                   3549726.631 5   2761327.276 5  23937047.711    23937050.555
         8.500           9.000
                   6058044.228 6   4720548.634 5  22677144.250    22677147.777
        12.250          11.000
                  -1153179.327 6   -898582.301 6  21716376.836    21716379.645
        16.750          16.250
 95  4 27 16 21 15.0000000  0  7G 2G18G19G27G28G29G31
                  -4568075.940 6  -3547063.115 5  23048080.617    23048085.063
        12.250          11.250
                   3516696.850 6   2740279.606 6  20921443.375    20921446.102
        19.000          18.750
                   -228753.548 6   -178251.513 6  20697421.031    20697423.379
        19.500          18.250
                  -3532720.157 6  -2752770.901 6  21846080.031    21846082.535
        15.500          16.500
                   3589087.495 5   2791998.053 5  23944537.672    23944541.039
         8.500           9.250
                   6113048.193 6   4763408.801 5  22687611.203    22687614.516
        12.250          11.250
                  -1147505.962 6   -894161.514 6  21717456.500    21717459.324
        16.750          16.500
 95  4 27 16 21 30.0000000  0  7G 2G18G19G27G28G29G31
                  -4593537.431 6  -3566903.236 5  23043235.586    23043240.137
        12.250          11.500
                   3555394.275 6   2770433.424 6  20928807.305    20928810.027
        19.250          18.750
                   -222674.849 6   -173514.879 6  20698577.680    20698580.090
        19.500          18.250
                  -3552721.916 6  -2768356.696 6  21842273.813    21842276.434
        15.500          16.500
                   3628623.377 5   2822805.225 5  23952061.086    23952064.238
         8.500           9.000
                   6168187.389 6   4806374.352 5  22698103.922    22698107.414
        12.250          11.000
                  -1141613.700 6   -889570.150 6  21718577.813    21718580.594
        16.750          16.500
 95  4 27 16 21 45.0000000  0  7G 2G18G19G27G28G29G31
                  -4618884.538 6  -3586654.231 5  23038412.250    23038416.551
        12.250          11.500
                   3594272.888 6   2800728.423 6  20936205.492    20936208.262
        19.250          19.000
                   -216483.459 6   -168690.437 6  20699755.773    20699758.199
        19.250          18.250
                  -3572634.178 6  -2783872.751 6  21838484.516    21838487.348
        15.250          16.500
                   3668335.227 5   2853749.511 5  23959618.383    23959621.207
         8.750           9.000
                   6223460.649 6   4849444.365 5  22708622.047    22708625.508
        12.250          11.000
                  -1135500.908 6   -884806.950 6  21719741.133    21719743.816
        17.000          16.500
 95  4 27 16 22  0.0000000  0  7G 2G18G19G27G28G29G31
                  -4644110.057 6  -3606310.479 5  23033611.883    23033616.211
        12.250          11.500
                   3633335.902 6   2831167.109 6  20943639.211    20943642.008
        19.250          19.000
                   -210175.845 6   -163775.427 6  20700956.281    20700958.738
        19.000          18.250
                  -3592453.718 6  -2799316.557 6  21834713.117    21834715.648
        15.250          16.500
                   3708226.385 5   2884833.516 5  23967209.008    23967212.133
         8.500           8.500
                   6278871.660 6   4892621.712 5  22719166.273    22719169.906
        12.250          11.000
                  -1129164.035 6   -879869.140 6  21720946.695    21720949.445
        17.000          16.500
 95  4 27 16 22 15.0000000  0  7G 2G18G19G27G28G29G31
                  -4669210.847 6  -3625869.530 5  23028835.227    23028839.695
        12.250          11.500
                   3672584.458 6   2861750.377 6  20951108.039    20951110.754
        19.250          19.000
                   -203753.752 6   -158771.209 6  20702178.289    20702180.754
        19.000          18.500
                  -3612183.620 6  -2814690.516 6  21830958.727    21830961.289
        15.500          16.250
                   3748298.310 5   2916058.379 5  23974834.852    23974837.859
         8.500           8.500
                   6334422.287 6   4935907.861 5  22729737.383    22729741.016
        12.250          11.000
                  -1122602.593 6   -874756.338 6  21722195.445    21722198.281
        17.000          16.500
 95  4 27 16 22 30.0000000  0  7G 2G18G19G27G28G29G31
                  -4694185.785 6  -3645330.519 5  23024082.852    23024087.219
        12.500          11.750
                   3712016.178 6   2892476.370 6  20958611.641    20958614.402
        19.250          19.000
                   -197226.218 6   -153684.835 6  20703420.352    20703422.977
        19.000          18.500
                  -3631824.817 6  -2829995.357 6  21827221.117    21827223.535
        15.500          16.250
                   3788548.102 5   2947421.840 5  23982493.664    23982497.094
         8.500           8.250
                   6390110.356 6   4979301.094 5  22740334.570    22740338.156
        12.000          11.000
                  -1115820.541 6   -869471.636 6  21723485.953    21723488.840
        17.000          16.500
 95  4 27 16 22 45.0000000  0  7G 2G18G19G27G28G29G31
                  -4719031.868 6  -3664691.103 5  23019354.789    23019359.445
        12.250          11.750
                   3751629.189 6   2923343.632 6  20966149.867    20966152.566
        19.250          19.000
                   -190596.495 6   -148518.829 6  20704682.000    20704684.602
        18.750          18.500
                  -3651375.734 6  -2845229.848 6  21823500.773    21823503.230
        15.500          16.250
                   3828974.598 5   2978922.993 5  23990186.938    23990189.719
         8.500           7.750
                   6445933.358 6   5022799.475 5  22750957.391    22750960.980
        12.000          11.000
                  -1108819.855 6   -864016.564 6  21724818.148    21724820.965
        17.000          16.500
 95  4 27 16 23  0.0000000  0  7G 2G18G19G27G28G29G31
                  -4743750.105 6  -3683952.056 5  23014651.008    23014655.457
        12.250          11.750
                   3791420.749 6   2954350.022 6  20973721.852    20973724.563
        19.000          19.000
                   -183866.025 6   -143274.313 6  20705962.648    20705965.281
        18.750          18.750
                  -3670836.235 6  -2860393.884 6  21819797.469    21819799.906
        15.500          16.000
                   3869577.002 5   3010561.232 5  23997912.820    23997916.195
         8.500           7.750
                   6501891.115 6   5066402.862 5  22761605.953    22761609.375
        12.250          11.000
                  -1101603.677 6   -858393.580 6  21726191.477    21726194.168
        17.250          16.500
 95  4 27 16 23 15.0000000  0  7G 2G18G19G27G28G29G31
                  -4768339.403 6  -3703112.546 5  23009971.734    23009976.246
        12.500          11.750
                   3831389.739 6   2985494.662 6  20981327.602    20981330.414
        19.000          19.000
                   -177032.615 6   -137949.593 6  20707263.102    20707265.781
        18.750          18.750
                  -3690207.697 6  -2875488.540 6  21816111.211    21816113.559
        15.750          16.000
                   3910354.266 5   3042335.706 5  24005672.898    24005675.777
         8.500           7.750
                   6557981.365 6   5110109.488 5  22772279.617    22772283.043
        12.250          11.000
                  -1094174.762 6   -852604.826 6  21727605.391    21727608.023
        17.250          16.500
 95  4 27 16 23 30.0000000  0  7G 2G18G19G27G28G29G31
                  -4792792.707 6  -3722167.068 5  23005318.789    23005323.031
        12.500          11.750
                   3871540.154 6   3016780.676 6  20988967.875    20988970.754
        19.000          19.000
                   -170088.680 6   -132538.749 6  20708584.406    20708587.086
        18.750          18.750
                  -3709481.876 6  -2890507.394 6  21812443.445    21812446.113
        15.750          16.250
                   3951312.191 5   3074250.962 5  24013467.031    24013469.430
         8.500           7.500
                   6614208.863 6   5153923.062 5  22782979.375    22782982.879
        12.250          11.000
                  -1086529.523 6   -846647.510 6  21729059.898    21729062.691
        17.250          16.500
 95  4 27 16 23 45.0000000  0  7G 2G18G19G27G28G29G31
                  -4817112.635 6  -3741117.666 6  23000690.594    23000695.004
        12.500          12.000
                   3911865.516 6   3048203.012 6  20996641.734    20996644.602
        18.750          19.000
                   -163035.064 6   -127042.438 6  20709926.703    20709929.348
        18.750          18.750
                  -3728660.908 6  -2905452.103 6  21808794.016    21808796.492
        15.750          16.250
                   3992446.639 5   3106303.765 5  24021294.758    24021297.613
         8.500           7.500
                   6670568.339 5   5197839.477 5  22793704.109    22793707.762
        11.750          11.000
                  -1078672.111 6   -840524.864 6  21730555.094    21730557.844
        17.250          16.500
 95  4 27 16 24  0.0000000  0  7G 2G18G19G27G28G29G31
                  -4841299.371 6  -3759964.466 6  22996088.016    22996092.582
        12.500          12.000
                   3952364.214 6   3079760.414 6  21004348.469    21004351.270
        18.750          19.000
                   -155872.798 6   -121461.463 6  20711289.617    20711292.336
        18.750          18.500
                  -3747744.649 6  -2920322.562 6  21805162.500    21805164.957
        16.000          16.250
                   4033757.224 5   3138493.826 5  24029155.898    24029158.391
         8.750           7.250
                   6727060.150 5   5241859.001 5  22804454.242    22804457.734
        11.750          11.000
                  -1070604.262 6   -834238.238 6  21732090.539    21732093.215
        17.250          16.500
 95  4 27 16 24 15.0000000  0  7G 2G18G19G27G28G29G31
                  -4865351.014 6  -3778706.004 6  22991511.117    22991515.672
        12.500          12.250
                   3993037.355 6   3111453.749 6  21012088.242    21012091.055
        18.750          19.000
                   -148602.078 6   -115795.975 6  20712673.219    20712675.672
        18.750          18.500
                  -3766732.411 6  -2935118.228 6  21801549.148    21801551.621
        16.000          16.250
                   4075245.222 5   3170822.125 5  24037050.625    24037053.434
         8.250           7.500
                   6783686.527 5   5285983.390 5  22815230.016    22815233.809
        11.750          10.750
                  -1062323.552 6   -827785.746 6  21733666.289    21733668.922
        17.250          16.500
 95  4 27 16 24 30.0000000  0  7G 2G18G19G27G28G29G31
                  -4889273.130 6  -3797346.615 6  22986958.867    22986963.566
        12.500          12.250
                   4033880.518 6   3143279.562 6  21019860.453    21019863.266
        18.750          19.000
                   -141224.532 6   -110047.251 6  20714077.328    20714079.742
        18.750          18.250
                  -3785625.968 6  -2949840.494 6  21797953.742    21797956.328
        16.250          16.250
                   4116906.609 5   3203285.535 5  24044978.656    24044981.242
         8.500           7.250
                   6840441.831 5   5330208.235 5  22826030.180    22826033.934
        11.500          10.750
                  -1053834.434 6   -821170.860 6  21735281.727    21735284.324
        17.000          16.250
 95  4 27 16 24 45.0000000  0  7G 2G18G19G27G28G29G31
                  -4913061.851 6  -3815883.273 6  22982431.938    22982436.590
        12.500          12.250
                   4074895.410 6   3175239.197 6  21027665.344    21027668.125
        18.750          19.000
                   -133731.439 6   -104208.486 6  20715503.023    20715505.469
        19.000          18.250
                  -3804421.252 6  -2964486.174 6  21794377.219    21794379.641
        16.250          16.250
                   4158744.320 5   3235886.348 5  24052939.813    24052942.492
         8.250           7.000
                   6897327.930 5   5374535.011 5  22836855.320    22836858.895
        11.750          10.750
                  -1045133.561 6   -814390.969 6  21736937.359    21736940.008
        17.250          16.250
 95  4 27 16 25  0.0000000  0  7G 2G18G19G27G28G29G31
                  -4936722.746 6  -3834320.329 6  22977929.625    22977934.129
        12.750          12.250
                   4116081.232 6   3207332.017 6  21035502.758    21035505.648
        18.750          18.750
                   -126117.781 6    -98275.780 6  20716951.938    20716954.430
        19.000          18.250
                  -3823120.567 6  -2979057.083 6  21790818.867    21790821.344
        16.500          16.250
                   4200757.795 5   3268624.102 5  24060934.758    24060937.453
         8.250           7.500
                   6954345.753 5   5418964.422 5  22847705.391    22847709.141
        11.500          10.750
                  -1036217.816 6   -807443.641 6  21738634.109    21738636.660
        17.000          16.250
 95  4 27 16 25 15.0000000  0  7G 2G18G19G27G28G29G31
                  -4960255.279 6  -3852657.370 6  22973451.477    22973455.969
        12.500          12.250
                   4157440.629 6   3239560.094 6  21043373.055    21043376.098
        18.250          19.000
                   -118380.869 6    -92247.032 6  20718424.320    20718426.641
        19.250          18.250
                  -3841723.883 6  -2993553.187 6  21787278.922    21787281.480
        16.500          16.500
                   4242946.984 5   3301498.782 5  24068963.258    24068965.758
         8.500           7.000
                   7011496.723 5   5463497.580 5  22858580.852    22858584.680
        11.500          10.750
                  -1027087.069 6   -800328.786 6  21740371.633    21740374.180
        17.250          16.250
 95  4 27 16 25 30.0000000  0  7G 2G18G19G27G28G29G31
                  -4983658.932 6  -3870893.981 6  22968997.695    22969002.461
        12.500          12.250
                   4198974.805 6   3271924.365 6  21051276.664    21051279.734
        18.250          18.750
                   -110520.790 6    -86122.306 6  20719920.055    20719922.434
        19.250          18.250
                  -3860230.130 6  -3007973.646 6  21783757.039    21783759.633
        16.500          16.500
                   4285311.867 5   3334510.373 5  24077024.852    24077027.711
         8.500           7.500
                   7068779.745 5   5508133.642 5  22869481.547    22869485.406
        11.500          10.750
                  -1017738.765 6   -793044.401 6  21742150.531    21742153.117
        17.000          16.250
 95  4 27 16 25 45.0000000  0  7G 2G18G19G27G28G29G31
                  -5006936.527 6  -3889032.365 6  22964568.180    22964572.770
        12.500          12.250
                   4240684.192 6   3304425.161 6  21059213.758    21059216.789
        18.250          18.750
                   -102540.791 6    -79904.139 6  20721438.633    20721441.031
        19.500          18.500
                  -3878641.594 6  -3022320.255 6  21780253.500    21780256.055
        16.500          16.500
                   4327851.729 5   3367658.301 5  24085120.359    24085122.730
         9.000           7.750
                   7126196.094 5   5552873.589 5  22880407.656    22880411.414
        11.500          10.750
                  -1008173.022 6   -785590.584 6  21743970.758    21743973.340
        17.000          16.250
 95  4 27 16 26  0.0000000  0  7G 2G18G19G27G28G29G31
                  -5030089.012 6  -3907073.258 6  22960162.500    22960167.102
        12.750          12.500
                   4282572.822 6   3337065.627 6  21067184.930    21067187.883
        18.250          18.750
                    -94443.414 6    -73594.508 6  20722979.461    20722981.859
        19.500          18.250
                  -3896960.232 6  -3036594.526 6  21776767.547    21776770.203
        16.500          16.500
                   4370567.600 5   3400943.389 5  24093248.625    24093251.215
         9.000           7.500
                   7183747.427 5   5597718.724 5  22891359.234    22891363.074
        11.250          10.750
                   -998385.896 6   -777964.261 6  21745833.156    21745835.668
        17.000          16.250
 95  4 27 16 26 15.0000000  0  7G 2G18G19G27G28G29G31
                  -5053112.835 6  -3925013.893 6  22955781.234    22955785.887
        12.750          12.500
                   4324647.572 6   3369851.128 6  21075191.547    21075194.633
        18.250          18.750
                    -86228.313 6    -67193.135 6  20724542.758    20724545.172
        19.500          18.250
                  -3915185.104 6  -3050795.729 6  21773299.602    21773302.184
        16.500          16.500
                   4413462.778 5   3434368.200 5  24101411.070    24101413.641
         8.500           7.500
                   7241438.118 5   5642672.455 5  22902337.445    22902341.438
        11.250          10.750
                   -988373.122 6   -770162.103 6  21747738.492    21747741.043
        17.000          16.250
 95  4 27 16 26 30.0000000  0  7G 2G18G19G27G28G29G31
                  -5076013.187 6  -3942858.316 6  22951423.320    22951427.898
        12.750          12.500
                   4366906.702 6   3402780.297 6  21083233.258    21083236.242
        18.250          18.750
                    -77895.286 6    -60699.885 6  20726128.602    20726131.078
        19.500          18.250
                  -3933319.192 6  -3064926.197 6  21769848.703    21769851.129
        16.500          16.500
                   4456532.811 5   3467929.253 5  24109606.867    24109609.613
         8.500           7.500
                   7299264.357 5   5687731.799 5  22913341.508    22913345.395
        11.250          10.750
                   -978138.948 6   -762187.430 6  21749686.086    21749688.594
        17.000          16.250
 95  4 27 16 26 45.0000000  0  7G 2G18G19G27G28G29G31
                  -5098789.518 6  -3960606.102 6  22947089.047    22947093.555
        12.750          12.500
                   4409353.041 6   3435855.343 6  21091310.602    21091313.488
        18.250          18.750
                    -69443.130 6    -54113.803 6  20727736.836    20727739.336
        19.500          18.250
                  -3951362.241 6  -3078985.730 6  21766415.289    21766417.691
        16.500          16.500
                   4499778.994 5   3501627.567 5  24117836.969    24117839.113
         9.000           7.500
                   7357230.149 5   5732899.889 5  22924372.055    22924376.047
        11.250          10.500
                   -967682.440 6   -754039.507 6  21751675.789    21751678.352
        17.000          16.250
 95  4 27 16 27  0.0000000  0  7G 2G18G19G27G28G29G31
                  -5121448.025 6  -3978262.073 6  22942777.258    22942781.809
        13.000          12.500
                   4451981.727 6   3469072.480 6  21099422.648    21099425.563
        18.500          18.750
                    -60883.229 6    -47443.760 6  20729365.703    20729368.176
        19.250          18.250
                  -3969321.604 6  -3092980.046 6  21762997.539    21763000.055
        16.500          16.500
                   4543194.962 5   3535458.199 5  24126098.531    24126100.945
         8.750           7.500
                   7415332.187 5   5778174.150 5  22935428.734    22935432.539
        11.250          10.500
                   -957009.840 6   -745723.201 6  21753706.688    21753709.328
        16.750          16.250
 95  4 27 16 27 15.0000000  0  7G 2G18G19G27G28G29G31
                  -5143983.776 6  -3995822.396 6  22938488.922    22938493.359
        13.000          12.500
                   4494797.315 6   3502435.253 6  21107570.086    21107572.949
        18.500          18.750
                    -52213.389 6    -40688.050 6  20731015.430    20731017.949
        19.000          18.000
                  -3987191.400 6  -3106904.570 6  21759597.047    21759599.609
        16.500          16.750
                   4586786.184 5   3569425.373 5  24134393.680    24134396.410
         8.500           7.750
                   7473576.383 5   5823559.179 5  22946512.156    22946515.977
        11.500          10.500
                   -946118.058 6   -737236.103 6  21755779.438    21755782.051
        17.000          16.250
 95  4 27 16 27 30.0000000  0  8G 2G16G18G19G27G28G29G31
                  -5166398.984 6  -4013288.790 6  22934223.453    22934227.852
        13.000          12.500
                     -2324.594 3     -1811.61915  24445054.695    24445058.320
         6.000           6.000
                   4537795.762 6   3535940.513 6  21115752.484    21115755.391
        18.500          18.750
                    -43439.591 6    -33851.335 6  20732685.133    20732687.602
        19.000          18.250
                  -4004974.718 6  -3120761.710 6  21756213.031    21756215.586
        16.250          17.000
                   4630548.887 5   3603526.172 5  24142721.398    24142723.836
         8.750           8.000
                   7531956.834 5   5869050.379 5  22957621.586    22957625.605
        11.500          10.500
                   -935010.284 6   -728580.700 6  21757892.930    21757895.492
        17.000          16.250
 95  4 27 16 27 45.0000000  0  8G 2G16G18G19G27G28G29G31
                  -5188694.316 6  -4030661.770 6  22929980.727    22929985.098
        13.000          12.500
                     -5324.969 3     -4149.602 5  24444483.656    24444487.453
         6.000           6.000
                   4580976.885 6   3569588.120 6  21123969.445    21123972.414
        18.250          18.500
                    -34560.536 6    -26932.605 6  20734374.852    20734377.273
        19.000          18.000
                  -4022668.955 6  -3134549.434 6  21752845.773    21752848.496
        16.250          17.000
                   4674484.881 5   3637762.001 5  24151082.227    24151085.121
         9.000           8.250
                   7590475.480 5   5914649.266 5  22968757.430    22968761.371
        11.500          10.250
                   -923681.970 6   -719753.447 6  21760048.688    21760051.199
        17.000          16.250
 95  4 27 16 28  0.0000000  0  8G 2G16G18G19G27G28G29G31
                  -5210871.587 6  -4047942.754 6  22925760.570    22925764.957
        13.000          12.500
                     -8129.492 3     -6334.954 5  24443950.172    24443953.902
         6.000           6.000
                   4624335.485 6   3603374.022 6  21132220.320    21132223.379
        18.500          18.500
                    -25576.577 6    -19932.122 6  20736084.414    20736086.871
        19.000          18.000
                  -4040275.599 6  -3148268.904 6  21749495.688    21749497.938
        16.500          17.000
                   4718591.650 5   3672130.907 5  24159475.469    24159477.484
         9.000           8.000
                   7649130.846 5   5960354.698 5  22979919.141    22979923.031
        11.500          10.250
                   -912135.158 6   -710755.934 6  21762246.086    21762248.602
        17.000          16.250
 95  4 27 16 28 15.0000000  0  8G 2G16G18G19G27G28G29G31
                  -5232929.279 6  -4065130.566 6  22921563.234    22921567.648
        13.000          12.500
                    -10737.875 3     -8367.488 5  24443453.727    24443456.895
         6.000           5.750
                   4667868.249 6   3637295.634 6  21140504.391    21140507.344
        18.500          18.500
                    -16482.748 6    -12846.036 6  20737815.008    20737817.461
        18.750          18.000
                  -4057792.712 6  -3161918.616 6  21746162.219    21746164.641
        16.500          17.000
                   4762869.303 5   3706632.972 5  24167901.531    24167903.766
         9.000           8.250
                   7707922.468 5   6006166.286 5  22991106.938    22991111.078
        11.500          10.250
                   -900370.752 6   -701588.869 6  21764484.711    21764487.258
        17.000          16.250
 95  4 27 16 28 30.0000000  0  8G 2G16G18G19G27G28G29G31
                  -5254865.261 6  -4082223.533 6  22917388.867    22917393.289
        13.000          12.500
                    -13150.756 3    -10247.682 5  24442994.961    24442998.145
         6.000           5.750
                   4711576.774 6   3671354.205 6  21148821.922    21148824.809
        18.750          18.250
                     -7271.729 6     -5668.628 6  20739567.719    20739570.195
        18.750          18.000
                  -4075217.729 6  -3175496.554 6  21742846.297    21742848.934
        16.250          17.250
                   4807319.341 5   3741269.354 5  24176360.102    24176362.492
         8.750           8.500
                   7766851.326 5   6052084.825 5  23002320.688    23002324.887
        11.000          10.250
                   -888389.842 6   -692253.096 6  21766764.680    21766767.133
        17.000          16.250
 95  4 27 16 28 45.0000000  0  8G 2G16G18G19G27G28G29G31
                  -5276678.874 6  -4099221.151 6  22913237.875    22913242.246
        13.000          12.500
                    -15368.156 3    -11975.532 5  24442572.563    24442576.160
         6.000           5.750
                   4755460.202 6   3705549.060 6  21157172.531    21157175.387
        18.500          18.250
                      2057.290 6      1600.727 6  20741342.859    20741345.285
        18.750          18.000
                  -4092549.247 6  -3189001.643 6  21739548.445    21739550.910
        16.500          17.250
                   4851942.551 5   3776040.677 5  24184851.289    24184854.293
         8.500           8.750
                   7825916.493 5   6098109.572 5  23013560.500    23013564.527
        11.000          10.250
                   -876192.464 6   -682748.650 6  21769085.836    21769088.266
        17.000          16.250
 95  4 27 16 29  0.0000000  0  8G 2G16G18G19G27G28G29G31
                  -5298368.967 6  -4116122.520 6  22909110.555    22909114.848
        13.250          12.500
                    -17390.306 3    -13551.258 5  24442187.719    24442191.363
         6.000           6.000
                   4799514.506 6   3739877.066 6  21165555.914    21165558.828
        18.750          18.250
                     11497.538 6      8956.750 6  20743139.313    20743141.895
        18.750          18.000
                  -4109790.141 6  -3202436.116 6  21736267.125    21736269.867
        16.250          17.250
                   4896736.593 5   3810945.105 5  24193375.383    24193378.430
         8.500           9.000
                   7885110.705 5   6144234.871 5  23024824.711    23024829.188
        10.750          10.250
                   -863780.222 6   -673076.776 6  21771447.578    21771450.070
        17.000          16.250
 95  4 27 16 29 15.0000000  0  8G 2G16G18G19G27G28G29G31
                  -5319935.361 6  -4132927.498 6  22905006.406    22905010.691
        13.250          12.500
                    -19217.601 3    -14975.138 5  24441840.063    24441843.844
         6.000           6.000
                   4843738.232 6   3774337.096 6  21173971.367    21173974.145
        18.750          18.250
                     21051.837 6     16401.648 6  20744957.508    20744959.977
        18.750          18.000
                  -4126938.408 6  -3215798.405 6  21733004.047    21733006.781
        16.250          17.250
                   4941700.557 5   3845981.958 5  24201931.852    24201934.625
         8.250           9.000
                   7944430.566 5   6190458.079 5  23036112.953    23036117.109
        10.750          10.250
                   -851153.904 6   -663238.090 6  21773850.414    21773852.949
        17.000          16.250
 95  4 27 16 29 30.0000000  0  8G 2G16G18G19G27G28G29G31
                  -5341375.176 6  -4149633.841 6  22900926.594    22900930.816
        13.250          12.250
                    -20851.174 3    -16248.071 5  24441529.516    24441532.906
         6.000           6.250
                   4888132.363 6   3808929.904 6  21182419.258    21182422.020
        18.750          18.250
                     30724.667 6     23938.908 6  20746798.180    20746800.746
        19.000          18.000
                  -4143991.273 6  -3229086.359 6  21729759.109    21729761.777
        16.250          17.250
                   4986835.412 5   3881151.961 5  24210520.203    24210523.367
         7.750           9.000
                   8003874.490 5   6236777.955 5  23047424.688    23047429.109
        10.750          10.250
                   -838310.707 6   -653230.407 6  21776294.336    21776296.949
        17.000          16.250
 95  4 27 16 29 45.0000000  0  8G 2G16G18G19G27G28G29G31
                  -5362685.909 6  -4166239.608 6  22896871.250    22896875.527
        13.250          12.250
                    -22294.279 3    -17372.590 5  24441254.727    24441258.801
         6.000           6.500
                   4932697.091 6   3843655.642 6  21190899.953    21190902.738
        18.750          18.250
                     40517.810 6     31569.917 6  20748661.742    20748664.293
        19.000          18.000
                  -4160948.793 6  -3242300.022 6  21726532.180    21726534.793
        16.250          17.500
                   5032139.832 5   3916454.091 5  24219141.734    24219144.738
         8.000           9.250
                   8063442.661 5   6283194.652 5  23058760.258    23058764.477
        10.750          10.000
                   -825250.942 6   -643053.970 6  21778779.539    21778782.094
        17.000          16.500
 95  4 27 16 30  0.0000000  0  8G 2G16G18G19G27G28G29G31
                  -5383862.979 6  -4182741.214 6  22892841.234    22892845.578
        13.250          12.250
                    -23546.983 3    -18348.733 5  24441016.406    24441020.355
         6.000           6.750
                   4977432.974 6   3878514.751 6  21199412.734    21199415.676
        18.750          18.250
                     50434.041 6     39296.838 6  20750548.734    20750551.414
        19.000          18.000
                  -4177811.147 6  -3255439.528 6  21723323.477    21723325.910
        16.250          17.500
                   5077614.936 5   3951889.212 5  24227795.734    24227797.957
         8.250           9.000
                   8123137.075 5   6329709.722 5  23070119.797    23070123.883
        10.750          10.000
                   -811979.017 6   -632712.213 6  21781305.164    21781307.719
        17.000          16.500
 95  4 27 16 30 15.0000000  0  8G 2G16G18G19G27G28G29G31
                  -5404906.039 6  -4199138.403 6  22888836.898    22888841.289
        13.250          12.500
                    -24610.779 3    -19177.681 5  24440813.766    24440817.727
         5.750           6.750
                   5022339.916 6   3913507.151 6  21207958.266    21207961.203
        18.750          18.250
                     60474.804 6     47120.803 6  20752459.453    20752462.086
        19.000          18.000
                  -4194579.845 6  -3268506.053 6  21720132.445    21720134.953
        16.250          17.500
                   5123260.185 5   3987456.940 5  24236481.883    24236484.117
         8.250           9.000
                   8182956.474 5   6376322.184 5  23081503.031    23081507.367
        10.500          10.000
                   -798498.204 6   -622207.684 6  21783870.531    21783872.980
        17.000          16.500
 95  4 27 16 30 30.0000000  0  8G 2G16G18G19G27G28G29G31
                  -5425816.382 6  -4215432.162 6  22884857.938    22884862.293
        13.500          12.500
                    -25484.528 3    -19858.524 5  24440647.367    24440651.750
         5.500           6.750
                   5067421.281 6   3948635.470 6  21216537.000    21216539.891
        18.750          18.250
                     70638.387 6     55040.467 6  20754393.594    20754396.094
        19.000          18.250
                  -4211255.451 6  -3281500.034 6  21716959.203    21716961.715
        16.250          17.750
                   5169074.612 5   4023156.482 5  24245199.430    24245202.621
         7.750           9.250
                   8242898.570 5   6423030.250 5  23092909.555    23092913.641
        10.250          10.000
                   -784808.081 6   -611540.054 6  21786475.555    21786478.270
        17.000          16.500
 95  4 27 16 30 45.0000000  0  8G 2G16G18G19G27G28G29G31
                  -5446594.812 6  -4231623.144 6  22880904.000    22880908.180
        13.500          12.500
                    -26169.187 3    -20392.036 5  24440517.156    24440521.480
         5.750           6.750
                   5112677.919 6   3983900.360 6  21225149.047    21225151.863
        18.750          18.000
                     80919.247 6     63051.517 6  20756349.906    20756352.445
        19.000          18.000
                  -4227837.996 6  -3294421.508 6  21713803.625    21713806.242
        16.250          17.750
                   5215055.991 5   4058986.113 5  24253949.477    24253952.574
         7.750           9.250
                   8302960.956 5   6469832.050 5  23104339.461    23104343.465
        10.250          10.000
                   -770908.812 6   -600709.461 6  21789120.422    21789122.973
        17.000          16.500
 95  4 27 16 31  0.0000000  0  8G 2G16G18G19G27G28G29G31
                  -5467242.100 6  -4247711.934 6  22876974.883    22876979.113
        13.500          12.500
                    -26665.671 3    -20778.923 5  24440422.883    24440426.703
         5.750           6.250
                   5158105.557 6   4019298.501 6  21233793.680    21233796.480
        18.750          18.250
                     91312.680 6     71150.284 6  20758327.664    20758330.184
        19.000          18.000
                  -4244327.133 6  -3307270.194 6  21710665.789    21710668.262
        16.500          17.750
                   5261201.888 4   4094943.943 5  24262730.484    24262733.797
         7.250           9.500
                   8363142.071 5   6516726.367 5  23115791.484    23115795.578
        10.250          10.000
                   -756800.483 6   -589715.957 6  21791805.219    21791807.805
        17.000          16.250
 95  4 27 16 31 15.0000000  0  8G 2G16G18G19G27G28G29G31
                  -5487757.304 6  -4263697.803 6  22873070.883    22873075.160
        13.500          12.500
                    -26972.256 3    -21017.847 5  24440364.336    24440367.977
         5.750           6.250
                   5203707.207 6   4054832.233 6  21242471.445    21242474.242
        18.500          18.250
                    101824.520 6     79341.316 6  20760328.023    20760330.492
        19.000          18.000
                  -4260719.427 6  -3320043.416 6  21707546.508    21707549.008
        16.500          17.750
                   5307514.433 5   4131031.616 5  24271544.008    24271547.301
         7.500           9.750
                   8423447.304 5   6563717.396 5  23127267.195    23127271.387
        10.250          10.000
                   -742480.719 6   -578557.703 6  21794530.336    21794532.836
        17.250          16.500
 95  4 27 16 31 30.0000000  0  8G 2G16G18G19G27G28G29G31
                  -5508140.767 6  -4279581.017 6  22869192.133    22869196.242
        13.750          12.500
                    -27090.151 3    -21109.720 5  24440341.953    24440345.727
         5.750           6.250
                   5249482.810 6   4090501.511 6  21251182.203    21251185.063
        18.500          18.250
                    112458.684 6     87627.668 6  20762351.727    20762354.297
        19.000          18.250
                  -4277013.276 6  -3332739.933 6  21704446.086    21704448.492
        16.750          17.750
                   5353995.116 5   4167250.319 5  24280388.898    24280391.535
         7.500           9.000
                   8483881.009 5   6610808.530 5  23138767.438    23138771.570
        10.250           9.750
                   -727948.166 6   -567233.638 6  21797295.758    21797298.301
        17.250          16.500
 95  4 27 16 31 45.0000000  0  8G 2G16G18G19G27G28G29G31
                  -5528396.433 6  -4295364.648 6  22865337.586    22865341.660
        13.750          12.500
                    -27024.645 3    -21058.699 5  24440354.852    24440358.324
         5.750           6.750
                   5295428.807 6   4126303.566 6  21259925.375    21259928.367
        18.250          18.250
                    123211.934 6     96006.813 6  20764398.125    20764400.637
        19.000          18.250
                  -4293212.713 6  -3345362.874 6  21701363.461    21701365.855
        16.750          17.750
                   5400640.989 4   4203597.735 5  24289264.672    24289268.078
         7.000           9.000
                   8544439.720 5   6657997.079 5  23150291.406    23150295.547
        10.250           9.750
                   -713204.927 6   -555745.399 6  21800101.203    21800103.742
        17.250          16.500
 95  4 27 16 32  0.0000000  0  8G 2G16G18G19G27G28G29G31
                  -5548525.945 6  -4311049.982 6  22861507.281    22861511.367
        13.750          12.500
                    -26775.410 3    -20864.510 5  24440401.961    24440405.797
         6.000           6.750
                   5341546.162 6   4162239.144 6  21268701.156    21268704.156
        18.250          18.250
                    134084.944 6    104479.279 6  20766467.008    20766469.645
        19.000          18.250
                  -4309317.293 6  -3357911.908 6  21698298.688    21698301.180
        17.000          17.750
                   5447453.135 5   4240074.709 5  24298173.195    24298176.613
         7.500           9.500
                   8605124.465 5   6705283.828 5  23161839.406    23161843.426
        10.250           9.750
                   -698250.725 6   -544092.775 6  21802946.852    21802949.500
        17.250          16.500
 95  4 27 16 32 15.0000000  0  8G 2G16G18G19G27G28G29G31
                  -5568535.976 6  -4326642.206 6  22857699.352    22857703.660
        13.750          12.750
                    -26341.506 3    -20526.427 5  24440484.695    24440488.563
         6.000           6.750
                   5387830.506 6   4198304.841 6  21277508.852    21277511.859
        18.250          18.250
                    145071.597 6    113040.299 6  20768557.742    20768560.297
        19.000          18.250
                  -4325329.232 6  -3370388.754 6  21695251.688    21695254.227
        17.000          17.750
                   5494428.601 4   4276678.941 5  24307112.055    24307115.078
         7.000           8.500
                   8665930.063 5   6752664.751 5  23173410.422    23173414.559
        10.250           9.750
                   -683084.895 6   -532275.249 6  21805833.180    21805835.684
        17.250          16.500
 95  4 27 16 32 30.0000000  0  8G 2G16G18G19G27G28G29G31
                  -5588425.821 6  -4342140.787 6  22853914.313    22853918.695
        13.750          12.750
                    -25720.985 3    -20042.923 5  24440602.789    24440606.633
         6.000           6.750
                   5434282.352 6   4234501.060 6  21286348.305    21286351.230
        18.250          18.250
                    156173.318 6    121690.976 6  20770670.445    20770673.016
        19.000          18.250
                  -4341243.997 6  -3382789.877 6  21692223.250    21692225.770
        17.000          17.750
                   5541568.638 5   4313411.425 5  24316083.047    24316085.965
         7.500           8.500
                   8726856.488 5   6800139.822 5  23185004.344    23185008.426
        10.250           9.500
                   -667701.824 6   -520288.439 6  21808760.359    21808762.789
        17.250          16.500
 95  4 27 16 32 45.0000000  0  8G 2G16G18G19G27G28G29G31
                  -5608194.298 6  -4357544.791 6  22850152.656    22850156.859
        13.750          12.750
                    -24915.734 3    -19415.472 5  24440755.922    24440759.922
         5.750           7.000
                   5480902.751 6   4270828.622 6  21295219.836    21295222.961
        18.000          18.250
                    167387.600 6    130429.367 6  20772804.406    20772806.988
        19.000          18.250
                  -4357061.508 6  -3395115.219 6  21689213.477    21689215.832
        17.250          17.750
                   5588873.223 4   4350272.126 5  24325083.914    24325087.938
         7.000           8.500
                   8787902.736 5   6847708.264 5  23196621.055    23196625.148
        10.250           9.500
                   -652101.891 6   -508132.650 6  21811728.852    21811731.340
        17.000          16.500
 95  4 27 16 33  0.0000000  0  8G 2G16G18G19G27G28G29G31
                  -5627842.874 6  -4372855.369 6  22846413.555    22846417.914
        13.750          13.000
                    -23930.518 3    -18647.778 5  24440943.695    24440947.281
         6.000           7.000
                   5527685.167 6   4307282.430 6  21304122.430    21304125.539
        18.000          18.250
                    178712.327 6    139253.819 6  20774959.477    20774962.129
        19.000          18.250
                  -4372786.766 6  -3407368.681 6  21686221.109    21686223.523
        17.250          18.000
                   5636340.039 5   4387259.229 5  24334117.578    24334120.453
         7.500           8.500
                   8849066.907 5   6895368.595 5  23208260.164    23208264.164
        10.250           9.250
                   -636287.998 6   -495810.137 6  21814738.102    21814740.578
        17.000          16.500
 95  4 27 16 33 15.0000000  0  8G 2G16G18G19G27G28G29G31
                  -5647374.048 6  -4388074.463 6  22842696.867    22842701.211
        13.750          13.000
                    -22765.530 3    -17740.024 5  24441165.156    24441169.344
         6.000           7.000
                   5574626.159 6   4343859.802 6  21313055.008    21313058.094
        18.000          18.250
                    190147.851 6    148164.603 6  20777135.586    20777138.242
        19.000          18.250
                  -4388423.158 6  -3419552.890 6  21683245.547    21683247.973
        17.500          18.000
                   5683968.183 5   4424372.049 5  24343180.711    24343183.422
         7.500           7.750
                   8910348.500 5   6943120.419 5  23219922.039    23219926.035
        10.250           9.500
                   -620258.895 6   -483319.927 6  21817788.266    21817790.805
        17.000          16.750
 95  4 27 16 33 30.0000000  0  8G 2G16G18G19G27G28G29G31
                  -5666783.679 6  -4403198.849 6  22839003.383    22839007.633
        13.750          13.000
                    -21415.460 3    -16688.036 5  24441422.078    24441426.066
         6.000           7.000
                   5621730.305 6   4380564.311 6  21322018.336    21322021.496
        18.000          18.250
                    201700.883 6    157166.956 6  20779333.938    20779336.602
        18.750          18.250
                  -4403966.750 6  -3431664.792 6  21680287.625    21680290.094
        17.500          17.750
                   5731762.949 5   4461614.715 5  24352275.344    24352278.430
         7.500           7.500
                   8971751.731 5   6990967.028 5  23231606.875    23231610.695
        10.500           9.500
                   -604010.570 6   -470658.895 6  21820880.195    21820882.992
        17.000          16.750
 95  4 27 16 33 45.0000000  0  8G 2G16G18G19G27G28G29G31
                  -5686079.470 6  -4418234.524 6  22835331.625    22835335.785
        14.000          13.000
                    -19889.663 3    -15499.126 5  24441712.656    24441716.473
         6.000           6.750
                   5668988.788 6   4417389.079 6  21331011.469    21331014.590
        18.000          18.250
                    213359.878 6    166251.877 6  20781552.609    20781555.207
        18.750          18.250
                  -4419426.719 6  -3443711.528 6  21677345.633    21677348.133
        17.250          18.000
                   5779715.192 5   4498980.071 5  24361400.438    24361403.613
         7.500           7.500
                   9033266.045 5   7038900.195 5  23243312.531    23243316.605
        10.500           9.250
                   -587550.589 6   -457832.935 6  21824012.523    21824015.090
        17.000          17.000
 95  4 27 16 34  0.0000000  0  8G 2G16G18G19G27G28G29G31
                  -5705256.406 6  -4433177.590 6  22831682.055    22831686.512
        14.000          13.250
                    -18181.340 3    -14167.995 5  24442037.680    24442041.121
         6.000           6.250
                   5716408.554 6   4454339.524 6  21340035.156    21340038.273
        17.750          18.250
                    225128.177 6    175421.967 6  20783791.992    20783794.680
        18.750          18.250
                  -4434797.992 6  -3455689.152 6  21674420.547    21674423.074
        17.250          18.000
                   5827828.834 5   4536471.211 5  24370556.625    24370558.750
         7.750           6.750
                   9094896.069 5   7086923.531 5  23255040.250    23255044.320
        10.250           9.250
                   -570876.272 6   -444839.962 6  21827185.453    21827188.145
        17.000          17.000
 95  4 27 16 34 15.0000000  0  8G 2G16G18G19G27G28G29G31
                  -5724314.746 6  -4448028.241 6  22828055.469    22828059.848
        14.000          13.250
                    -16286.031 3    -12691.157 5  24442397.867    24442401.664
         5.750           6.250
                   5763988.152 6   4491414.512 6  21349089.344    21349092.453
        17.750          18.250
                    237002.117 6    184674.375 6  20786051.500    20786054.230
        18.750          18.000
                  -4450081.946 6  -3467598.739 6  21671512.148    21671514.668
        17.250          18.000
                   5876102.900 5   4574087.350 5  24379742.281    24379745.406
         7.500           7.000
                   9156642.428 5   7135037.511 5  23266789.977    23266794.164
        10.250           9.250
                   -553987.791 6   -431680.108 6  21830399.180    21830401.996
        17.000          17.000
 95  4 27 16 34 30.0000000  0  8G 2G16G18G19G27G28G29G31
                  -5743254.454 6  -4462786.448 6  22824451.320    22824455.684
        14.000          13.250
                    -14203.185 3    -11068.197 5  24442794.734    24442798.109
         5.750           6.250
                   5811726.763 6   4528613.408 6  21358173.766    21358176.844
        17.750          18.250
                    248983.477 6    194010.489 6  20788331.516    20788334.234
        18.750          18.000
                  -4465280.259 6  -3479441.587 6  21668620.023    21668622.621
        17.250          18.000
                   5924535.190 5   4611826.771 5  24388959.023    24388961.992
         7.750           7.000
                   9218504.224 5   7183241.444 5  23278562.164    23278566.332
        10.250           9.250
                   -536886.508 6   -418354.433 6  21833653.516    21833656.355
        17.000          17.000
 95  4 27 16 34 45.0000000  0  8G 2G16G18G19G27G28G29G31
                  -5762076.677 6  -4477453.113 6  22820869.641    22820874.070
        14.250          13.250
                    -11934.657 3     -9300.538 5  24443226.336    24443230.016
         5.750           6.500
                   5859626.332 6   4565937.720 6  21367288.742    21367291.832
        17.750          18.000
                    261072.946 6    203430.841 6  20790632.031    20790634.777
        18.750          18.000
                  -4480397.722 6  -3491221.439 6  21665743.391    21665745.938
        17.250          18.250
                   5973123.576 5   4649687.838 5  24398205.250    24398207.980
         8.250           6.750
                   9280481.356 5   7231535.249 5  23290355.961    23290360.234
        10.250           9.250
                   -519575.615 6   -404865.426 6  21836947.648    21836950.449
        17.000          17.000
 95  4 27 16 35  0.0000000  0  8G 2G16G18G19G27G28G29G31
                  -5780779.602 6  -4492026.818 6  22817310.711    22817315.000
        14.250          13.250
                     -9476.107 3     -7384.809 5  24443694.102    24443697.902
         5.750           6.750
                   5907690.756 6   4603390.497 6  21376435.031    21376438.195
        17.750          18.000
                    273272.689 6    212937.124 6  20792953.664    20792956.430
        18.750          18.000
                  -4495432.493 6  -3502936.858 6  21662882.344    21662884.754
        17.500          18.000
                   6021870.789 5   4687672.665 5  24407481.422    24407483.723
         8.250           6.250
                   9342578.823 5   7279922.821 5  23302172.789    23302177.180
        10.000           9.250
                   -502049.701 6   -391208.870 6  21840282.695    21840285.477
        17.000          17.000
 95  4 27 16 35 15.0000000  0  8G 2G16G18G19G27G28G29G31
                  -5799367.189 6  -4506510.649 6  22813773.672    22813778.000
        14.250          13.500
                     -6829.472 3     -5322.520 5  24444198.063    24444201.609
         5.750           6.500
                   5955914.720 6   4640967.585 6  21385611.969    21385615.031
        17.750          18.000
                    285580.150 6    222527.342 6  20795295.641    20795298.297
        18.750          18.000
                  -4510385.949 6  -3514588.912 6  21660036.758    21660039.121
        17.250          18.000
                   6070772.531 5   4725777.915 5  24416787.539    24416789.969
         8.750           6.500
                   9404793.597 5   7328401.797 5  23314011.977    23314016.188
        10.000           9.250
                   -484311.329 6   -377386.762 6  21843658.289    21843660.965
        17.000          17.000
 95  4 27 16 35 30.0000000  0  8G 2G16G18G19G27G28G29G31
                  -5817836.086 6  -4520901.993 6  22810258.820    22810263.238
        14.250          13.500
                     -3992.365 3     -3111.802 5  24444737.641    24444741.730
         6.000           6.750
                   6004301.234 6   4678671.340 6  21394819.586    21394822.676
        17.750          18.000
                    297999.279 6    232204.572 6  20797658.898    20797661.566
        19.000          18.000
                  -4525252.559 6  -3526173.287 6  21657207.672    21657210.297
        17.250          18.250
                   6119830.340 5   4764004.758 5  24426122.594    24426124.938
         8.250           6.250
                   9467124.439 5   7376971.221 5  23325873.063    23325877.477
        10.000           9.250
                   -466363.252 6   -363401.249 6  21847073.648    21847076.449
        17.000          17.000
 95  4 27 16 35 45.0000000  0  8G 2G16G18G19G27G28G29G31
                  -5836186.589 6  -4535201.083 6  22806766.859    22806771.375
        14.250          13.500
                      -966.745 3      -754.210 5  24445313.906    24445317.207
         6.000           6.500
                   6052850.701 6   4716502.064 6  21404058.297    21404061.316
        18.000          18.000
                    310527.431 6    241966.759 6  20800042.945    20800045.566
        19.000          17.750
                  -4540035.781 6  -3537692.688 6  21654394.656    21654397.227
        17.250          18.250
                   6169041.126 5   4802350.819 5  24435487.359    24435489.660
         8.750           6.000
                   9529566.554 5   7425627.345 5  23337755.617    23337759.785
        10.000           9.250
                   -448211.079 6   -349256.698 6  21850527.852    21850530.613
        17.000          17.000
 95  4 27 16 36  0.0000000  0  8G 2G16G18G19G27G28G29G31
                  -5854425.480 6  -4549413.201 6  22803296.203    22803300.582
        14.250          13.500
                      2238.413 3      1743.292 5  24445923.758    24445926.824
         6.000           6.250
                   6101554.669 6   4754453.186 6  21413326.492    21413329.391
        18.000          17.750
                    323154.171 6    251805.773 6  20802445.773    20802448.355
        19.000          17.750
                  -4554744.670 6  -3549154.168 6  21651595.461    21651597.914
        17.250          18.000
                   6218396.019 5   4840809.171 5  24444879.086    24444881.504
         8.500           6.000
                   9592111.515 5   7474363.615 5  23349657.531    23349661.922
         9.750           9.250
                   -429862.427 6   -334959.044 6  21854019.664    21854022.473
        17.000          17.000
 95  4 27 16 36 15.0000000  0  8G 2G16G18G19G27G28G29G31
                  -5872545.643 6  -4563532.804 6  22799848.000    22799852.434
        14.250          13.500
                      5630.041 3      4386.105 5  24446568.625    24446572.789
         5.750           6.750
                   6150416.159 6   4792527.049 6  21422624.313    21422627.289
        18.000          17.750
                    335887.021 6    261727.462 6  20804868.805    20804871.309
        19.000          17.750
                  -4569374.164 6  -3560553.779 6  21648811.641    21648814.199
        17.250          18.250
                   6267899.889 5   4879383.611 5  24454299.789    24454302.305
         9.250           6.250
                   9654762.513 5   7523182.507 5  23361579.586    23361583.875
         9.750           9.250
                   -411310.091 6   -320502.682 6  21857549.984    21857552.754
        17.000          17.000
 95  4 27 16 36 30.0000000  0  7G 2G16G18G19G27G29G31
                  -5890539.699 6  -4577554.145 6  22796423.984    22796428.367
        14.250          13.750
                      9212.422 3      7177.551 5  24447250.453    24447254.359
         5.750           6.750
                   6199439.908 6   4830727.346 6  21431953.320    21431956.375
        18.250          17.750
                    348732.859 6    271737.193 6  20807313.313    20807315.863
        18.750          17.750
                  -4583916.080 6  -3571885.154 6  21646044.469    21646046.875
        17.250          18.250
                   9717523.666 5   7572087.239 5  23373522.727    23373527.043
         9.750           9.250
                   -392547.059 6   -305882.140 6  21861120.367    21861123.180
        17.000          17.000
 95  4 27 16 36 45.0000000  0  7G 2G16G18G19G27G29G31
                  -5908407.062 6  -4591476.765 6  22793023.773    22793028.172
        14.250          13.750
                     12979.971 3     10113.284 5  24447967.461    24447971.371
         5.750           6.750
                   6248625.227 6   4869053.543 6  21441313.117    21441316.066
        18.250          17.750
                    361689.893 6    281833.573 6  20809778.883    20809781.359
        19.000          17.750
                  -4598370.395 6  -3583148.269 6  21643293.898    21643296.555
        17.250          18.250
                   9780393.374 5   7621076.546 5  23385486.336    23385490.852
         9.500           9.250
                   -373576.327 6   -291099.756 6  21864730.547    21864733.230
        17.000          17.000
 95  4 27 16 37  0.0000000  0  7G 2G16G18G19G27G29G31
                  -5926148.234 6  -4605301.047 6  22789647.883    22789652.250
        14.250          13.750
                     16929.005 3     13190.428 5  24448719.234    24448723.363
         5.750           7.000
                   6297968.474 6   4907502.801 6  21450702.758    21450705.719
        18.250          17.250
                    374750.893 6    292010.965 6  20812264.336    20812266.945
        18.750          17.750
                  -4612736.523 6  -3594342.660 6  21640560.031    21640562.719
        17.250          18.250
                   9843368.238 5   7670147.803 5  23397470.211    23397474.660
         9.250           9.250
                   -354399.903 6   -276157.093 6  21868379.836    21868382.594
        17.000          17.000
 95  4 27 16 37 15.0000000  0  7G 2G16G18G19G27G29G31
                  -5943761.355 6  -4619025.553 6  22786296.063    22786300.426
        14.250          13.750
                     21059.988 3     16409.361 5  24449504.938    24449509.000
         5.750           6.750
                   6347468.765 6   4946074.436 6  21460122.484    21460125.363
        18.500          17.250
                    387916.530 6    302269.895 6  20814769.563    20814772.191
        18.750          17.750
                  -4627010.936 6  -3605465.585 6  21637843.688    21637846.199
        17.500          18.250
                   9906449.141 5   7719301.684 5  23409474.156    23409478.672
         9.250           9.250
                   -335018.238 6   -261054.496 6  21872067.758    21872070.434
        17.000          17.000
 95  4 27 16 37 30.0000000  0  7G 2G16G18G19G27G29G31
                  -5961249.929 6  -4632653.012 6  22782968.031    22782972.395
        14.250          13.750
                     25370.113 3     19767.879 5  24450325.398    24450329.180
         5.750           6.750
                   6397124.009 6   4984766.808 6  21469571.586    21469574.441
        18.500          17.250
                    401183.156 6    312607.519 6  20817294.164    20817296.832
        18.500          18.000
                  -4641199.037 6  -3616521.259 6  21635143.906    21635146.402
        17.500          18.250
                   9969629.354 5   7768532.950 5  23421496.938    23421501.383
         9.250           9.250
                   -315437.678 6   -245796.921 6  21875793.828    21875796.516
        17.000          16.750
 95  4 27 16 37 45.0010000  0  7G 2G16G18G19G27G29G31
                  -5978616.308 6  -4646185.252 6  22779663.294    22779667.681
        14.250          13.750
                     29861.235 3     23267.431 5  24451180.208    24451183.661
         6.000           6.750
                   6446942.016 6   5023586.009 6  21479051.685    21479054.544
        18.500          17.000
                    414552.751 6    323025.373 6  20819838.278    20819840.954
        18.500          18.000
                  -4655304.381 6  -3627512.441 6  21632459.817    21632462.274
        17.500          18.250
                  10032916.113 5   7817847.234 5  23433540.138    23433544.489
         9.250           9.000
                   -295654.802 6   -230381.695 6  21879558.224    21879560.966
        17.000          16.500
 95  4 27 16 38  0.0010000  0  7G 2G16G18G19G27G29G31
                  -5995857.973 6  -4659620.308 6  22776382.388    22776386.911
        14.250          13.750
                     34531.193 4     26906.336 5  24452068.942    24452072.396
         6.250           7.000
                   6496917.895 6   5062528.231 6  21488561.716    21488564.642
        18.500          17.000
                    428022.284 6    333521.108 6  20822401.544    20822404.333
        18.500          18.000
                  -4669325.293 6  -3638437.832 6  21629791.536    21629794.118
        17.250          18.500
                  10096306.741 5   7867242.465 5  23445602.974    23445607.185
         9.250           9.000
                   -275666.089 6   -214806.073 6  21883361.997    21883364.774
        17.000          16.500
 95  4 27 16 38 15.0010000  0  7G 2G16G18G19G27G29G31
                  -6012983.040 6  -4672964.515 6  22773123.552    22773128.122
        14.250          13.750
                     39373.285 4     30679.371 5  24452990.317    24452994.044
         6.250           7.000
                   6547050.135 6   5101592.293 6  21498101.599    21498104.450
        18.500          16.750
                    441589.239 6    344092.753 6  20824983.138    20824985.860
        18.500          18.000
                  -4683263.473 6  -3649298.761 6  21627139.216    21627141.833
        17.250          18.500
                  10159801.573 5   7916718.884 5  23457685.974    23457690.157
         9.500           8.750
                   -255473.261 6   -199071.411 6  21887204.646    21887207.228
        17.250          16.500
 95  4 27 16 38 30.0010000  0  7G 2G16G18G19G27G29G31
                  -6029991.858 6  -4686218.134 6  22769886.731    22769891.138
        14.250          13.750
                     44388.240 4     34587.099 5  24453944.521    24453948.321
         6.250           7.000
                   6597342.906 6   5140781.437 6  21507672.028    21507674.923
        18.250          17.000
                    455257.051 6    354742.984 6  20827584.192    20827586.958
        18.500          18.000
                  -4697116.237 6  -3660093.126 6  21624503.106    21624505.712
        17.500          18.750
                  10223403.448 5   7966278.721 5  23469788.942    23469793.134
         9.500           8.500
                   -235076.256 6   -183177.636 6  21891086.083    21891088.606
        17.250          16.500
 95  4 27 16 38 45.0010000  0  7G 2G16G18G19G27G29G31
                  -6046890.941 6  -4699386.242 6  22766671.028    22766675.356
        14.250          13.750
                     49571.728 3     38626.164 5  24454931.239    24454934.892
         6.000           7.000
                   6647795.101 6   5180094.815 6  21517272.700    21517275.638
        18.500          17.000
                    469021.560 6    365468.567 6  20830203.435    20830206.228
        18.500          18.250
                  -4710888.588 6  -3670824.836 6  21621882.325    21621884.942
        17.500          18.750
                  10287112.157 5   8015921.801 5  23481912.372    23481916.419
         9.250           8.500
                   -214481.448 6   -167129.733 6  21895005.161    21895007.657
        17.250          16.250
 95  4 27 16 39  0.0010000  0  7G 2G16G18G19G27G29G31
                  -6063684.468 6  -4712472.104 6  22763475.450    22763479.802
        14.250          13.750
                     54920.449 3     42793.976 5  24455948.724    24455952.497
         6.000           7.000
                   6698404.123 6   5219530.395 6  21526903.263    21526906.114
        18.500          16.750
                    482882.149 6    376269.017 6  20832840.942    20832843.794
        18.500          18.250
                  -4724584.095 6  -3681496.667 6  21619276.255    21619278.755
        17.750          18.750
                  10350925.568 5   8065646.465 5  23494055.817    23494059.708
         9.500           8.250
                   -193689.047 6   -150927.867 6  21898961.833    21898964.353
        17.250          16.250
 95  4 27 16 39 15.0010000  0  7G 2G16G18G19G27G29G31
                  -6080379.652 6  -4725481.332 6  22760298.552    22760302.849
        14.500          13.750
                     60429.458 4     47086.695 5  24456997.028    24457000.989
         6.250           7.250
                   6749165.398 6   5259084.612 6  21536562.794    21536565.661
        18.250          16.750
                    496838.050 6    387143.738 6  20835496.692    20835499.517
        18.750          18.000
                  -4738207.338 6  -3692112.187 6  21616683.872    21616686.345
        17.500          18.750
                  10414838.994 5   8115449.070 5  23506218.067    23506222.079
         9.500           8.250
                   -172703.038 6   -134575.134 6  21902955.224    21902957.817
        17.250          16.250
 95  4 27 16 39 30.0010000  0  7G 2G16G18G19G27G29G31
                  -6096971.615 6  -4738410.133 6  22757141.052    22757145.298
        14.500          13.750
                     66103.146 4     51507.725 5  24458077.192    24458080.845
         6.750           7.500
                   6800083.919 6   5298761.357 6  21546252.185    21546255.106
        18.250          16.750
                    510898.287 6    398099.755 6  20838172.317    20838175.075
        18.750          18.000
                  -4751753.084 6  -3702667.321 6  21614106.060    21614108.532
        17.500          18.500
                  10478857.058 5   8165333.205 5  23518400.278    23518404.122
         9.500           8.250
                   -151518.684 6   -118067.848 6  21906986.474    21906989.063
        17.250          16.250
 95  4 27 16 39 45.0010000  0  7G 2G16G18G19G27G29G31
                  -6113460.723 6  -4751258.783 6  22754003.200    22754007.524
        14.500          13.750
                     71939.093 4     56055.204 5  24459187.450    24459191.306
         6.500           7.250
                   6851156.914 6   5338558.474 6  21555971.177    21555974.032
        18.250          16.500
                    525064.120 6    409138.061 6  20840868.153    20840870.771
        19.000          18.250
                  -4765218.575 6  -3713159.916 6  21611543.716    21611546.313
        17.500          18.750
                  10542978.999 5   8215298.288 5  23530602.396    23530606.294
         9.500           8.000
                   -130137.397 6   -101407.103 6  21911055.192    21911057.767
        17.250          16.250
 95  4 27 16 40  0.0010000  0  7G 2G16G18G19G27G29G31
                  -6129846.890 6  -4764027.218 6  22750885.138    22750889.274
        14.500          13.750
                     77935.405 4     60727.633 5  24460328.724    24460332.329
         6.750           7.250
                   6902378.431 6   5378471.320 6  21565718.435    21565721.220
        18.250          16.500
                    539334.445 6    420257.788 6  20843583.669    20843586.337
        19.000          18.000
                  -4778600.892 6  -3723587.703 6  21608997.106    21608999.532
        17.500          18.500
                  10607205.244 5   8265344.638 5  23542824.419    23542828.333
         9.500           8.000
                   -108558.445 6    -84592.339 6  21915161.536    21915164.079
        17.000          16.250
 95  4 27 16 40 15.0010000  0  7G 2G16G18G19G27G29G31
                  -6146128.473 6  -4776714.157 6  22747786.825    22747790.853
        14.750          14.000
                     84093.344 4     65526.006 5  24461500.817    24461504.106
         6.750           7.000
                   6953745.777 6   5418497.800 6  21575493.286    21575496.130
        18.250          16.500
                    553711.267 6    431460.500 6  20846319.567    20846322.122
        19.250          18.000
                  -4791898.005 6  -3733949.095 6  21606466.794    21606469.341
        17.250          18.500
                  10671533.279 5   8315470.311 5  23555065.708    23555069.630
         9.500           7.750
                    -86782.333 6    -67623.940 6  21919305.411    21919307.899
        17.000          16.250
 95  4 27 16 40 30.0010000  0  7G 2G16G18G19G27G29G31
                  -6162305.781 6  -4789319.847 6  22744708.411    22744712.595
        14.750          14.000
                     90419.086 4     70455.133 5  24462704.271    24462707.919
         6.250           7.250
                   7005257.020 6   5458636.407 6  21585295.489    21585298.298
        18.250          16.500
                    568196.428 6    442747.629 6  20849075.856    20849078.513
        19.250          18.000
                  -4805111.338 6  -3744245.205 6  21603952.349    21603954.915
        17.250          18.250
                  10735960.528 5   8365673.294 5  23567325.911    23567329.638
         9.500           7.750
                    -64810.542 6    -50503.065 6  21923486.497    21923489.005
        17.250          16.250
 95  4 27 16 40 45.0010000  0  7G 2G16G18G19G27G29G31
                  -6178380.572 6  -4801845.645 6  22741649.481    22741653.634
        14.750          14.000
                     96912.642 3     75515.037 5  24463939.747    24463943.743
         6.000           7.000
                   7056907.826 6   5498883.766 6  21595124.247    21595127.106
        18.000          16.500
                    582786.112 6    454116.204 6  20851852.200    20851854.849
        19.000          18.000
                  -4818244.847 6  -3754479.113 6  21601453.106    21601455.626
        17.000          18.250
                  10800486.521 5   8415953.223 5  23579604.825    23579608.763
         9.500           7.750
                    -42645.950 6    -33231.959 6  21927704.356    21927706.817
        17.000          16.250
 95  4 27 16 41  0.0010000  0  7G 2G16G18G19G27G29G31
                  -6194351.989 6  -4814290.904 6  22738610.200    22738614.294
        14.750          13.750
                    103575.491 3     80706.847 5  24465207.442    24465211.095
         5.750           7.000
                   7108696.998 6   5539238.934 6  21604979.427    21604982.294
        18.000          16.500
                    597480.038 6    465566.006 6  20854648.341    20854651.071
        19.250          18.000
                  -4831297.016 6  -3764649.644 6  21598969.333    21598971.829
        17.000          18.250
                  10865109.591 5   8466308.792 5  23591902.317    23591906.052
         9.250           7.750
                    -20286.284 6    -15808.846 6  21931959.310    21931961.704
        17.250          16.250
 95  4 27 16 41 15.0010000  0  7G 2G16G18G19G27G29G31
                  -6210218.906 6  -4826654.727 6  22735590.810    22735594.989
        14.750          14.000
                    110410.432 3     86032.768 5  24466507.896    24466512.095
         5.500           7.000
                   7160623.443 6   5579701.074 6  21614860.849    21614863.771
        17.750          16.500
                    612276.044 6    477095.355 6  20857463.981    20857466.692
        19.000          18.000
                  -4844268.049 6  -3774756.946 6  21596500.989    21596503.606
        16.750          18.250
                  10929827.004 5   8516737.870 5  23604217.544    23604221.548
         9.250           7.750
                      2267.245 6      1765.332 6  21936251.036    21936253.481
        17.250          16.250
 95  4 27 16 41 30.0010000  0  7G 2G16G18G19G27G29G31
                  -6225981.245 6  -4838937.062 6  22732591.364    22732595.532
        15.000          14.000
                    117420.768 3     91495.349 5  24467842.138    24467846.372
         5.500           7.000
                   7212687.000 6   5620270.055 6  21624768.169    21624771.271
        17.750          16.500
                    627172.682 6    488703.122 6  20860298.817    20860301.606
        19.000          18.000
                  -4857159.403 6  -3784802.162 6  21594047.841    21594050.446
        16.500          18.250
                  10994638.327 5   8567240.131 5  23616550.903    23616554.954
         9.000           8.000
                     25012.362 6     19488.795 6  21940579.364    21940581.778
        17.250          16.250
 95  4 27 16 41 45.0010000  0  7G 2G16G18G19G27G29G31
                  -6241640.739 6  -4851139.255 6  22729611.450    22729615.669
        15.000          14.000
                    124607.414 3     97095.320 5  24469209.669    24469213.759
         5.500           7.250
                   7264885.230 6   5660943.974 6  21634701.106    21634704.157
        17.500          16.500
                    642167.690 6    500387.533 6  20863152.278    20863154.849
        19.000          18.000
                  -4869973.746 6  -3794787.370 6  21591609.411    21591611.950
        16.750          18.250
                  11059542.261 5   8617814.547 5  23628901.755    23628905.782
         9.000           8.000
                     47946.074 6     37359.220 6  21944943.489    21944945.841
        17.250          16.500
 95  4 27 16 42  0.0010000  0  7G 2G16G18G19G27G29G31
                  -6257195.480 6  -4863259.831 6  22726651.497    22726655.544
        15.000          14.000
                    131976.440 3    102837.400 5  24470612.185    24470616.118
         5.750           7.250
                   7317221.815 6   5701725.703 6  21644660.411    21644663.462
        17.500          16.500
                    657262.221 6    512149.498 6  20866024.731    20866027.435
        19.000          18.250
                  -4882710.132 6  -3804711.830 6  21589185.700    21589188.372
        16.500          18.500
                  11124543.281 5   8668464.618 5  23641270.896    23641275.165
         8.750           8.250
                     71074.760 6     55381.571 6  21949344.708    21949347.149
        17.250          16.500
 95  4 27 16 42 15.0010000  0  7G 2G16G18G19G27G29G31
                  -6272646.059 6  -4875299.234 6  22723711.356    22723715.274
        15.000          14.000
                    139525.986 3    108720.146 5  24472048.606    24472052.759
         5.500           7.000
                   7369695.689 6   5742614.410 6  21654645.864    21654648.942
        17.500          16.500
                    672453.976 6    523987.219 6  20868915.396    20868918.173
        19.000          18.250
                  -4895374.778 6  -3814580.387 6  21586775.606    21586778.345
        16.750          18.500
                  11189637.543 5   8719187.345 5  23653657.935    23653662.411
         8.750           8.250
                     94396.044 6     73553.999 6  21953782.653    21953785.087
        17.250          16.500
 95  4 27 16 42 30.0010000  0  7G 2G16G18G19G27G29G31
                  -6287989.886 6  -4887255.459 6  22720791.419    22720795.677
        15.000          14.000
                    147258.020 3    114745.089 5  24473520.028    24473524.200
         5.250           7.000
                   7422310.839 6   5783613.195 6  21664658.216    21664661.325
        17.500          16.500
                    687744.647 6    535902.018 6  20871825.122    20871827.978
        18.750          18.000
                  -4907965.151 6  -3824391.074 6  21584379.825    21584382.306
        16.750          18.250
                  11254826.680 5   8769983.989 5  23666063.177    23666067.485
         8.500           8.250
                    117911.000 6     91877.335 6  21958257.419    21958259.868
        17.250          16.750
 95  4 27 16 42 45.0010000  0  7G 2G16G18G19G27G29G31
                  -6303234.684 6  -4899134.509 6  22717890.380    22717894.806
        15.000          14.250
                    155160.503 3    120902.852 5  24475023.677    24475027.931
         5.500           7.000
                   7475057.949 6   5824714.818 6  21674695.700    21674698.853
        17.250          16.750
                    703123.382 6    547885.444 6  20874751.575    20874754.493
        18.750          18.000
                  -4920487.538 6  -3834148.778 6  21581996.997    21581999.567
        17.000          18.500
                  11320102.514 5   8820848.205 5  23678484.763    23678489.118
         8.500           8.250
                    141610.953 6    110344.829 6  21962767.349    21962769.853
        17.250          16.750
 95  4 27 16 43  0.0010000  0  7G 2G16G18G19G27G29G31
                  -6318377.255 6  -4910933.909 6  22715008.896    22715013.204
        15.000          14.250
                    163232.845 3    127192.968 5  24476560.583    24476564.044
         6.000           7.250
                   7527939.912 6   5865921.515 6  21684758.739    21684761.970
        17.250          16.750
                    718593.249 6    559939.881 6  20877695.325    20877698.228
        18.750          18.250
                  -4932936.805 6  -3843849.509 6  21579627.997    21579630.587
        17.000          18.750
                  11385467.004 5   8871781.485 5  23690923.317    23690927.763
         8.500           8.250
                    165499.034 6    128958.912 6  21967313.114    21967315.661
        17.500          17.000
 95  4 27 16 43 15.0010000  0  7G 2G16G18G19G27G29G31
                  -6333413.681 6  -4922650.595 6  22712147.677    22712151.872
        15.250          14.250
                    171477.576 3    133617.421 5  24478128.981    24478133.106
         5.750           7.500
                   7580959.224 6   5907235.237 6  21694848.036    21694851.263
        17.250          16.750
                    734159.815 6    572069.671 6  20880657.630    20880660.517
        18.750          18.250
                  -4945311.173 6  -3853491.878 6  21577273.216    21577275.618
        17.250          18.750
                  11450921.463 5   8922784.887 5  23703378.872    23703383.505
         8.500           8.250
                    189579.646 6    147723.023 6  21971895.560    21971898.149
        17.250          17.000
 95  4 27 16 43 30.0010000  0  7G 2G16G18G19G27G29G31
                  -6348343.171 6  -4934283.957 6  22709306.552    22709310.810
        15.250          14.250
                    179892.203 3    140174.260 5  24479730.224    24479734.474
         5.750           7.500
                   7634114.609 6   5948654.988 6  21704963.185    21704966.415
        17.250          16.750
                    749824.302 6    584275.758 6  20883638.521    20883641.306
        18.750          18.000
                  -4957611.310 6  -3863076.407 6  21574932.567    21574935.146
        17.500          18.750
                  11516467.229 5   8973859.429 5  23715851.739    23715856.521
         8.250           8.250
                    213853.352 6    166637.594 6  21976514.685    21976517.345
        17.250          17.000
 95  4 27 16 43 45.0010000  0  7G 2G16G18G19G27G29G31
                  -6363171.666 6  -4945838.617 6  22706484.935    22706489.095
        15.250          14.250
                    188466.725 3    146855.686 5  24481362.028    24481366.087
         5.750           7.500
                   7687397.746 6   5990174.292 6  21715102.544    21715105.884
        17.250          16.750
                    765581.578 6    596554.145 6  20886636.958    20886639.786
        18.500          18.000
                  -4969842.458 6  -3872607.173 6  21572605.153    21572607.505
        17.750          18.750
                  11582098.518 5   9025000.618 5  23728341.130    23728345.845
         8.250           8.250
                    238314.500 6    185698.223 6  21981169.458    21981172.095
        17.250          17.000
 95  4 27 16 44  0.0010000  0  7G 2G16G18G19G27G29G31
                  -6377901.549 6  -4957316.440 6  22703681.771    22703685.950
        15.500          14.250
                    197197.846 3    153659.135 5  24483023.231    24483027.345
         5.750           7.250
                   7740807.378 6   6031792.156 6  21725266.224    21725269.560
        17.250          16.750
                    781428.272 6    608902.213 6  20889652.567    20889655.411
        18.500          18.000
                  -4982006.512 6  -3882085.663 6  21570290.380    21570292.899
        17.750          18.750
                  11647814.576 5   9076207.850 5  23740846.411    23740851.239
         8.500           8.250
                    262965.537 6    204906.822 6  21985860.302    21985863.110
        17.250          17.000
 95  4 27 16 44 15.0010000  0  7G 2G16G18G19G27G29G31
                  -6392533.863 6  -4968718.235 6  22700897.200    22700901.618
        15.250          14.250
                    206080.217 3    160580.449 5  24484713.466    24484717.536
         5.250           7.000
                   7794341.111 6   6073506.724 6  21735453.325    21735456.638
        17.250          16.500
                    797359.372 6    621316.051 6  20892684.161    20892686.853
        18.750          18.000
                  -4994106.133 6  -3891513.939 6  21567988.013    21567990.548
        18.000          19.000
                  11713611.338 5   9127477.984 5  23753367.161    23753372.185
         8.500           8.250
                    287803.768 6    224261.284 6  21990586.997    21990589.696
        17.250          17.000
 95  4 27 16 44 30.0010000  0  7G 2G16G18G19G27G29G31
                  -6407070.438 6  -4980045.432 6  22698130.950    22698135.458
        15.000          14.250
                    215109.318 3    167616.089 5  24486431.771    24486435.704
         5.750           7.000
                   7848000.044 6   6115318.852 6  21745664.388    21745667.606
        17.250          16.500
                    813372.986 6    633794.182 6  20895731.481    20895734.364
        18.750          18.000
                  -5006141.832 6  -3900892.413 6  21565697.646    21565700.071
        18.250          19.000
                  11779489.095 5   9178811.214 5  23765903.333    23765908.345
         8.500           8.250
                    312824.363 6    243757.849 6  21995348.208    21995350.825
        17.250          17.000
 95  4 27 16 44 45.0010000  0  7G 2G16G18G19G27G29G31
                  -6421516.176 6  -4991301.845 6  22695382.122    22695386.478
        15.250          14.250
                    224286.870 3    174767.404 5  24488178.310    24488182.294
         5.500           7.250
                   7901786.182 6   6157230.100 6  21755899.552    21755902.786
        17.250          16.500
                    829469.697 6    646337.065 6  20898794.614    20898797.321
        18.750          17.750
                  -5018112.420 6  -3910220.152 6  21563419.708    21563422.118
        18.250          19.000
                  11845449.340 5   9230208.721 5  23778455.364    23778460.263
         8.500           8.250
                    338028.301 6    263397.275 6  22000144.427    22000147.091
        17.250          17.000
 95  4 27 16 45  0.0010000  0  7G 2G16G18G19G27G29G31
                  -6435869.397 6  -5002486.159 6  22692650.841    22692655.134
        15.250          14.500
                    233616.456 3    182037.209 5  24489954.067    24489957.634
         5.750           7.250
                   7955703.300 6   6199243.412 6  21766159.505    21766162.899
        17.250          16.500
                    845654.188 6    658948.351 6  20901874.380    20901877.099
        18.750          17.750
                  -5030019.200 6  -3919498.166 6  21561153.989    21561156.364
        18.250          19.000
                  11911492.671 5   9281670.977 5  23791022.880    23791027.931
         8.500           8.250
                    363416.794 6    283180.510 6  22004975.856    22004978.474
        17.250          17.000
 95  4 27 16 45 15.0010000  0  7G 2G16G18G19G27G29G31
                  -6450130.911 6  -5013599.020 6  22689936.966    22689941.204
        15.250          14.750
                    243098.146 3    189425.526 5  24491757.661    24491761.942
         5.500           7.500
                   8009753.162 6   6241360.159 6  21776444.919    21776448.204
        17.250          16.250
                    861927.188 6    671628.605 6  20904970.950    20904973.618
        19.000          17.750
                  -5041864.743 6  -3928728.465 6  21558899.731    21558902.274
        18.250          19.000
                  11977616.846 5   9333196.225 5  23803606.044    23803611.216
         8.500           8.250
                    388990.476 6    303108.051 6  22009842.122    22009844.817
        17.250          17.000
 95  4 27 16 45 30.0010000  0  7G 2G16G18G19G27G29G31
                  -6464303.679 6  -5024642.728 6  22687239.935    22687244.251
        15.500          14.750
                    252727.249 3    196928.701 5  24493590.286    24493594.567
         5.500           7.500
                   8063934.758 6   6283579.560 6  21786755.403    21786758.708
        17.250          16.250
                    878283.511 6    684373.786 6  20908083.497    20908086.177
        19.000          17.750
                  -5053651.551 6  -3937912.996 6  21556656.888    21556659.274
        18.500          19.000
                  12043818.395 5   9384781.761 5  23816203.872    23816208.833
         8.500           8.250
                    414744.964 6    323176.479 6  22014743.005    22014745.778
        17.250          17.000
 95  4 27 16 45 45.0010000  0  7G 2G16G18G19G27G29G31
                  -6478384.547 6  -5035614.823 6  22684560.310    22684564.610
        15.500          14.750
                    262508.949 3    204550.790 5  24495451.599    24495455.997
         5.500           7.500
                   8118253.254 6   6325905.638 6  21797091.935    21797095.239
        17.250          16.250
                    894723.350 6    697184.045 6  20911211.919    20911214.524
        19.250          17.750
                  -5065372.679 6  -3947046.350 6  21554426.294    21554428.849
        18.500          19.000
                  12110100.981 5   9436430.446 5  23828816.958    23828822.106
         8.500           8.000
                    440679.617 6    343385.295 6  22019678.185    22019680.989
        17.250          17.000
 95  4 27 16 46  0.0010000  0  7G 2G16G18G19G27G29G31
                  -6492370.635 6  -5046513.065 6  22681898.825    22681903.243
        15.500          14.750
                    272446.544 3    212294.356 5  24497342.849    24497346.927
         5.250           7.500
                   8172711.329 6   6368340.478 6  21807455.036    21807458.302
        17.250          16.250
                    911248.973 6    710061.147 6  20914356.810    20914359.474
        19.000          17.750
                  -5077025.542 6  -3956126.502 6  21552209.036    21552211.360
        18.250          19.000
                  12176465.011 5   9488142.599 5  23841445.661    23841450.880
         8.250           7.750
                    466794.722 6    363734.725 6  22024647.817    22024650.669
        17.250          17.000
 95  4 27 16 46 15.0010000  0  7G 2G16G18G19G27G29G31
                  -6506269.358 6  -5057343.234 6  22679254.099    22679258.384
        15.500          14.750
                    282532.009 3    220153.134 5  24499262.153    24499266.212
         5.500           7.500
                   8227298.094 6   6410875.597 6  21817842.435    21817845.724
        17.250          16.000
                    927852.892 6    722999.252 6  20917516.442    20917519.087
        19.000          17.750
                  -5088617.155 6  -3965158.935 6  21550002.997    21550005.399
        18.250          19.000
                  12242900.217 5   9539910.205 5  23854087.802    23854092.981
         8.250           7.750
                    493079.208 6    384216.132 6  22029649.560    22029652.329
        17.250          17.000
 95  4 27 16 46 30.0010000  0  7G 2G16G18G19G27G29G31
                  -6520077.912 6  -5068103.136 6  22676626.442    22676630.829
        15.500          14.750
                    292766.833 3    228128.308 5  24501209.458    24501214.009
         5.750           7.500
                   8282010.956 6   6453508.964 6  21828253.856    21828257.247
        17.250          15.750
                    944540.058 6    736002.229 6  20920691.880    20920694.595
        19.000          17.750
                  -5100143.953 6  -3974140.863 6  21547809.700    21547812.138
        18.250          19.000
                  12309404.348 5   9591731.520 5  23866743.044    23866748.571
         7.750           7.500
                    519530.249 6    404827.332 6  22034682.950    22034685.817
        17.250          17.000
 95  4 27 16 46 45.0010000  0  7G 2G16G18G19G27G29G31
                  -6533789.323 6  -5078787.344 6  22674017.278    22674021.618
        15.500          15.000
                    303162.759 3    236229.009 5  24503188.130    24503192.450
         5.750           7.500
                   8336855.205 6   6496244.712 6  21838690.521    21838693.899
        17.250          15.750
                    961320.577 6    749077.951 6  20923884.989    20923887.673
        19.000          17.750
                  -5111598.329 6  -3983066.360 6  21545629.810    21545632.349
        18.000          19.000
                  12375981.938 5   9643610.078 5  23879412.497    23879417.786
         7.750           7.500
                    546157.810 6    425576.073 6  22039749.981    22039752.837
        17.250          17.000
 95  4 27 16 47  0.0010000  0  7G 2G16G18G19G27G29G31
                  -6547409.078 6  -5089400.126 6  22671425.427    22671429.774
        15.500          15.000
                    313712.115 3    244449.280 5  24505195.106    24505199.868
         5.750           7.500
                   8391819.905 6   6539074.322 6  21849150.036    21849153.274
        17.250          15.750
                    978186.693 6    762220.375 6  20927094.544    20927097.325
        19.000          17.750
                  -5122987.958 6  -3991941.398 6  21543462.481    21543464.888
        18.000          19.000
                  12442621.556 5   9695536.966 5  23892093.489    23892098.860
         7.500           7.500
                    572956.975 6    446458.538 6  22044849.716    22044852.501
        17.250          16.750
 95  4 27 16 47 15.0010000  0  7G 2G16G18G19G27G29G31
                  -6560932.024 6  -5099937.480 6  22668852.106    22668856.302
        15.500          15.000
                    324414.193 3    252788.544 5  24507232.044    24507236.349
         6.000           7.500
                   8446903.655 6   6581996.692 6  21859632.239    21859635.450
        17.250          15.750
                    995137.940 6    775429.129 6  20930320.185    20930322.950
        18.750          17.750
                  -5134308.429 6  -4000762.547 6  21541308.349    21541310.860
        17.750          19.000
                  12509323.110 5   9747512.111 5  23904786.396    23904791.927
         7.500           7.250
                    599931.705 6    467477.803 6  22049982.755    22049985.618
        17.250          16.750
 95  4 27 16 47 30.0010000  0  7G 2G16G18G19G27G29G31
                  -6574355.885 6  -5110397.627 6  22666297.599    22666301.962
        15.500          15.000
                    335269.548 3    261247.242 5  24509297.560    24509301.919
         6.000           7.500
                   8502105.547 6   6625011.123 6  21870136.646    21870139.935
        17.250          15.500
                   1012171.870 6    788702.309 6  20933561.638    20933564.438
        18.750          17.750
                  -5145556.234 6  -4009527.074 6  21539167.739    21539170.341
        17.750          19.000
                  12576090.249 5   9799538.364 5  23917491.896    23917497.208
         7.500           7.000
                    627082.578 6    488634.321 6  22055149.513    22055152.372
        17.250          16.500
 95  4 27 16 47 45.0010000  0  7G 2G16G18G19G27G29G31
                  -6587683.692 6  -5120782.920 6  22663761.528    22663765.845
        15.750          15.000
                    346276.908 3    269824.396 5  24511392.435    24511396.481
         6.000           7.500
                   8557418.587 6   6668112.166 6  21880662.372    21880665.669
        17.250          15.500
                   1029283.814 6    802036.285 6  20936817.935    20936820.751
        19.000          17.750
                  -5156733.331 6  -4018236.506 6  21537040.919    21537043.481
        17.750          19.000
                  12642920.356 5   9851613.681 5  23930209.325    23930214.759
         7.500           7.250
                    654405.039 6    509924.552 6  22060348.755    22060351.481
        17.250          16.500
 95  4 27 16 48  0.0010000  0  7G 2G16G18G19G27G29G31
                  -6600915.326 6  -5131093.277 6  22661243.630    22661247.978
        15.750          15.250
                    357436.745 3    278520.352 5  24513516.247    24513520.544
         6.000           7.500
                   8612840.289 6   6711297.873 6  21891208.794    21891212.161
        17.000          15.500
                   1046476.930 6    815433.512 6  20940089.692    20940092.505
        18.750          17.750
                  -5167841.161 6  -4026891.967 6  21534927.216    21534929.790
        17.750          19.000
                  12709813.559 5   9903738.170 5  23942938.888    23942944.103
         7.500           7.250
                    681901.515 6    531350.371 6  22065581.083    22065583.810
        17.250          16.500
 95  4 27 16 48 15.0010000  0  7G 2G16G18G19G27G29G31
                  -6614050.086 6  -5141328.146 6  22658744.044    22658748.403
        15.750          15.500
                    368750.219 3    287336.019 5  24515668.731    24515672.806
         5.750           7.250
                   8668369.380 6   6754567.267 6  21901775.646    21901778.974
        17.000          15.500
                   1063754.211 6    828896.320 6  20943377.380    20943380.267
        18.750          18.000
                  -5178880.140 6  -4035493.773 6  21532826.560    21532829.067
        17.750          19.000
                  12776772.023 5   9955913.500 5  23955680.708    23955686.177
         7.500           7.000
                    709577.141 6    552915.790 6  22070847.708    22070850.419
        17.250          16.500
 95  4 27 16 48 30.0010000  0  7G 2G16G18G19G27G29G31
                  -6627095.001 6  -5151493.007 6  22656261.778    22656266.079
        15.750          15.500
                    380213.857 3    296268.702 5  24517850.435    24517854.841
         6.000           7.500
                   8724001.665 6   6797917.071 6  21912362.216    21912365.478
        17.000          15.500
                   1081109.614 6    842419.999 6  20946680.013    20946682.993
        18.750          18.000
                  -5189855.141 6  -4044045.726 6  21530738.021    21530740.603
        17.500          19.000
                  12843790.046 5  10008135.242 5  23968433.786    23968439.099
         7.500           7.000
                    737429.448 6    574618.882 6  22076147.856    22076150.446
        17.250          16.500
 95  4 27 16 48 45.0010000  0  7G 2G16G18G19G27G29G31
                  -6640056.961 6  -5161593.230 6  22653795.044    22653799.360
        15.750          15.500
                    391823.560 3    305315.212 5  24520059.997    24520064.177
         6.000           7.500
                   8779739.735 6   6841349.303 6  21922968.950    21922972.146
        17.000          15.500
                   1098537.581 6    856000.223 6  20949996.567    20949999.403
        19.000          18.000
                  -5200772.158 6  -4052552.499 6  21528660.700    21528663.228
        17.750          19.250
                  12910864.315 4  10060400.819 5  23981197.708    23981203.052
         7.250           7.000
                    765455.888 6    596457.662 6  22081480.997    22081483.618
        17.250          16.250
 95  4 27 16 49  0.0010000  0  7G 2G16G18G19G27G29G31
                  -6652932.204 6  -5171625.877 6  22651344.849    22651349.192
        15.500          15.500
                    403582.798 3    314478.234 5  24522297.622    24522301.728
         5.750           7.500
                   8835594.903 6   6884872.779 6  21933597.825    21933601.021
        17.000          15.500
                   1116042.564 6    869640.460 6  20953327.739    20953330.560
        19.000          18.000
                  -5211626.437 6  -4061010.385 6  21526595.255    21526597.755
        17.750          19.500
                  12978004.425 4  10112717.691 5  23993974.239    23993979.427
         7.250           7.000
                    793663.325 6    618437.480 6  22086848.700    22086851.501
        17.250          16.250
 95  4 27 16 49 15.0010000  0  7G 2G16G18G19G27G29G31
                  -6665725.200 6  -5181594.438 6  22648910.466    22648914.821
        15.750          15.500
                    415485.762 3    323753.249 5  24524562.544    24524566.720
         5.750           7.500
                   8891562.752 6   6928484.064 6  21944248.153    21944251.396
        16.750          15.250
                   1133620.038 6    883337.182 6  20956672.731    20956675.470
        19.000          18.250
                  -5222422.188 6  -4069422.666 6  21524540.778    21524543.501
        17.750          19.500
                  13045207.334 4  10165083.498 5  24006762.521    24006767.880
         7.250           7.000
                    822040.322 6    640549.419 6  22092248.700    22092251.224
        17.250          16.250
 95  4 27 16 49 30.0010000  0  7G 2G16G18G19G27G29G31
                  -6678439.788 6  -5191501.902 6  22646491.075    22646495.442
        15.750          15.500
                    427533.031 3    333140.714 5  24526855.021    24526859.544
         6.000           7.500
                   8947641.512 6   6972181.767 6  21954919.646    21954922.985
        16.750          15.250
                   1151269.750 6    897090.196 6  20960031.317    20960034.157
        19.000          18.250
                  -5233160.239 6  -4077789.984 6  21522497.396    21522500.052
        18.000          19.750
                  13112475.155 4  10217499.896 5  24019563.177    24019568.579
         7.250           7.000
                    850580.844 6    662788.783 6  22097679.771    22097682.349
        17.000          16.250
 95  4 27 16 49 45.0010000  0  7G 2G16G18G19G27G29G31
                  -6691073.861 6  -5201346.624 6  22644086.935    22644091.149
        15.750          15.500
                    439731.115 3    342645.704 5  24529176.294    24529180.560
         6.000           7.500
                   9003835.864 6   7015969.550 6  21965612.927    21965616.235
        16.750          15.500
                   1168999.239 6    910905.377 6  20963405.060    20963407.911
        19.250          18.250
                  -5243837.530 6  -4086109.952 6  21520465.653    21520468.220
        18.000          19.750
                  13179815.493 5  10269972.792 5  24032377.927    24032383.110
         7.500           7.000
                    879288.311 6    685158.237 6  22103142.692    22103145.294
        17.250          16.250
 95  4 27 16 50  0.0010000  0  7G 2G16G18G19G27G29G31
                  -6703635.414 6  -5211134.836 6  22641696.567    22641700.786
        15.750          15.500
                    452074.532 3    352263.929 5  24531525.310    24531529.661
         6.000           7.500
                   9060140.903 6   7059843.579 6  21976327.552    21976330.981
        16.750          15.500
                   1186807.402 6    924781.861 6  20966793.794    20966796.724
        19.000          18.250
                  -5254458.701 6  -4094386.196 6  21518444.560    21518447.110
        18.000          19.750
                  13247222.907 5  10322497.962 5  24045204.974    24045210.313
         7.500           7.500
                    908159.526 6    707655.283 6  22108636.786    22108639.333
        17.250          16.250
 95  4 27 16 50 15.0010000  0  7G 2G16G18G19G27G29G31
                  -6716123.015 6  -5220865.432 6  22639320.239    22639324.474
        15.750          15.500
                    464565.527 3    361997.148 5  24533902.122    24533906.091
         6.000           7.000
                   9116560.669 6   7103806.996 6  21987063.942    21987067.368
        16.500          15.500
                   1204698.034 6    938722.599 6  20970198.263    20970201.192
        19.000          18.250
                  -5265023.311 6  -4102618.371 6  21516434.169    21516436.833
        18.000          20.250
                  13314699.751 5  10375077.222 5  24058045.591    24058051.083
         7.500           7.500
                    937196.333 6    730281.354 6  22114162.146    22114164.747
        17.000          16.250
 95  4 27 16 50 30.0010000  0  7G 2G16G18G19G27G29G31
                  -6728543.676 6  -5230543.857 6  22636956.583    22636960.911
        15.750          15.500
                    477198.790 3    371841.227 5  24536306.044    24536310.099
         6.000           7.000
                   9173092.472 6   7147857.722 6  21997821.505    21997825.036
        16.750          15.500
                   1222663.694 6    952721.807 6  20973617.130    20973620.110
        18.750          18.250
                  -5275535.095 6  -4110809.375 6  21514433.911    21514436.337
        18.000          20.000
                  13382241.765 5  10427707.272 5  24070898.630    24070904.017
         7.500           7.500
                    966392.417 6    753031.537 6  22119718.005    22119720.763
        17.000          16.250
 95  4 27 16 50 45.0010000  0  7G 2G16G18G19G27G29G31
                  -6740898.331 6  -5240170.857 6  22634605.403    22634609.567
        15.750          15.500
                    489970.227 3    381792.977 5  24538736.794    24538740.696
         6.000           7.000
                   9229737.517 6   7191996.687 6  22008600.794    22008604.192
        16.750          15.500
                   1240702.830 6    966778.266 6  20977049.763    20977052.587
        19.000          18.000
                  -5285995.416 6  -4118960.280 6  21512443.153    21512445.778
        18.000          20.250
                  13449845.801 5  10480385.647 5  24083763.536    24083768.696
         7.750           7.500
                    995745.438 6    775904.007 6  22125303.692    22125306.431
        17.000          16.250
 95  4 27 16 51  0.0010000  0  7G 2G16G18G19G27G29G31
                  -6753176.228 6  -5249738.041 6  22632269.177    22632273.392
        16.000          15.500
                    502886.510 3    391857.592 5  24541194.731    24541198.677
         6.000           7.250
                   9286501.492 6   7236228.325 6  22019402.606    22019406.075
        17.000          15.500
                   1258823.630 6    980898.362 6  20980497.919    20980500.856
        18.750          18.000
                  -5296396.790 6  -4127065.252 6  21510464.122    21510466.575
        18.000          20.250
                  13517520.196 5  10533118.847 5  24096641.411    24096646.751
         7.750           7.500
                   1025263.475 6    798905.062 6  22130920.810    22130923.470
        17.000          16.250
 95  4 27 16 51 15.0010000  0  7G 2G16G18G19G27G29G31
                  -6765381.115 6  -5259248.331 6  22629946.653    22629950.860
        16.000          15.500
                    515940.431 4    402029.466 5  24543678.755    24543682.759
         6.250           7.000
                   9343370.288 6   7280541.645 6  22030224.435    22030227.845
        17.000          15.500
                   1277017.645 6    995075.510 6  20983960.122    20983963.091
        18.750          18.000
                  -5306744.689 6  -4135128.552 6  21508494.802    21508497.513
        17.750          20.250
                  13585256.019 5  10585899.919 5  24109531.411    24109536.505
         7.750           7.500
                   1054938.860 6    822028.730 6  22136567.958    22136570.587
        17.000          16.250
 95  4 27 16 51 30.0010000  0  7G 2G16G18G19G27G29G31
                  -6777508.942 6  -5268698.580 6  22627638.763    22627643.091
        16.000          15.500
                    529133.824 4    412310.010 5  24546189.786    24546193.392
         6.250           7.000
                   9400340.101 6   7324933.681 6  22041065.567    22041069.036
        17.000          15.500
                   1295286.859 6   1009311.257 6  20987436.692    20987439.696
        18.500          18.000
                  -5317034.317 6  -4143146.445 6  21506536.708    21506539.427
        17.750          20.250
                  13653055.413 5  10638730.526 5  24122433.075    24122438.575
         7.500           7.500
                   1084776.545 6    845278.865 6  22142245.771    22142248.396
        17.000          16.250
 95  4 27 16 51 45.0010000  0  7G 2G16G18G19G27G29G31
                  -6789561.872 6  -5278090.467 6  22625345.028    22625349.392
        16.250          15.500
                    542464.048 4    422697.174 5  24548726.185    24548730.040
         6.250           7.000
                   9457410.685 6   7369404.235 6  22051925.622    22051929.153
        17.000          15.500
                   1313627.409 6   1023602.583 6  20990926.849    20990929.712
        18.750          18.000
                  -5327269.327 6  -4151121.786 6  21504589.099    21504591.790
        17.750          20.500
                  13720915.455 5  10691608.380 5  24135346.278    24135351.728
         7.500           7.500
                   1114781.798 6    868659.566 6  22147955.833    22147958.567
        17.250          16.250
 95  4 27 16 52  0.0010000  0  7G 2G16G18G19G27G29G31
                  -6801532.518 6  -5287418.237 6  22623067.106    22623071.341
        16.250          15.500
                    555934.090 4    433193.281 5  24551289.286    24551293.231
         6.250           7.000
                   9514586.673 6   7413956.918 6  22062805.903    22062809.368
        17.000          15.500
                   1332041.728 6   1037951.391 6  20994430.864    20994433.743
        18.750          17.750
                  -5337446.565 6  -4159052.109 6  21502652.521    21502655.114
        17.750          20.500
                  13788834.590 5  10744532.291 5  24148271.106    24148276.579
         7.500           7.250
                   1144960.823 6    892175.679 6  22153698.669    22153701.403
        17.000          16.250
 95  4 27 16 52 15.0010000  0  7G 2G16G18G19G27G29G31
                  -6813417.229 6  -5296679.045 6  22620805.583    22620809.735
        16.250          15.500
                    569541.860 3    443796.716 5  24553878.708    24553882.595
         6.000           7.000
                   9571869.439 6   7458592.806 6  22073706.497    22073709.923
        17.000          15.500
                   1350527.515 6   1052355.895 6  20997948.614    20997951.524
        18.750          18.000
                  -5347569.250 6  -4166939.916 6  21500725.974    21500728.771
        17.750          20.500
                  13856807.945 5  10797498.449 5  24161205.974    24161211.747
         7.500           7.250
                   1175309.768 6    915824.191 6  22159473.841    22159476.634
        17.000          16.250
 95  4 27 16 52 30.0010000  0  7G 2G16G18G19G27G29G31
                  -6825212.859 6  -5305870.438 6  22618561.013    22618565.044
        16.250          15.500
                    583285.664 3    454506.151 5  24556494.255    24556498.239
         6.000           7.000
                   9629258.199 6   7503311.290 6  22084627.278    22084630.657
        17.000          15.500
                   1369082.679 6   1066814.456 6  21001479.778    21001482.513
        18.750          18.000
                  -5357638.867 6  -4174786.372 6  21498809.958    21498812.501
        17.750          20.500
                  13924833.826 5  10850505.539 5  24174151.021    24174156.454
         7.500           7.250
                   1205826.865 6    939603.741 6  22165281.106    22165283.837
        17.000          16.250
 95  4 27 16 52 45.0010000  0  7G 2G16G18G19G27G29G31
                  -6836918.662 6  -5314991.837 6  22616333.396    22616337.415
        16.250          15.500
                    597163.937 3    465320.371 5  24559134.942    24559139.036
         6.000           7.000
                   9686752.016 6   7548111.640 6  22095567.974    22095571.376
        17.000          15.500
                   1387705.863 6   1081326.018 6  21005023.606    21005026.345
        19.000          18.000
                  -5367656.224 6  -4182592.108 6  21496903.747    21496906.454
        17.750          20.500
                  13992908.651 4  10903550.763 5  24187105.208    24187111.024
         7.250           7.000
                   1236511.160 6    963513.574 6  22171119.927    22171122.638
        17.000          16.250
 95  4 27 16 53  0.0010000  0  7G 2G16G18G19G27G29G31
                  -6848529.567 6  -5324039.287 6  22614123.950    22614127.966
        16.500          15.500
                    611180.104 3    476242.046 5  24561802.278    24561806.427
         6.000           7.000
                   9744351.367 6   7592994.217 6  22106528.849    22106532.212
        17.250          15.500
                   1406399.909 6   1095892.799 6  21008580.950    21008583.681
        19.000          17.750
                  -5377619.012 6  -4190355.327 6  21495007.786    21495010.505
        17.750          20.250
                  14061034.229 4  10956635.535 5  24200069.239    24200074.899
         7.250           7.000
                   1267363.423 6    987554.286 6  22176990.974    22176993.763
        17.000          16.250
 95  4 27 16 53 15.0010000  0  7G 2G16G18G19G27G29G31
                  -6860046.324 6  -5333013.378 6  22611932.271    22611936.349
        16.500          15.500
                    625334.341 3    487271.299 5  24564495.591    24564499.833
         6.000           6.750
                   9802052.969 6   7637956.472 6  22117509.114    22117512.431
        17.000          15.250
                   1425165.116 6   1110515.032 6  21012151.763    21012154.524
        19.000          18.000
                  -5387526.541 6  -4198075.485 6  21493122.606    21493125.212
        17.750          20.250
                  14129211.338 4  11009760.460 5  24213043.106    24213048.599
         7.000           7.000
                   1298381.602 6   1011724.281 6  22182893.685    22182896.407
        17.000          16.250
 95  4 27 16 53 30.0010000  0  7G 2G16G18G19G27G29G31
                  -6871474.211 6  -5341918.223 6  22609757.716    22609761.876
        16.500          15.500
                    639626.862 3    498408.303 5  24567215.481    24567219.513
         6.000           6.750
                   9859855.560 6   7682997.419 6  22128508.630    22128511.981
        17.000          15.000
                   1443999.948 6   1125191.513 6  21015736.247    21015738.954
        19.000          18.000
                  -5397380.693 6  -4205754.051 6  21491247.380    21491249.864
        17.750          20.250
                  14197440.231 4  11062925.740 5  24226026.310    24226032.063
         6.750           7.000
                   1329561.692 6   1036020.444 6  22188827.091    22188829.806
        17.250          16.250
 95  4 27 16 53 45.0010000  0  7G 2G16G18G19G27G29G31
                  -6882817.728 6  -5350757.317 6  22607599.106    22607603.192
        16.500          15.500
                    654057.635 4    509653.035 5  24569961.794    24569965.563
         6.250           6.750
                   9917760.764 6   7728118.326 6  22139527.575    22139530.950
        17.000          15.000
                   1462904.595 6   1139922.397 6  21019333.481    21019336.220
        19.250          18.000
                  -5407187.161 6  -4213395.456 6  21489381.200    21489383.767
        17.750          20.250
                  14265718.280 4  11116129.318 5  24239019.255    24239025.036
         6.750           6.750
                   1360902.367 6   1060441.738 6  22194791.036    22194793.911
        17.000          16.250
 95  4 27 16 54  0.0010000  0  7G 2G16G18G19G27G29G31
                  -6894073.047 6  -5359527.692 6  22605457.192    22605461.446
        16.500          15.500
                    668632.115 3    521009.756 5  24572735.036    24572739.454
         6.000           7.000
                   9975774.159 6   7773323.534 6  22150567.200    22150570.704
        17.000          15.000
                   1481882.213 6   1154710.140 6  21022944.849    21022947.798
        19.250          18.000
                  -5416943.066 6  -4220997.466 6  21487524.919    21487527.454
        18.000          20.250
                  14334047.000 4  11169372.375 5  24252022.075    24252027.677
         6.250           6.750
                   1392402.998 6   1084987.668 6  22200785.255    22200788.036
        17.000          16.250
 95  4 27 16 54 15.0010000  0  7G 2G16G18G19G27G29G31
                  -6905246.683 6  -5368234.415 6  22603331.005    22603335.173
        16.500          15.500
                    683343.521 3    532473.164 5  24575534.497    24575538.493
         6.000           6.750
                  10033887.591 6   7818606.694 6  22161625.755    22161629.110
        16.750          15.000
                   1500930.057 6   1169552.608 6  21026569.435    21026572.208
        19.000          18.000
                  -5426650.975 6  -4228562.072 6  21485677.567    21485680.028
        18.000          20.000
                  14402422.304 3  11222651.742 5  24265033.192    24265039.017
         6.000           6.500
                   1424054.241 6   1109650.962 6  22206808.224    22206811.024
        17.000          16.000
 95  4 27 16 54 30.0010000  0  7G 2G16G18G19G27G29G31
                  -6916343.452 6  -5376881.244 6  22601219.341    22601223.427
        16.500          15.500
                    698192.083 3    544043.449 5  24578359.966    24578364.103
         5.750           6.750
                  10092098.509 6   7863965.819 6  22172703.091    22172706.442
        16.750          14.750
                   1520048.178 6   1184449.837 6  21030207.544    21030210.497
        19.250          18.250
                  -5436311.397 6  -4236089.680 6  21483839.169    21483841.677
        18.000          20.000
                  14470843.456 3  11275966.825 5  24278053.560    24278059.286
         6.000           6.500
                   1455855.423 6   1134431.091 6  22212859.919    22212862.642
        17.000          16.000
 95  4 27 16 54 45.0010000  0  7G 2G16G18G19G27G29G31
                  -6927368.658 6  -5385472.303 6  22599121.208    22599125.337
        16.500          15.500
                    713175.149 3    555718.545 5  24581211.013    24581215.646
         5.750           6.750
                  10150402.648 6   7909397.582 6  22183797.872    22183801.290
        16.500          14.750
                   1539235.264 6   1199400.803 6  21033858.653    21033861.591
        19.250          18.000
                  -5445924.189 6  -4243580.173 6  21482010.044    21482012.501
        18.000          20.000
                  14539309.960 3  11329317.246 5  24291082.294    24291088.165
         6.000           6.250
                   1487806.471 6   1159328.005 6  22218940.036    22218942.821
        17.000          16.000
 95  4 27 16 55  0.0010000  0  7G 2G16G18G19G27G29G31
                  -6938324.801 6  -5394009.552 6  22597036.349    22597040.524
        16.500          15.500
                    728294.169 3    567499.581 5  24584088.114    24584092.782
         6.000           6.750
                  10208799.349 6   7954901.469 6  22194910.380    22194913.864
        16.500          14.750
                   1558492.261 6   1214406.248 6  21037523.169    21037526.161
        19.000          18.250
                  -5455486.945 6  -4251031.677 6  21480190.138    21480192.704
        18.250          20.000
                  14607821.446 4  11382702.719 5  24304119.567    24304125.552
         6.250           6.250
                   1519906.492 6   1184340.994 6  22225048.442    22225051.126
        17.000          15.750
 95  4 27 16 55 15.0010000  0  7G 2G16G18G19G27G29G31
                  -6949217.441 6  -5402497.322 6  22594963.497    22594967.571
        16.500          15.500
                    743545.566 4    579383.770 5  24586990.856    24586994.755
         6.250           6.750
                  10267282.333 6   8000472.593 6  22206039.364    22206042.962
        16.500          14.750
                   1577817.806 6   1229465.103 6  21041200.669    21041203.595
        19.250          18.250
                  -5465001.654 6  -4258445.738 6  21478379.403    21478381.958
        18.250          19.750
                  14676374.590 4  11436120.657 5  24317164.911    24317170.856
         6.250           6.000
                   1552152.309 6   1209467.591 6  22231184.474    22231187.204
        17.000          15.750
 95  4 27 16 55 30.0010000  0  7G 2G16G18G19G27G29G31
                  -6960043.005 6  -5410932.817 6  22592903.474    22592907.688
        16.500          15.500
                    758935.971 3    591376.276 5  24589919.411    24589923.626
         6.000           6.500
                  10325858.538 6   8046116.353 6  22217186.106    22217189.524
        16.250          14.500
                   1597220.606 6   1244584.162 6  21044893.161    21044896.165
        19.000          18.500
                  -5474463.766 6  -4265818.819 6  21476578.981    21476581.458
        18.250          19.750
                  14744975.034 4  11489575.459 5  24330219.536    24330225.060
         6.750           5.750
                   1584551.046 6   1234713.352 6  22237349.919    22237352.481
        17.000          15.750
 95  4 27 16 55 45.0010000  0  7G 2G16G18G19G27G29G31
                  -6970805.564 6  -5419319.216 6  22590855.396    22590859.583
        16.250          15.500
                    774459.851 3    603472.794 5  24592873.130    24592877.743
         6.000           6.750
                  10384522.512 6   8091828.505 6  22228349.450    22228352.806
        16.250          14.250
                   1616696.179 6   1259759.926 6  21048599.130    21048602.122
        19.250          18.500
                  -5483879.967 6  -4273156.129 6  21474787.294    21474789.708
        18.250          19.750
                  14813614.842 4  11543060.929 5  24343281.497    24343286.728
         6.750           5.750
                   1617097.787 6   1260074.437 6  22243543.325    22243545.833
        17.000          15.500
 95  4 27 16 56  0.0010000  0  7G 2G16G18G19G27G29G31
                  -6981500.611 6  -5427653.017 6  22588820.247    22588824.372
        16.500          15.500
                    790114.635 4    615671.312 5  24595852.411    24595856.810
         6.250           6.750
                  10443276.508 6   8137610.810 6  22239530.122    22239533.603
        16.250          14.250
                   1636246.205 6   1274993.704 6  21052319.435    21052322.345
        19.000          18.500
                  -5493247.413 6  -4280455.441 6  21473004.435    21473007.099
        18.250          19.750
                  14882292.384 4  11596575.801 5  24356350.474    24356355.610
         7.000           5.750
                   1649793.947 6   1285551.949 6  22249765.263    22249767.778
        17.000          15.500
 95  4 27 16 56 15.0010000  0  7G 2G16G18G19G27G29G31
                  -6992130.386 6  -5435935.949 6  22586797.396    22586801.735
        16.500          15.750
                    805898.521 4    627970.429 5  24598856.575    24598860.380
         6.250           6.750
                  10502118.177 6   8183461.420 6  22250727.278    22250730.669
        16.250          14.250
                   1655869.825 6   1290284.828 6  21056053.708    21056056.622
        19.000          18.750
                  -5502567.274 6  -4287717.676 6  21471231.247    21471233.622
        18.500          19.500
                  14951008.963 4  11650121.099 5  24369426.528    24369432.126
         7.000           5.750
                   1682636.213 6   1311143.310 6  22256015.044    22256017.563
        17.000          15.500
 95  4 27 16 56 30.0010000  0  7G 2G16G18G19G27G29G31
                  -7002695.831 6  -5444168.756 6  22584786.778    22584791.040
        16.500          15.750
                    821807.399 3    640366.928 5  24601883.099    24601887.845
         6.000           6.500
                  10561046.018 6   8229379.183 6  22261940.966    22261944.356
        16.250          14.250
                   1675565.989 6   1305632.482 6  21059801.450    21059804.552
        19.000          18.750
                  -5511842.528 6  -4294945.156 6  21469466.130    21469468.489
        18.750          19.500
                  15019762.189 4  11703694.955 5  24382510.075    24382515.466
         7.000           5.750
                   1715625.397 6   1336849.155 6  22262292.622    22262295.239
        17.250          15.500
 95  4 27 16 56 45.0010000  0  7G 2G16G18G19G27G29G31
                  -7013194.991 6  -5452349.912 6  22582788.989    22582793.165
        16.750          15.750
                    837843.329 3    652862.444 5  24604934.692    24604939.298
         5.750           6.500
                  10620062.947 6   8275366.363 6  22273171.442    22273174.923
        16.250          14.000
                   1695336.488 6   1321038.053 6  21063563.810    21063566.794
        19.000          18.500
                  -5521072.259 6  -4302137.162 6  21467709.825    21467712.274
        18.750          19.500
                  15088554.864 4  11757299.538 5  24395600.989    24395606.540
         6.750           6.000
                   1748764.002 6   1362671.431 6  22268598.661    22268601.177
        17.250          15.500
 95  4 27 16 57  0.0010000  0  7G 2G16G18G19G27G29G31
                  -7023624.483 6  -5460476.781 6  22580804.458    22580808.548
        16.500          15.750
                    854011.469 3    665460.978 5  24608011.419    24608015.731
         6.000           6.250
                  10679174.130 6   8321426.991 6  22284420.052    22284423.450
        16.250          14.000
                   1715185.867 6   1336505.093 6  21067341.044    21067344.126
        18.750          18.500
                  -5530251.388 6  -4309289.736 6  21465963.060    21465965.372
        18.750          19.250
                  15157393.228 4  11810939.732 5  24408700.591    24408706.481
         6.750           6.250
                   1782057.593 6   1388614.472 6  22274934.224    22274936.700
        17.000          15.250
 95  4 27 16 57 15.0010000  0  7G 2G16G18G19G27G29G31
                  -7033986.475 6  -5468551.050 6  22578832.450    22578836.649
        16.500          15.750
                    870307.312 3    678159.010 5  24611112.786    24611116.771
         6.000           6.250
                  10738374.550 6   8367557.152 6  22295685.192    22295688.731
        16.250          14.000
                   1735110.137 6   1352030.492 6  21071132.442    21071135.493
        18.750          18.750
                  -5539383.944 6  -4316406.023 6  21464225.255    21464227.356
        18.750          19.250
                  15226272.947 4  11864612.137 5  24421807.927    24421813.767
         6.750           6.250
                   1815503.475 6   1414676.180 6  22281298.708    22281301.130
        17.000          15.000
 95  4 27 16 57 30.0010000  0  7G 2G16G18G19G27G29G31
                  -7044277.338 6  -5476569.895 6  22576874.177    22576878.333
        16.750          15.750
                    886732.664 3    690957.968 5  24614238.567    24614242.392
         6.000           6.000
                  10797668.008 6   8413759.812 6  22306968.622    22306972.149
        16.000          14.000
                   1755110.125 6   1367614.886 6  21074938.458    21074941.517
        18.750          18.500
                  -5548469.480 6  -4323485.670 6  21462496.247    21462498.646
        18.750          19.500
                  15295197.269 4  11918319.287 5  24434923.435    24434929.790
         6.500           6.750
                   1849104.661 6   1440858.909 6  22287692.817    22287695.196
        17.000          15.000
 95  4 27 16 57 45.0010000  0  7G 2G16G18G19G27G29G31
                  -7054496.745 6  -5484533.066 6  22574929.435    22574933.606
        16.500          15.750
                    903284.758 4    703855.681 5  24617387.919    24617392.392
         6.250           6.250
                  10857054.716 6   8460035.130 6  22318269.528    22318273.106
        16.000          14.000
                   1775181.334 6   1383254.782 6  21078757.669    21078760.728
        18.750          18.250
                  -5557508.568 6  -4330529.123 6  21460776.247    21460778.599
        18.750          19.500
                  15364165.285 4  11972060.504 5  24448048.255    24448054.122
         6.500           6.750
                   1882859.548 6   1467161.396 6  22294116.075    22294118.368
        17.000          15.000
 95  4 27 16 58  0.0010000  0  7G 2G16G18G19G27G29G31
                  -7064647.231 6  -5492442.530 6  22572997.997    22573002.013
        16.750          16.000
                    919959.895 3    716849.283 5  24620561.021    24620565.481
         6.000           6.250
                  10916531.235 6   8506380.435 6  22329587.731    22329591.333
        16.250          14.000
                   1795318.292 6   1398945.912 6  21082589.646    21082592.665
        18.750          18.250
                  -5566502.430 6  -4337537.334 6  21459064.724    21459066.985
        18.500          19.250
                  15433173.051 4  12025832.680 5  24461179.919    24461186.173
         6.250           7.000
                   1916764.991 6   1493581.211 6  22300568.083    22300570.396
        17.000          15.000
 95  4 27 16 58 15.0010000  0  7G 2G16G18G19G27G29G31
                  -7074726.960 6  -5500296.854 6  22571079.716    22571083.833
        16.750          15.750
                    936763.939 4    729943.319 5  24623759.380    24623763.466
         6.250           6.500
                  10976103.839 6   8552800.611 6  22340923.919    22340927.470
        16.250          14.000
                   1815525.652 6   1414691.896 6  21086435.153    21086438.161
        18.750          18.250
                  -5575442.789 6  -4344503.853 6  21457363.450    21457365.806
        18.500          19.500
                  15502228.787 4  12079642.237 5  24474320.622    24474327.087
         6.250           7.000
                   1950826.950 6   1520122.978 6  22307049.935    22307052.321
        17.000          15.000
 95  4 27 16 58 30.0010000  0  7G 2G16G18G19G27G29G31
                  -7084741.538 6  -5508100.409 6  22569173.927    22569178.247
        16.500          15.500
                    953693.695 4    743135.323 5  24626980.513    24626985.177
         6.250           6.250
                  11035768.425 6   8599292.462 6  22352277.771    22352281.407
        16.000          13.250
                   1835798.785 6   1430489.133 6  21090292.911    21090295.884
        18.750          17.500
                  -5584331.916 6  -4351430.451 6  21455671.989    21455674.438
        18.500          18.750
                  15571328.751 3  12133486.254 5  24487469.646    24487476.333
         6.000           6.750
                   1985042.522 6   1546784.447 6  22313560.966    22313563.380
        17.000          14.250
 95  4 27 16 58 45.0010000  0  7G 2G16G18G19G27G29G31
                  -7094686.258 6  -5515849.529 6  22567281.646    22567285.899
        16.500          15.250
                    970753.624 4    756428.748 5  24630227.099    24630231.216
         6.250           6.000
                  11095529.942 6   8645859.848 6  22363650.044    22363653.532
        15.750          13.250
                   1856141.171 6   1446340.338 6  21094163.896    21094166.786
        18.750          17.250
                  -5593160.709 6  -4358310.035 6  21453991.786    21453994.251
        18.250          18.750
                  15640474.489 3  12187365.944 5  24500628.497    24500634.884
         6.000           6.750
                   2019417.587 6   1573570.198 6  22320102.341    22320104.603
        17.000          14.250
 95  4 27 16 59  0.0010000  0  7G 2G16G18G19G27G29G31
                  -7104567.350 6  -5523549.078 6  22565401.388    22565405.685
        16.750          15.500
                    987940.853 3    769821.371 5  24633497.505    24633501.708
         6.000           6.000
                  11155382.023 6   8692497.794 6  22375039.567    22375043.095
        15.750          13.250
                   1876546.326 6   1462240.447 6  21098047.091    21098049.978
        19.000          17.250
                  -5601933.929 6  -4365146.319 6  21452322.317    21452324.810
        18.250          18.750
                  15709658.341 3  12241275.325 5  24513793.528    24513800.399
         5.750           7.000
                   2053947.085 6   1600476.282 6  22326673.200    22326675.517
        17.000          14.250
 95  4 27 16 59 15.0010000  0  7G 2G16G18G19G27G29G31
                  -7114382.353 6  -5531197.121 6  22563533.606    22563537.915
        16.750          15.500
                   1005253.393 4    783311.646 5  24636792.013    24636796.438
         6.250           6.000
                  11215324.715 6   8739206.347 6  22386446.294    22386449.810
        16.000          13.250
                   1897010.363 6   1478186.439 6  21101941.044    21101943.888
        19.000          17.250
                  -5610651.027 6  -4371938.870 6  21450663.528    21450665.962
        18.250          19.000
                  15778877.661 3  12295212.350 5  24526965.427    24526971.989
         5.500           6.750
                   2088629.707 6   1627501.683 6  22333272.981    22333275.423
        16.750          14.250
 95  4 27 16 59 30.0010000  0  7G 2G16G18G19G27G29G31
                  -7124131.687 6  -5538793.992 6  22561678.247    22561682.583
        16.500          15.250
                   1022689.107 4    796897.885 5  24640110.200    24640114.614
         6.250           5.750
                  11275357.710 6   8785985.266 6  22397870.411    22397873.958
        15.750          13.000
                   1917531.577 6   1494176.984 6  21105846.122    21105849.052
        19.000          17.000
                  -5619312.316 6  -4378687.932 6  21449015.325    21449017.817
        18.250          18.500
                  15848130.560 3  12349175.537 5  24540144.435    24540150.849
         5.750           6.500
                   2123460.959 6   1654642.901 6  22339901.224    22339903.728
        16.750          14.000
 95  4 27 16 59 45.0010000  0  7G 2G16G18G19G27G29G31
                  -7133816.331 6  -5546340.459 6  22559835.169    22559839.501
        16.750          15.000
                   1040249.903 4    810581.595 5  24643451.630    24643456.067
         6.250           5.750
                  11335483.656 6   8832836.615 6  22409311.810    22409315.474
        15.750          12.750
                   1938109.845 6   1510211.989 6  21109762.122    21109765.063
        19.000          16.500
                  -5627916.150 6  -4385392.223 6  21447378.083    21447380.563
        18.500          18.250
                  15917417.784 3  12403165.467 5  24553328.911    24553335.806
         5.750           6.500
                   2158441.830 6   1681900.703 6  22346557.974    22346560.458
        16.750          13.750
 95  4 27 17  0  0.0010000  0  7G 2G16G18G19G27G29G31
                  -7143438.914 6  -5553838.563 6  22558004.177    22558008.521
        17.000          16.250
                   1057933.526 4    824361.022 5  24646816.974    24646821.200
         6.250           6.250
                  11395697.298 6   8879756.297 6  22420770.075    22420773.810
        15.750          13.750
                   1958743.826 6   1526290.408 6  21113688.700    21113691.688
        19.250          18.000
                  -5636464.112 6  -4392052.977 6  21445751.528    21445754.036
        18.750          19.750
                  15986737.144 3  12457180.441 5  24566519.919    24566526.931
         5.750           6.750
                   2193570.177 6   1709273.425 6  22353242.685    22353245.298
        17.000          15.000
 95  4 27 17  0 15.0010000  0  7G 2G16G18G19G27G29G31
                  -7152994.165 6  -5561284.203 6  22556185.864    22556190.192
        16.750          15.000
                   1075747.922 4    838242.333 5  24650206.911    24650211.013
         6.500           5.750
                  11456002.931 6   8926747.659 6  22432246.021    22432249.751
        15.750          13.000
                   1979440.775 6   1542417.890 6  21117627.208    21117630.099
        19.000          16.750
                  -5644951.620 6  -4398666.625 6  21444136.396    21444138.810
        18.500          18.500
                  16056092.345 3  12511223.337 5  24579717.989    24579724.646
         5.500           6.000
                   2228850.635 6   1736764.670 6  22359956.130    22359958.817
        16.750          14.000
 95  4 27 17  0 30.0010000  0  7G 2G16G18G19G27G29G31
                  -7162482.695 6  -5568677.855 6  22554380.435    22554384.638
        17.000          16.500
                   1093688.507 4    852221.979 5  24653620.896    24653625.411
         6.500           6.500
                  11516395.442 6   8973806.719 6  22443738.263    22443742.032
        15.750          14.000
                   2000194.856 6   1558589.887 6  21121576.630    21121579.501
        19.500          18.250
                  -5653385.648 6  -4405238.602 6  21442531.450    21442533.938
        18.750          20.250
                  16125478.524 3  12565290.373 5  24592921.849    24592928.892
         5.750           6.500
                   2264279.140 6   1764371.273 6  22366697.935    22366700.747
        16.750          15.000
 95  4 27 17  0 45.0010000  0  7G 2G16G18G19G27G29G31
                  -7171899.321 6  -5576015.475 6  22552588.411    22552592.599
        17.000          16.500
                   1111756.752 4    866301.102 5  24657058.856    24657063.474
         6.250           6.500
                  11576875.515 6   9020934.009 6  22455247.341    22455250.876
        15.750          14.000
                   2021009.854 6   1574809.359 6  21125537.583    21125540.446
        19.250          18.000
                  -5661765.466 6  -4411768.337 6  21440936.810    21440939.298
        18.750          20.250
                  16194894.848 3  12619380.907 5  24606131.411    24606138.560
         6.000           6.250
                   2299857.923 6   1792094.979 6  22373468.458    22373471.114
        16.750          15.000
 95  4 27 17  1  0.0010000  0  7G 2G16G18G19G27G29G31
                  -7181249.221 6  -5583301.105 6  22550809.192    22550813.427
        17.250          16.500
                   1129946.699 4    880475.055 5  24660520.450    24660524.966
         6.500           6.250
                  11637434.296 6   9068122.629 6  22466771.255    22466774.899
        15.750          14.000
                   2041880.583 6   1591072.247 6  21129509.208    21129512.142
        19.250          18.250
                  -5670101.457 6  -4418263.923 6  21439350.638    21439353.134
        18.750          20.250
                  16264336.130 3  12673490.885 5  24619345.685    24619352.642
         6.000           6.250
                   2335579.543 6   1819929.984 6  22380266.099    22380268.712
        16.750          15.000
 95  4 27 17  1 15.0010000  0  7G 2G16G18G19G27G29G31
                  -7190533.686 6  -5590535.739 6  22549042.435    22549046.657
        17.250          16.500
                   1148255.189 4    894741.395 5  24664004.638    24664009.067
         6.500           6.250
                  11698068.970 6   9115370.387 6  22478309.724    22478313.325
        15.750          14.000
                   2062806.733 6   1607378.329 6  21133491.161    21133494.079
        19.250          18.250
                  -5678396.835 6  -4424727.864 6  21437772.028    21437774.415
        18.750          20.250
                  16333803.407 4  12727621.122 5  24632565.325    24632572.067
         6.250           6.000
                   2371441.341 6   1847874.224 6  22387090.317    22387093.095
        16.750          15.000
 95  4 27 17  1 30.0010000  0  6G 2G16G18G19G27G31
                  -7199752.697 6  -5597719.380 6  22547288.208    22547292.353
        17.250          16.500
                   1166684.644 4    909101.988 5  24667511.677    24667516.095
         6.500           6.250
                  11758780.971 6   9162678.399 6  22489862.810    22489866.470
        15.500          13.750
                   2083792.509 6   1623730.871 6  21137484.763    21137487.755
        19.500          18.250
                  -5686650.703 6  -4431159.453 6  21436201.403    21436203.731
        18.750          20.250
                   2407443.292 6   1875927.672 6  22393941.560    22393944.360
        16.500          15.000
 95  4 27 17  1 45.0010000  0  6G 2G16G18G19G27G31
                  -7208904.351 6  -5604850.532 6  22545546.560    22545550.841
        17.250          16.500
                   1185238.153 4    923559.237 5  24671042.325    24671046.341
         6.750           6.250
                  11819570.945 6   9210047.169 6  22501430.700    22501434.438
        15.500          13.750
                   2104844.086 6   1640134.687 6  21141490.669    21141493.669
        19.000          18.250
                  -5694860.597 6  -4437556.783 6  21434639.028    21434641.458
        18.750          20.250
                   2443588.957 6   1904093.103 6  22400819.513    22400822.247
        16.500          15.000
 95  4 27 17  2  0.0010000  0  6G 2G16G18G19G27G31
                  -7217983.406 6  -5611925.114 6  22543818.942    22543823.294
        17.250          16.500
                   1203919.783 4    938116.334 5  24674597.544    24674602.134
         6.750           6.500
                  11880439.147 6   9257476.898 6  22513013.599    22513017.337
        15.500          13.750
                   2125966.425 6   1656593.645 6  21145510.216    21145513.239
        19.000          18.250
                  -5703024.423 6  -4443918.213 6  21433085.497    21433087.974
        18.750          20.500
                   2479882.439 6   1932373.714 6  22407726.122    22407728.876
        16.750          15.000
 95  4 27 17  2 15.0010000  0  6G 2G16G18G19G27G31
                  -7226992.428 6  -5618945.125 6  22542104.489    22542108.739
        17.250          16.750
                   1222724.614 4    952769.426 5  24678176.200    24678180.595
         6.750           6.500
                  11941380.434 6   9304963.577 6  22524610.442    22524614.271
        15.500          13.750
                   2147155.662 6   1673104.728 6  21149542.200    21149545.228
        19.000          18.250
                  -5711146.926 6  -4450247.442 6  21431539.864    21431542.298
        18.250          20.250
                   2516316.460 6   1960763.841 6  22414659.286    22414661.915
        16.750          15.000
 95  4 27 17  2 30.0010000  0  6G 2G16G18G19G27G31
                  -7235929.365 6  -5625908.962 6  22540403.950    22540408.110
        17.250          16.750
                   1241651.653 4    967517.740 5  24681777.583    24681781.884
         6.750           6.250
                  12002401.326 6   9352512.284 6  22536222.255    22536226.056
        15.250          13.750
                   2168413.790 6   1689669.496 6  21153587.567    21153590.618
        19.000          18.250
                  -5719225.449 6  -4456542.399 6  21430002.435    21430004.989
        18.250          20.500
                   2552893.123 6   1989265.115 6  22421619.521    22421622.278
        16.500          14.750
 95  4 27 17  2 45.0010000  0  6G 2G16G18G19G27G31
                  -7244793.780 6  -5632816.292 6  22538717.036    22538721.282
        17.500          17.000
                   1260702.716 4    982362.703 5  24685402.661    24685407.228
         6.750           6.500
                  12063506.034 6   9400126.298 6  22547850.146    22547853.938
        15.250          13.500
                   2189743.169 6   1706289.777 6  21157646.317    21157649.329
        18.750          18.250
                  -5727255.869 6  -4462799.876 6  21428474.356    21428476.899
        18.000          20.500
                   2589612.531 6   2017877.622 6  22428606.981    22428609.759
        16.500          15.000
 95  4 27 17  3  0.0010000  0  6G 2G16G18G19G27G31
                  -7253588.240 6  -5639669.115 6  22537043.591    22537047.888
        17.500          17.000
                   1279879.415 4    997305.553 5  24689052.411    24689056.962
         6.750           6.750
                  12124694.552 6   9447805.617 6  22559494.083    22559497.923
        15.250          13.500
                   2211145.145 6   1722966.630 6  21161719.052    21161722.216
        18.750          18.250
                  -5735233.725 6  -4469016.396 6  21426956.169    21426958.821
        18.000          20.500
                   2626474.093 6   2046600.887 6  22435621.591    22435624.438
        16.500          14.750
 95  4 27 17  3 15.0010000  0  6G 2G16G18G19G27G31
                  -7262307.239 6  -5646463.135 6  22535384.302    22535388.567
        17.500          17.000
                   1299188.191 4   1012351.332 5  24692726.521    24692730.899
         6.750           6.500
                  12185973.884 6   9495555.707 6  22571155.146    22571158.868
        15.250          13.500
                   2232624.598 6   1739703.856 6  21165806.458    21165809.513
        18.750          18.250
                  -5743151.544 6  -4475186.132 6  21425449.497    21425452.024
        17.750          20.500
                   2663481.454 6   2075437.776 6  22442663.833    22442666.673
        16.500          15.000
 95  4 27 17  3 30.0010000  0  6G 2G16G18G19G27G31
                  -7270952.162 6  -5653199.431 6  22533739.161    22533743.446
        17.750          17.000
                   1318629.102 4   1027500.067 5  24696426.138    24696430.356
         6.750           6.250
                  12247343.584 6   9543376.211 6  22582833.364    22582837.181
        15.250          13.250
                   2254178.664 6   1756499.220 6  21169908.005    21169911.052
        18.750          18.250
                  -5751008.044 6  -4481308.083 6  21423954.396    21423956.978
        17.750          20.750
                   2700633.477 6   2104387.384 6  22449733.646    22449736.423
        16.500          15.000
 95  4 27 17  3 45.0010000  0  6G 2G16G18G19G27G31
                  -7279526.376 6  -5659880.630 6  22532107.591    22532111.856
        17.750          17.000
                   1338197.459 4   1042748.116 5  24700150.130    24700153.981
         6.750           6.250
                  12308801.041 6   9591265.099 6  22594528.497    22594532.192
        15.250          13.250
                   2275803.116 6   1773349.431 6  21174023.021    21174025.931
        18.750          18.250
                  -5758805.817 6  -4487384.269 6  21422470.544    21422473.149
        17.500          20.750
                   2737927.376 6   2133447.544 6  22456830.419    22456833.251
        16.500          15.000
 95  4 27 17  4  0.0010000  0  6G 2G16G18G19G27G31
                  -7288028.912 6  -5666505.976 6  22530489.583    22530493.849
        17.750          17.000
                   1357892.005 4   1058094.491 5  24703897.356    24703902.032
         6.750           6.250
                  12370346.824 6   9639222.810 6  22606240.341    22606243.974
        15.500          13.000
                   2297497.594 6   1790254.210 6  21178151.380    21178154.388
        19.000          18.250
                  -5766543.848 6  -4493413.907 6  21420997.903    21421000.552
        17.250          21.000
                   2775363.463 6   2162618.503 6  22463954.310    22463957.122
        16.500          15.000
 95  4 27 17  4 15.0010000  0  6G 2G16G18G19G27G31
                  -7296457.773 6  -5673073.910 6  22528885.614    22528889.798
        17.750          17.000
                   1377717.509 4   1073542.906 5  24707670.185    24707674.634
         6.750           6.500
                  12431984.530 6   9687252.157 6  22617969.661    22617973.192
        15.500          13.000
                   2319262.401 6   1807213.790 6  21182293.028    21182296.048
        19.000          18.250
                  -5774218.126 6  -4499393.868 6  21419537.567    21419540.212
        17.500          21.000
                   2812944.470 6   2191902.386 6  22471105.591    22471108.454
        16.500          15.000
 95  4 27 17  4 30.0020000  0  6G 2G16G18G19G27G31
                  -7304818.665 6  -5679588.887 6  22527294.650    22527298.873
        17.750          16.750
                   1397671.227 4   1089091.232 5  24711467.307    24711471.916
         7.000           6.750
                  12493715.317 6   9735354.031 6  22629716.533    22629720.182
        15.250          12.750
                   2341095.528 6   1824226.602 6  21186447.939    21186450.967
        19.000          18.000
                  -5781833.519 6  -4505327.946 6  21418088.252    21418091.018
        17.250          21.000
                   2850669.272 6   2221298.314 6  22478284.713    22478287.521
        16.500          14.750
 95  4 27 17  4 45.0020000  0  6G 2G16G18G19G27G31
                  -7313108.102 6  -5686048.182 6  22525717.338    22525721.518
        17.750          17.000
                   1417758.860 4   1104743.907 5  24715289.549    24715294.443
         6.500           6.250
                  12555533.457 6   9783523.970 6  22641480.174    22641483.697
        15.250          12.750
                   2362999.791 6   1841294.844 6  21190616.049    21190619.119
        19.000          18.250
                  -5789383.998 6  -4511211.439 6  21416651.611    21416654.271
        17.750          21.000
                   2888538.897 6   2250807.092 6  22485491.018    22485493.756
        16.500          14.750
 95  4 27 17  5  0.0020000  0  6G 2G16G18G19G27G31
                  -7321322.459 6  -5692448.980 6  22524153.971    22524158.002
        18.000          17.000
                   1437987.267 4   1120506.275 5  24719138.908    24719143.740
         6.250           6.250
                  12617441.749 6   9831764.155 6  22653260.955    22653264.611
        15.250          12.750
                   2384983.080 6   1858424.661 6  21194799.400    21194802.518
        19.000          18.250
                  -5796864.543 6  -4517040.440 6  21415228.260    21415230.908
        17.750          21.250
                   2926561.617 6   2280435.162 6  22492726.377    22492729.193
        16.500          14.750
 95  4 27 17  5 15.0020000  0  6G 2G16G18G19G27G31
                  -7329462.781 6  -5698792.080 6  22522604.877    22522608.916
        17.750          16.750
                   1458350.495 3   1136373.702 5  24723013.869    24723018.900
         6.000           6.500
                  12679435.216 6   9880070.715 6  22665057.893    22665061.584
        15.250          12.750
                   2407043.535 6   1875614.614 6  21198997.291    21199000.291
        19.250          18.250
                  -5804282.144 6  -4522820.392 6  21413816.760    21413819.400
        17.750          21.250
                   2964737.429 6   2310182.531 6  22499990.900    22499993.736
        16.500          14.750
 95  4 27 17  5 30.0020000  0  6G 2G16G18G19G27G31
                  -7337529.159 6  -5705077.564 6  22521069.924    22521073.959
        17.750          16.750
                   1478844.507 3   1152343.040 5  24726913.893    24726918.928
         6.000           6.500
                  12741514.824 6   9928444.387 6  22676871.260    22676874.936
        15.250          12.500
                   2429181.608 6   1892865.044 6  21203210.275    21203213.178
        19.250          18.000
                  -5811638.690 6  -4528552.774 6  21412416.775    21412419.443
        18.000          21.250
                   3003066.462 6   2340049.295 6  22507284.596    22507287.334
        16.500          14.750
 95  4 27 17  5 45.0020000  0  6G 2G16G18G19G27G31
                  -7345518.661 6  -5711303.144 6  22519549.541    22519553.752
        17.750          17.000
                   1499472.810 4   1168417.006 5  24730839.361    24730844.092
         6.250           6.250
                  12803683.688 6   9976887.618 6  22688701.604    22688705.338
        15.000          12.500
                   2451401.393 6   1910179.151 6  21207438.400    21207441.373
        19.250          18.250
                  -5818930.434 6  -4534234.657 6  21411029.361    21411031.986
        18.250          21.250
                   3041553.747 6   2370039.379 6  22514608.830    22514611.459
        16.500          14.750
 95  4 27 17  6  0.0020000  0  6G 2G16G18G19G27G31
                  -7353428.630 6  -5717466.751 6  22518044.416    22518048.576
        17.750          17.000
                   1520237.431 4   1184597.214 5  24734790.783    24734795.135
         6.250           6.000
                  12865941.475 6  10025400.135 6  22700548.893    22700552.643
        15.000          12.500
                   2473707.330 6   1927560.386 6  21211683.127    21211686.096
        19.250          18.000
                  -5826156.313 6  -4539865.218 6  21409654.283    21409656.885
        18.500          21.500
                   3080200.717 6   2400153.885 6  22521963.072    22521965.701
        16.500          14.750
 95  4 27 17  6 15.0020000  0  6G 2G16G18G19G27G31
                  -7361257.137 6  -5723566.882 6  22516554.643    22516558.912
        17.750          16.750
                   1541139.848 4   1200884.781 5  24738768.314    24738772.893
         6.250           6.000
                  12928285.947 6  10073980.194 6  22712412.713    22712416.389
        15.000          12.500
                   2496099.085 6   1945008.492 6  21215944.080    21215947.053
        19.250          18.000
                  -5833316.530 6  -4545444.614 6  21408291.752    21408294.420
        18.500          21.500
                   3119006.994 6   2430392.531 6  22529347.588    22529350.326
        16.500          14.750
 95  4 27 17  6 30.0020000  0  6G 2G16G18G19G27G31
                  -7369000.369 6  -5729600.564 6  22515081.166    22515085.330
        17.750          17.000
                   1562181.324 4   1217280.709 5  24742772.713    24742776.963
         6.250           6.000
                  12990720.709 6  10122630.612 6  22724293.635    22724297.514
        14.750          12.500
                   2518578.761 6   1962525.113 6  21220221.807    21220224.869
        19.250          18.000
                  -5840408.766 6  -4550971.034 6  21406942.072    21406944.643
        18.750          21.250
                   3157976.457 6   2460758.338 6  22536763.221    22536766.072
        16.500          14.750
 95  4 27 17  6 45.0020000  0  6G 2G16G18G19G27G31
                  -7376655.705 6  -5735565.752 6  22513624.322    22513628.533
        17.750          17.000
                   1583361.262 4   1233784.523 5  24746803.322    24746807.494
         6.250           6.000
                  13053248.512 6  10171353.533 6  22736192.346    22736196.084
        14.750          12.500
                   2541151.183 6   1980113.996 6  21224517.268    21224520.189
        19.250          18.250
                  -5847429.715 6  -4556441.912 6  21405606.072    21405608.627
        18.750          21.250
                   3197112.406 6   2491253.871 6  22544210.494    22544213.283
        16.500          14.750
 95  4 27 17  7  0.0020000  0  6G 2G16G18G19G27G31
                  -7384222.490 6  -5741461.938 6  22512184.330    22512188.592
        17.750          16.750
                   1604676.973 3   1250394.136 5  24750858.986    24750863.811
         6.000           6.250
                  13115871.295 6  10220150.471 6  22748109.150    22748112.939
        14.750          12.250
                   2563817.492 6   1997776.051 6  21228830.518    21228833.529
        19.250          18.250
                  -5854376.327 6  -4561854.857 6  21404284.268    21404286.830
        18.750          21.250
                   3236416.316 6   2521880.294 6  22551689.791    22551692.717
        16.500          14.750
 95  4 27 17  7 15.0020000  0  6G 2G16G18G19G27G31
                  -7391693.361 6  -5747283.390 6  22510762.604    22510766.904
        17.750          17.000
                   1626131.622 3   1267112.017 5  24754941.666    24754946.736
         5.750           6.250
                  13178596.221 6  10269026.995 6  22760045.072    22760048.744
        14.750          12.250
                   2586581.837 6   2015514.492 6  21233162.377    21233165.377
        19.250          18.250
                  -5861244.001 6  -4567206.296 6  21402977.447    21402980.021
        18.750          21.250
                   3275893.578 6   2552641.789 6  22559202.080    22559205.049
        16.500          14.750
 95  4 27 17  7 30.0020000  0  6G 2G16G18G19G27G31
                  -7399067.237 6  -5753029.258 6  22509359.486    22509363.775
        17.750          17.000
                   1647728.592 3   1283940.792 5  24759051.752    24759056.291
         5.750           6.000
                  13241425.827 6  10317985.089 6  22772001.330    22772005.033
        14.750          12.250
                   2609442.652 6   2033328.100 6  21237512.697    21237515.873
        19.000          18.250
                  -5868032.274 6  -4572495.863 6  21401685.549    21401688.107
        18.750          21.250
                   3315544.885 6   2583538.905 6  22566747.510    22566750.467
        16.500          15.000
 95  4 27 17  7 45.0020000  0  6G 2G16G18G19G27G31
                  -7406342.179 6  -5758698.040 6  22507975.158    22507979.357
        17.750          17.000
                   1669475.992 3   1300886.781 5  24763189.932    24763194.600
         5.750           6.000
                  13304361.581 6  10367025.895 6  22783977.580    22783981.436
        14.750          12.250
                   2632402.660 6   2051219.002 6  21241881.822    21241885.057
        19.000          18.500
                  -5874735.641 6  -4577719.276 6  21400409.955    21400412.490
        18.750          21.000
                   3355373.385 6   2614574.092 6  22574326.768    22574329.596
        16.500          15.000
 95  4 27 17  8  0.0020000  0  6G 2G16G18G19G27G31
                  -7413521.742 6  -5764292.494 6  22506609.025    22506613.002
        18.000          16.750
                   1691373.835 3   1317950.002 5  24767356.979    24767361.834
         5.750           6.000
                  13367399.510 6  10416146.313 6  22795973.400    22795977.236
        14.500          12.250
                   2655460.344 6   2069186.018 6  21246269.502    21246272.736
        19.000          18.500
                  -5881359.155 6  -4582880.460 6  21399149.533    21399152.080
        18.750          21.000
                   3395376.613 6   2645745.438 6  22581939.041    22581941.951
        16.500          15.000
 95  4 27 17  8 15.0020000  0  6G 2G16G18G19G27G31
                  -7420603.104 6  -5769810.432 6  22505261.307    22505265.518
        17.750          16.750
                   1713422.004 3   1335130.362 5  24771552.768    24771557.564
         6.000           6.000
                  13430542.875 6  10465348.890 6  22807989.096    22807992.932
        14.250          12.250
                   2678616.458 6   2087229.734 6  21250676.010    21250679.256
        19.000          18.500
                  -5887900.457 6  -4587977.586 6  21397904.822    21397907.342
        18.750          21.000
                   3435555.517 6   2677053.668 6  22589584.838    22589587.709
        16.500          15.000
 95  4 27 17  8 30.0020000  0  6G 2G16G18G19G27G31
                  -7427582.055 6  -5775248.568 6  22503933.307    22503937.412
        18.000          16.750
                   1735625.451 3   1352431.729 5  24775778.291    24775782.869
         6.000           6.000
                  13493802.477 6  10514642.040 6  22820027.072    22820030.967
        14.250          12.250
                   2701876.829 6   2105354.689 6  21255102.283    21255105.557
        18.750          18.250
                  -5894353.051 6  -4593005.583 6  21396676.916    21396679.475
        18.750          21.000
                   3475915.927 6   2708503.332 6  22597265.150    22597268.080
        16.500          15.000
 95  4 27 17  8 45.0020000  0  6G 2G16G18G19G27G31
                  -7434463.158 6  -5780610.454 6  22502623.994    22502628.064
        18.000          16.750
                   1757981.831 3   1369852.264 5  24780032.314    24780037.080
         6.000           6.000
                  13557174.849 6  10564023.066 6  22832086.674    22832090.475
        14.500          12.250
                   2725240.109 6   2123559.836 6  21259548.268    21259551.459
        18.750          18.750
                  -5900718.031 6  -4597965.311 6  21395465.705    21395468.143
        18.750          21.000
                   3516455.127 6   2740092.324 6  22604979.604    22604982.455
        16.500          15.000
 95  4 27 17  9  0.0020000  0  6G 2G16G18G19G27G31
                  -7441243.334 6  -5785893.699 6  22501333.650    22501337.768
        18.000          16.750
                   1780496.249 3   1387395.945 5  24784316.721    24784321.479
         6.000           6.000
                  13620662.068 6  10613493.587 6  22844167.932    22844171.646
        14.500          12.250
                   2748710.158 6   2141848.175 6  21264014.322    21264017.529
        19.000          18.750
                  -5906991.934 6  -4602854.068 6  21394271.838    21394274.357
        18.750          21.000
                   3557174.366 6   2771821.600 6  22612728.205    22612731.143
        16.500          15.000
 95  4 27 17  9 15.0020000  0  6G 2G16G18G19G27G31
                  -7447919.137 6  -5791095.620 6  22500063.229    22500067.295
        18.000          16.750
                   1803173.478 3   1405066.470 5  24788632.314    24788636.822
         6.000           6.000
                  13684266.369 6  10663055.332 6  22856271.439    22856275.146
        14.500          12.000
                   2772286.680 6   2160219.483 6  21268500.877    21268504.025
        19.000          18.750
                  -5913173.914 6  -4607671.202 6  21393095.494    21393098.029
        18.750          21.000
                   3598072.680 6   2803690.410 6  22620510.807    22620513.771
        16.500          15.000
 95  4 27 17  9 30.0020000  0  6G 2G16G18G19G27G31
                  -7454481.314 6  -5796208.998 6  22498814.502    22498818.584
        18.000          16.750
                   1826023.813 3   1422871.905 5  24792980.439    24792985.119
         6.000           6.250
                  13747993.515 6  10712712.806 6  22868398.252    22868402.018
        14.500          12.000
                   2795975.854 6   2178678.569 6  21273008.830    21273011.920
        19.000          18.750
                  -5919256.092 6  -4612410.565 6  21391938.057    21391940.525
        18.750          21.000
                   3639155.823 6   2835703.247 6  22628328.721    22628331.549
        16.500          14.750
 95  4 27 17  9 45.0020000  0  6G 2G16G18G19G27G31
                  -7460932.612 6  -5801235.977 6  22497586.814    22497590.959
        18.000          16.750
                   1849044.685 3   1440810.221 5  24797361.158    24797366.146
         6.000           6.250
                  13811841.925 6  10762464.768 6  22880548.221    22880552.053
        14.250          12.000
                   2819777.532 6   2197225.326 6  21277538.158    21277541.193
        19.000          18.750
                  -5925238.614 6  -4617072.272 6  21390799.666    21390802.236
        18.750          21.250
                   3680421.392 6   2867858.241 6  22636181.205    22636184.111
        16.250          14.750
 95  4 27 17 10  0.0020000  0  6G 2G16G18G19G27G31
                  -7467268.958 6  -5806173.380 6  22496381.025    22496385.154
        18.000          16.750
                   1872237.136 3   1458882.241 5  24801774.525    24801779.736
         6.000           6.250
                  13875817.401 6  10812315.744 6  22892722.377    22892726.240
        14.250          12.000
                   2843696.278 6   2215863.302 6  21282089.689    21282092.822
        19.000          18.750
                  -5931115.226 6  -4621651.452 6  21389681.166    21389683.658
        18.750          21.250
                   3721869.431 6   2900155.408 6  22644068.596    22644071.475
        16.250          14.750
 95  4 27 17 10 15.0020000  0  6G 2G16G18G19G27G31
                  -7473479.609 6  -5811012.844 6  22495199.182    22495203.291
        18.000          16.750
                   1895607.124 3   1477092.591 5  24806221.666    24806226.229
         6.000           6.250
                  13939930.813 6  10862274.198 6  22904922.791    22904926.650
        14.250          12.000
                   2867738.898 6   2234597.804 6  21286664.947    21286668.053
        19.250          18.750
                  -5936875.654 6  -4626140.101 6  21388585.221    21388587.713
        19.000          21.250
                   3763507.201 6   2932600.425 6  22651992.072    22651994.748
        16.250          14.500
 95  4 27 17 10 30.0020000  0  6G 2G16G18G19G27G31
                  -7479561.262 6  -5815751.785 6  22494041.916    22494045.963
        18.000          16.750
                   1919154.377 3   1495441.072 5  24810702.689    24810707.225
         6.000           6.000
                  14004184.720 6  10912342.131 5  22917150.088    22917153.963
        14.250          11.750
                   2891907.141 6   2253430.194 6  21291264.080    21291267.131
        19.250          18.750
                  -5942515.200 6  -4630534.553 6  21387511.947    21387514.400
        19.000          21.250
                   3805336.395 6   2965194.607 6  22659951.705    22659954.475
        16.250          14.500
 95  4 27 17 10 45.0020000  0  6G 2G16G18G19G27G31
                  -7485521.978 6  -5820396.489 6  22492907.627    22492911.775
        18.000          16.750
                   1942873.509 3   1513923.489 5  24815216.135    24815220.846
         5.750           6.000
                  14068569.013 6  10962511.662 5  22929401.799    22929405.686
        14.250          11.750
                   2916194.146 6   2272355.125 6  21295885.689    21295888.678
        19.250          18.750
                  -5948042.105 6  -4634841.233 6  21386460.213    21386462.662
        19.000          21.250
                   3847351.937 6   2997933.990 6  22667947.033    22667950.002
        16.250          14.250
 95  4 27 17 11  0.0020000  0  6G 2G16G18G19G27G31
                  -7491353.373 6  -5824940.424 6  22491797.994    22491802.061
        18.000          16.750
                   1966773.090 3   1532546.529 5  24819764.252    24819768.729
         5.750           6.000
                  14133089.803 6  11012787.563 5  22941679.783    22941683.646
        14.000          11.750
                   2940606.476 6   2291377.715 6  21300531.104    21300534.252
        19.250          18.750
                  -5953449.279 6  -4639054.616 6  21385431.260    21385433.646
        19.250          21.250
                   3889559.263 6   3030822.823 6  22675978.791    22675981.455
        16.250          14.250
 95  4 27 17 11 15.0020000  0  6G 2G16G18G19G27G31
                  -7497050.581 6  -5829379.798 6  22490713.705    22490717.799
        18.000          16.750
                   1990856.656 3   1551312.916 5  24824347.299    24824351.779
         5.750           6.000
                  14197751.672 6  11063173.389 5  22953984.596    22953988.330
        14.000          11.500
                   2965146.911 6   2310500.129 6  21305201.080    21305204.213
        19.250          18.750
                  -5958733.754 6  -4643172.391 6  21384425.775    21384428.053
        19.250          21.250
                   3931961.268 6   3063863.351 6  22684047.580    22684050.268
        16.250          14.250
 95  4 27 17 11 30.0020000  0  6G 2G16G18G19G27G31
                  -7502609.843 6  -5833711.682 6  22489655.861    22489659.959
        18.000          16.750
                   2015126.607 3   1570224.548 5  24828965.439    24828970.533
         5.750           6.250
                  14262554.787 6  11113669.278 5  22966316.229    22966320.217
        14.000          11.500
                   2989819.610 6   2329725.597 6  21309896.041    21309899.244
        19.000          18.750
                  -5963891.508 6  -4647191.420 6  21383444.189    21383446.545
        19.250          21.250
                   3974561.397 6   3097058.259 6  22692154.205    22692156.885
        16.250          14.250
 95  4 27 17 11 45.0020000  0  6G 2G16G18G19G27G31
                  -7508033.900 6  -5837938.215 6  22488623.775    22488627.732
        18.000          16.750
                   2039579.021 3   1589278.355 5  24833619.096    24833623.779
         6.000           6.250
                  14327497.920 6  11164274.271 5  22978674.541    22978678.490
        14.000          11.500
                   3014625.815 6   2349055.104 6  21314616.674    21314619.803
        19.000          18.750
                  -5968922.267 6  -4651111.497 6  21382487.072    21382489.447
        19.500          21.250
                   4017360.881 6   3130408.509 6  22700298.783    22700301.338
        16.250          14.000
 95  4 27 17 12  0.0020000  0  6G 2G16G18G19G27G31
                  -7513326.711 6  -5842062.481 6  22487616.424    22487620.514
        18.000          16.750
                   2064208.924 3   1608470.463 5  24838305.760    24838310.674
         5.750           6.500
                  14392577.642 6  11214985.693 5  22991058.900    22991062.795
        14.000          11.500
                   3039563.600 6   2368487.136 6  21319362.033    21319365.182
        19.000          18.750
                  -5973829.096 6  -4654935.003 6  21381553.197    21381555.596
        19.250          21.000
                   4060357.107 6   3163912.063 6  22708480.549    22708483.174
        16.250          14.000
 95  4 27 17 12 15.0020000  0  6G 2G16G18G19G27G31
                  -7518486.648 6  -5846083.206 6  22486634.510    22486638.639
        18.000          17.000
                   2089017.805 3   1627802.034 5  24843026.768    24843031.549
         5.750           6.250
                  14457794.261 6  11265803.791 5  23003469.080    23003473.111
        14.000          11.500
                   3064633.022 6   2388021.747 6  21324132.596    21324135.752
        19.000          18.750
                  -5978611.117 6  -4658661.257 6  21380643.244    21380645.537
        19.250          21.000
                   4103551.215 6   3197569.813 6  22716700.299    22716702.873
        16.250          14.000
 95  4 27 17 12 30.0020000  0  6G 2G16G18G19G27G31
                  -7523509.499 6  -5849997.112 6  22485678.760    22485682.674
        18.000          17.000
                   2114010.833 3   1647277.090 5  24847782.705    24847787.619
         5.500           6.250
                  14523151.562 6  11316731.513 5  23015906.189    23015910.232
        13.750          11.500
                   3089841.031 6   2407664.340 6  21328929.518    21328932.678
        19.000          18.750
                  -5983264.633 6  -4662287.376 6  21379757.572    21379759.959
        19.000          20.750
                   4146953.741 6   3231389.963 6  22724959.510    22724962.006
        16.250          14.000
 95  4 27 17 12 45.0020000  0  6G 2G16G18G19G27G31
                  -7528399.658 6  -5853807.623 6  22484748.314    22484752.170
        18.250          17.000
                   2139187.316 3   1666895.102 5  24852573.846    24852578.787
         5.750           6.500
                  14588645.504 6  11367765.704 5  23028369.314    23028373.396
        13.750          11.500
                   3115188.408 6   2427415.541 6  21333752.932    21333756.092
        19.000          18.750
                  -5987792.313 6  -4665815.439 6  21378896.033    21378898.385
        19.000          20.500
                   4190563.197 6   3265371.357 6  22733257.986    22733260.506
        16.250          14.000
 95  4 27 17 13  0.0020000  0  6G 2G16G18G19G27G31
                  -7533151.248 6  -5857510.156 6  22483844.049    22483847.877
        18.250          17.000
                   2164554.805 3   1686661.947 5  24857400.807    24857405.775
         5.250           6.250
                  14654280.186 6  11418909.561 5  23040859.275    23040863.354
        13.750          11.500
                   3140680.759 6   2447279.704 6  21338603.955    21338607.135
        19.000          18.750
                  -5992187.945 6  -4669240.608 6  21378059.549    21378061.896
        19.000          20.500
                   4234383.132 6   3299516.766 6  22741596.682    22741599.264
        16.000          13.750
 95  4 27 17 13 15.0020000  0  6G 2G16G18G19G27G31
                  -7537770.643 6  -5861109.677 6  22482965.010    22482969.049
        18.250          17.000
                   2190103.756 3   1706570.194 5  24862262.939    24862267.795
         5.250           6.250
                  14720047.072 6  11470156.441 5  23053374.283    23053378.393
        13.750          11.250
                   3166311.657 6   2467251.834 6  21343481.533    21343484.721
        19.000          18.500
                  -5996457.342 6  -4672567.414 6  21377247.111    21377249.482
        18.750          20.250
                   4278406.770 6   3333820.906 6  22749974.080    22749976.592
        16.000          14.000
 95  4 27 17 13 30.0020000  0  6G 2G16G18G19G27G31
                  -7542260.920 6  -5864608.588 6  22482110.463    22482114.412
        18.250          17.000
                   2215830.779 3   1726617.194 5  24867157.979    24867163.475
         5.250           6.250
                  14785942.504 6  11521503.482 5  23065914.010    23065917.979
        13.500          11.250
                   3192080.471 6   2487331.419 6  21348384.939    21348388.275
        19.000          18.750
                  -6000602.361 6  -4675797.302 6  21376458.486    21376460.779
        18.750          20.250
                   4322634.582 6   3368284.132 6  22758390.150    22758392.982
        16.000          14.000
 95  4 27 17 13 45.0020000  0  6G 2G16G18G19G27G31
                  -7546619.792 6  -5868005.104 6  22481280.932    22481284.920
        18.250          17.000
                   2241741.231 3   1746807.133 5  24872089.244    24872094.080
         5.750           6.500
                  14851971.763 6  11572954.809 5  23078478.783    23078482.947
        13.500          11.500
                   3217991.691 6   2507521.978 6  21353315.838    21353319.041
        19.000          18.750
                  -6004618.583 6  -4678926.825 6  21375693.947    21375696.412
        18.750          20.250
                   4367074.681 6   3402912.783 6  22766846.916    22766849.604
        16.000          14.000
 95  4 27 17 14  0.0020000  0  6G 2G16G18G19G27G31
                  -7550848.235 6  -5871299.987 6  22480476.369    22480480.303
        18.500          17.000
                   2267835.837 3   1767140.562 5  24877054.838    24877059.885
         5.750           6.250
                  14918138.734 6  11624513.439 5  23091069.963    23091074.236
        13.250          11.500
                   3244046.506 6   2527824.426 6  21358273.760    21358277.025
        19.000          18.750
                  -6008506.906 6  -4681956.691 6  21374954.221    21374956.521
        18.750          20.250
                   4411727.798 6   3437707.417 6  22775344.080    22775346.787
        16.000          14.000
 95  4 27 17 14 15.0020000  0  6G 2G16G18G19G27G31
                  -7554949.416 6  -5874495.705 6  22479695.971    22479699.947
        18.500          17.250
                   2294113.746 3   1787616.830 5  24882055.393    24882060.248
         5.750           6.250
                  14984438.932 6  11676175.882 5  23103686.463    23103690.701
        13.250          11.500
                   3270237.815 6   2548233.237 6  21363257.885    21363261.053
        19.000          18.500
                  -6012272.053 6  -4684890.571 6  21374237.635    21374240.057
        18.750          20.000
                   4456588.417 6   3472663.748 6  22783880.971    22783883.498
        16.000          14.000
 95  4 27 17 14 30.0020000  0  6G 2G16G18G19G27G31
                  -7558919.142 6  -5877588.992 6  22478940.549    22478944.611
        18.500          17.250
                   2320580.216 3   1808240.033 5  24887091.783    24887096.662
         6.000           6.000
                  15050876.002 6  11727944.977 5  23116329.072    23116333.510
        13.250          11.750
                   3296569.217 6   2568751.208 6  21368268.580    21368271.787
        19.000          18.750
                  -6015912.456 6  -4687727.251 6  21373544.971    21373547.334
        18.750          20.000
                   4501660.350 6   3507784.734 6  22792457.658    22792460.389
        15.750          14.000
 95  4 27 17 14 45.0020000  0  6G 2G16G18G19G27G31
                  -7562766.930 6  -5880587.253 6  22478208.260    22478212.432
        18.250          17.250
                   2347226.546 3   1829003.379 5  24892162.447    24892167.061
         6.000           6.000
                  15117437.845 6  11779811.302 5  23128995.354    23128999.803
        13.250          11.750
                   3323034.352 6   2589373.390 6  21373304.658    21373307.838
        18.750          18.750
                  -6019438.344 6  -4690474.701 6  21372873.947    21372876.244
        18.750          20.000
                   4546930.755 6   3543060.374 6  22801072.557    22801075.283
        15.750          14.000
 95  4 27 17 15  0.0020000  0  6G 2G16G18G19G27G31
                  -7566488.770 6  -5883487.383 6  22477499.932    22477504.104
        18.500          17.250
                   2374055.747 3   1849909.208 5  24897267.721    24897272.479
         6.000           6.000
                  15184126.370 6  11831776.334 5  23141685.877    23141690.229
        13.250          11.500
                   3349633.653 6   2610100.117 6  21378366.393    21378369.646
        19.000          18.750
                  -6022848.213 6  -4693131.742 6  21372224.994    21372227.271
        19.000          20.000
                   4592398.427 6   3578489.729 6  22809724.463    22809727.197
        15.750          13.750
 95  4 27 17 15 15.0020000  0  6G 2G16G18G19G27G31
                  -7570089.081 6  -5886292.806 6  22476814.799    22476818.994
        18.500          17.250
                   2401060.427 3   1870951.789 5  24902406.697    24902411.209
         6.000           6.000
                  15250937.500 6  11883836.903 5  23154399.611    23154403.959
        13.250          11.500
                   3376362.015 6   2630927.410 6  21383452.557    21383455.826
        19.000          18.750
                  -6026145.504 6  -4695701.062 6  21371597.650    21371599.838
        19.000          20.000
                   4638059.135 6   3614069.500 6  22818413.346    22818416.166
        15.500          13.750
 95  4 27 17 15 30.0020000  0  6G 2G16G18G19G27G31
                  -7573571.071 6  -5889006.038 6  22476152.338    22476156.385
        18.500          17.500
                   2428239.865 3   1892130.547 5  24907578.947    24907583.803
         5.750           6.000
                  15317871.398 6  11935993.135 5  23167136.775    23167141.229
        13.250          11.500
                   3403218.856 6   2651854.808 6  21388563.361    21388566.623
        19.000          19.000
                  -6029331.902 6  -4698183.971 6  21370991.166    21370993.615
        18.750          20.250
                   4683912.499 6   3649799.391 6  22827139.025    22827141.791
        15.750          13.750
 95  4 27 17 15 45.0020000  0  6G 2G16G18G19G27G31
                  -7576937.578 6  -5891629.280 6  22475511.744    22475515.729
        18.500          17.500
                   2455593.229 3   1913444.832 5  24912783.908    24912788.729
         5.750           6.000
                  15384926.516 6  11988243.828 5  23179896.994    23179901.334
        13.250          11.500
                   3430201.095 6   2672879.925 6  21393697.955    21393701.158
        19.000          19.000
                  -6032410.503 6  -4700582.885 6  21370405.400    21370407.732
        18.750          20.250
                   4729952.613 6   3685674.802 6  22835900.205    22835902.838
        15.750          13.750
 95  4 27 17 16  0.0020000  0  6G 2G16G18G19G27G31
                  -7580190.384 6  -5894163.926 6  22474892.611    22474896.670
        18.500          17.500
                   2483115.991 3   1934891.121 5  24918021.447    24918026.291
         5.750           6.000
                  15452099.093 6  12040586.050 5  23192679.658    23192683.861
        13.250          11.250
                   3457305.964 6   2694000.600 6  21398855.955    21398859.182
        19.000          18.750
                  -6035384.328 6  -4702900.153 6  21369839.619    21369841.982
        18.750          20.250
                   4776172.687 6   3721690.448 6  22844695.689    22844698.514
        15.750          14.000
 95  4 27 17 16 15.0020000  0  6G 2G16G18G19G27G31
                  -7583335.698 6  -5896614.805 6  22474293.986    22474297.979
        18.750          17.500
                   2510798.904 3   1956462.198 5  24923289.611    24923293.873
         6.000           6.000
                  15519380.052 6  12093012.718 5  23205482.830    23205487.061
        13.250          11.250
                   3484526.427 6   2715211.345 6  21404035.822    21404039.045
        19.000          18.750
                  -6038257.916 6  -4705139.314 6  21369292.807    21369295.170
        18.750          20.250
                   4822561.713 6   3757837.738 6  22853523.221    22853525.916
        15.750          14.000
 95  4 27 17 16 30.0020000  0  6G 2G16G18G19G27G31
                  -7586370.729 6  -5898979.759 6  22473716.533    22473720.533
        18.750          17.500
                   2538642.005 3   1978158.091 5  24928588.033    24928592.107
         6.000           5.750
                  15586768.691 6  12145523.296 5  23218306.447    23218310.756
        13.250          11.250
                   3511865.152 6   2736514.238 6  21409238.135    21409241.525
        19.000          19.000
                  -6041029.919 6  -4707299.320 6  21368765.393    21368767.791
        18.750          20.500
                   4869123.008 6   3794119.257 6  22862383.510    22862386.354
        15.750          14.000
 95  4 27 17 16 45.0020000  0  6G 2G16G18G19G27G31
                  -7589300.190 6  -5901262.445 6  22473159.158    22473163.143
        18.750          17.500
                   2566636.637 3   1999972.061 5  24933915.291    24933919.896
         6.000           6.000
                  15654260.155 6  12198114.001 5  23231149.713    23231154.104
        13.250          11.250
                   3539321.989 6   2757909.175 6  21414462.893    21414466.205
        19.000          19.000
                  -6043704.472 6  -4709383.387 6  21368256.252    21368258.643
        18.750          20.500
                   4915852.483 6   3830531.835 6  22871275.752    22871278.584
        15.750          14.000
 95  4 27 17 17  0.0020000  0  6G 2G16G18G19G27G31
                  -7592129.401 6  -5903467.011 6  22472620.721    22472624.705
        18.500          17.250
                   2594776.341 3   2021899.079 5  24939269.939    24939275.025
         6.000           6.250
                  15721852.331 6  12250783.181 5  23244012.189    23244016.553
        13.250          11.000
                   3566891.823 6   2779392.160 6  21419709.260    21419712.498
        19.000          19.000
                  -6046283.882 6  -4711393.317 6  21367765.471    21367767.881
        18.750          20.500
                   4962746.654 6   3867072.745 6  22880199.510    22880202.404
        15.750          14.000
 95  4 27 17 17 15.0020000  0  6G 2G16G18G19G27G31
                  -7594854.460 6  -5905590.424 6  22472102.111    22472106.049
        18.500          17.500
                   2623063.218 3   2043940.768 5  24944652.877    24944657.533
         6.000           6.250
                  15789548.822 6  12303533.650 5  23256894.369    23256898.803
        13.000          11.000
                   3594575.461 6   2800963.827 6  21424977.330    21424980.611
        19.000          18.750
                  -6048763.086 6  -4713325.162 6  21367293.658    21367296.037
        18.500          20.500
                   5009810.774 6   3903746.080 6  22889155.455    22889158.350
        15.500          14.000
 95  4 27 17 17 30.0020000  0  7G 2G16G18G19G 7G27G31
                  -7597483.482 6  -5907639.001 6  22471601.783    22471605.818
        18.750          17.750
                   2651489.255 3   2066090.899 5  24950061.979    24950067.146
         5.750           6.500
                  15857340.027 6  12356357.914 5  23269794.627    23269798.998
        13.000          11.000
                   3622364.128 6   2822617.325 6  21430265.322    21430268.525
        19.000          19.000
                    -26439.683 3    -20602.20415  24711550.283    24711558.123
         5.250           6.750
                  -6051150.578 6  -4715185.548 6  21366839.393    21366841.807
        18.500          20.750
                   5057034.399 6   3940543.702 6  22898141.986    22898144.822
        15.500          14.000
 95  4 27 17 17 45.0020000  0  7G 2G16G18G19G 7G27G31
                  -7600015.964 6  -5909612.354 6  22471119.846    22471123.998
        18.500          17.750
                   2680052.643 3   2088348.051 5  24955497.174    24955502.553
         5.500           6.500
                  15925220.949 6  12409252.088 5  23282711.900    23282716.264
        13.000          11.000
                   3650253.340 6   2844349.169 6  21435572.564    21435575.787
        19.000          19.000
                    -62457.260 3    -48667.820 5  24704696.580    24704704.299
         5.500           7.000
                  -6053448.781 6  -4716976.357 6  21366401.963    21366404.432
        18.250          20.750
                   5104412.989 6   3977462.077 6  22907157.713    22907160.740
        15.750          14.000
 95  4 27 17 18  0.0020000  0  7G 2G16G18G19G 7G27G31
                  -7602450.813 6  -5911509.632 6  22470656.424    22470660.420
        18.750          17.750
                   2708751.249 3   2110710.580 5  24960958.502    24960963.709
         5.250           6.750
                  15993190.096 6  12462215.011 5  23295646.150    23295650.506
        12.750          11.000
                   3678241.327 6   2866157.987 6  21440898.291    21440901.588
        19.000          18.750
                    -98430.726 3    -76699.056 5  24697851.760    24697858.451
         5.750           6.750
                  -6055657.416 6  -4718697.374 6  21365981.596    21365984.256
        18.250          21.000
                   5151946.025 6   4014500.799 6  22916203.072    22916205.998
        15.750          14.000
 95  4 27 17 18 15.0020000  0  7G 2G16G18G19G 7G27G31
                  -7604792.979 6  -5913334.682 6  22470210.807    22470214.787
        18.750          17.750
                   2737578.831 3   2133173.608 5  24966444.096    24966449.260
         5.250           6.250
                  16061242.079 6  12515242.482 5  23308595.869    23308600.123
        12.500          11.000
                   3706324.571 6   2888041.035 6  21446242.260    21446245.521
        18.750          18.750
                   -134365.002 3   -104699.741 5  24691013.463    24691020.072
         6.000           6.750
                  -6057779.500 6  -4720350.943 6  21365577.760    21365580.428
        18.000          21.000
                   5199630.002 6   4051657.140 6  22925277.049    22925279.951
        15.750          14.000
 95  4 27 17 18 30.0020000  0  7G 2G16G18G19G 7G27G31
                  -7607043.163 6  -5915088.066 6  22469782.549    22469786.576
        18.500          17.750
                   2766533.765 3   2155735.847 5  24971954.299    24971959.213
         5.750           6.250
                  16129373.579 6  12568331.904 5  23321561.057    23321565.229
        12.500          10.750
                   3734497.872 6   2909994.245 6  21451603.666    21451607.002
        18.750          19.000
                   -170264.813 3   -132673.576 5  24684181.588    24684189.154
         6.000           6.750
                  -6059818.357 6  -4721939.666 6  21365189.877    21365192.475
        18.000          21.250
                   5247465.037 6   4088931.188 6  22934379.783    22934382.572
        15.750          14.000
 95  4 27 17 18 45.0020000  0  7G 2G16G18G19G 7G27G31
                  -7609204.956 6  -5916772.566 6  22469371.135    22469375.225
        18.500          18.000
                   2795613.563 3   2178395.406 5  24977488.111    24977493.076
         5.750           6.500
                  16197582.458 6  12621481.629 5  23334540.752    23334545.135
        12.750          10.750
                   3762757.735 6   2932014.915 6  21456981.244    21456984.604
        18.750          19.000
                   -206139.861 3   -160628.121 5  24677354.604    24677362.088
         6.000           6.750
                  -6061779.261 6  -4723467.638 6  21364816.604    21364819.303
        18.000          21.000
                   5295446.014 6   4126318.950 6  22943510.189    22943512.963
        15.500          13.750
 95  4 27 17 19  0.0020000  0  7G 2G16G18G19G 7G27G31
                  -7611282.348 6  -5918391.305 6  22468975.807    22468979.979
        18.500          17.750
                   2824818.207 3   2201152.246 5  24983045.471    24983050.682
         5.500           6.250
                  16265866.894 6  12674690.226 5  23347535.072    23347539.451
        12.500          10.750
                   3791099.399 6   2954099.321 6  21462374.518    21462377.904
        18.750          18.750
                   -241993.853 3   -188566.252 5  24670531.682    24670538.842
         6.000           6.750
                  -6063661.077 6  -4724933.989 6  21364458.588    21364461.139
        18.000          21.000
                   5343568.542 6   4163817.018 6  22952667.674    22952670.623
        15.750          13.750
 95  4 27 17 19 15.0020000  0  7G 2G16G18G19G 7G27G31
                  -7613266.187 6  -5919937.143 6  22468598.385    22468602.385
        18.750          18.000
                   2854162.192 3   2224017.650 5  24988629.494    24988634.545
         5.500           6.750
                  16334234.521 6  12727963.644 5  23360544.986    23360549.369
        12.500          11.000
                   3819529.919 6   2976252.970 6  21467784.658    21467787.939
        18.500          18.500
                   -277819.290 4   -216482.132 5  24663714.322    24663721.842
         6.250           6.750
                  -6065453.067 6  -4726330.347 6  21364117.541    21364120.139
        18.000          21.000
                   5391841.339 6   4201432.179 6  22961853.619    22961856.502
        15.750          14.000
 95  4 27 17 19 30.0020000  0  7G 2G16G18G19G 7G27G31
                  -7615162.786 6  -5921414.998 6  22468237.377    22468241.498
        18.500          18.000
                   2883640.177 3   2246987.482 5  24994238.908    24994243.787
         5.750           6.500
                  16402677.835 6  12781296.048 5  23373569.377    23373574.006
        12.500          11.000
                   3848043.303 6   2998471.191 6  21473210.619    21473214.006
        18.750          18.750
                   -313619.224 4   -244378.128 5  24656902.213    24656909.104
         6.250           6.250
                  -6067162.459 6  -4727662.338 6  21363792.236    21363794.865
        18.000          21.250
                   5440256.620 6   4239158.365 6  22971066.768    22971069.623
        15.750          14.000
 95  4 27 17 19 45.0020000  0  7G 2G16G18G19G 7G27G31
                  -7616978.889 6  -5922830.137 6  22467891.760    22467895.803
        18.500          18.000
                   2913245.157 3   2270056.276 5  24999872.455    24999877.334
         5.750           6.000
                  16471195.729 6  12834686.555 5  23386607.869    23386612.330
        12.500          10.750
                   3876637.073 6   3020752.039 6  21478651.861    21478655.104
        18.750          18.750
                   -349393.520 4   -272254.158 5  24650094.658    24650101.994
         6.500           6.250
                  -6068793.601 6  -4728933.353 6  21363481.979    21363484.451
        18.250          21.250
                   5488812.148 6   4276993.832 6  22980306.564    22980309.350
        15.750          14.000
 95  4 27 17 20  0.0020000  0  7G 2G16G18G19G 7G27G31
                  -7618718.321 6  -5924185.535 6  22467560.783    22467564.838
        18.750          18.000
                   2942975.889 3   2293223.053 5  25005530.033    25005534.842
         5.750           6.000
                  16539791.945 6  12888138.096 5  23399661.229    23399665.643
        12.500          10.500
                   3905313.110 6   3043096.991 6  21484108.643    21484111.936
        18.750          18.500
                   -385141.048 4   -300109.318 5  24643292.111    24643298.951
         6.750           6.000
                  -6070346.991 6  -4730143.791 6  21363186.369    21363188.826
        18.250          21.250
                   5537510.699 6   4314940.740 6  22989573.643    22989576.369
        15.750          13.750
 95  4 27 17 20 15.0020000  0  7G 2G16G18G19G 7G27G31
                  -7620391.887 6  -5925489.597 6  22467242.096    22467246.205
        18.500          18.000
                   2972824.000 3   2316481.298 5  25011209.869    25011214.646
         5.750           6.000
                  16608461.027 6  12941646.416 5  23412728.666    23412732.963
        12.500          10.500
                   3934066.832 6   3065502.481 6  21489580.268    21489583.389
        18.750          18.250
                   -420867.257 4   -327947.862 5  24636493.346    24636500.514
         6.500           6.000
                  -6071831.994 6  -4731300.934 6  21362903.783    21362906.338
        18.750          21.250
                   5586345.701 6   4352993.982 6  22998866.791    22998869.506
        15.750          13.750
 95  4 27 17 20 30.0020000  0  7G 2G16G18G19G 7G27G31
                  -7621989.782 6  -5926734.699 6  22466938.268    22466942.260
        18.500          18.000
                   3002799.111 3   2339838.493 5  25016914.463    25016919.213
         5.750           6.000
                  16677211.966 6  12995218.522 5  23425811.674    23425815.975
        12.500          10.500
                   3962907.326 6   3087975.585 6  21495068.510    21495071.705
        18.750          18.500
                   -456560.705 4   -355760.886 5  24629700.729    24629707.779
         6.250           5.750
                  -6073240.220 6  -4732398.254 6  21362635.822    21362638.178
        18.750          21.250
                   5635324.586 6   4391159.334 6  23008187.252    23008190.010
        15.750          13.750
 95  4 27 17 20 45.0020000  0  7G 2G16G18G19G 7G27G31
                  -7623523.023 6  -5927929.424 6  22466646.439    22466650.447
        18.750          18.000
                   3032895.259 3   2363290.016 5  25022641.275    25022646.580
         5.750           6.000
                  16746037.849 6  13048849.026 5  23438908.541    23438913.115
        12.500          10.500
                   3991827.510 6   3110510.784 6  21500571.877    21500574.936
        18.750          18.250
                   -492226.101 4   -383552.062 5  24622914.213    24622921.213
         6.750           5.750
                  -6074579.200 6  -4733441.620 6  21362381.189    21362383.639
        18.750          21.250
                   5684439.004 6   4429430.300 6  23017533.150    23017535.744
        15.750          13.750
 95  4 27 17 21  0.0020000  0  7G 2G16G18G19G 7G27G31
                  -7624996.091 6  -5929077.260 6  22466366.127    22466370.186
        18.750          18.000
                   3063108.486 3   2386832.771 5  25028390.408    25028395.811
         5.250           6.250
                  16814935.590 6  13102535.520 5  23452019.588    23452024.119
        12.500          10.500
                   4020824.967 6   3133106.201 6  21506089.838    21506093.045
        18.750          18.250
                   -527860.638 4   -411319.179 5  24616133.127    24616139.674
         6.750           5.500
                  -6075850.173 6  -4734431.984 6  21362139.158    21362141.658
        19.000          21.250
                   5733684.646 6   4467803.520 6  23026904.416    23026907.111
        15.750          13.750
 95  4 27 17 21 15.0020000  0  7G 2G16G18G19G 7G27G31
                  -7626413.643 6  -5930181.836 6  22466096.260    22466100.396
        18.750          18.250
                   3093430.883 3   2410460.581 5  25034161.174    25034165.939
         5.750           6.000
                  16883896.225 6  13156271.026 5  23465142.377    23465146.881
        12.500          10.500
                   4049893.553 6   3155757.034 6  21511621.463    21511624.600
        18.500          18.250
                   -563466.889 4   -439064.259 5  24609357.580    24609363.826
         6.500           5.250
                  -6077058.171 6  -4735373.283 6  21361909.361    21361911.803
        19.000          21.250
                   5783055.544 6   4506274.336 6  23036299.369    23036302.072
        15.750          13.750
